<?xml version="1.0" encoding="UTF-8" standalone="no" ?>
<gpx xmlns="http://www.topografix.com/GPX/1/1" xmlns:xsi="http://www.w3.org/2001/XMLSchema-instance" xsi:schemaLocation="http://www.topografix.com/GPX/1/1 http://www.topografix.com/GPX/1/1/gpx.xsd" version="1.1" creator="VisuGPX - https://www.visugpx.com">
  <metadata>
    <name>Rando de Fontainebleau 50km 2011</name>
    <desc><![CDATA[Superbe forêt. Pas mal de sable, mais sans grande difficulté

]]></desc>
  </metadata>
  <trk>
    <name><![CDATA[foret fontainebleau]]></name>
    <trkseg>
      <trkpt lat="48.40405" lon="2.68291">
        <ele>90.501342773438</ele>
        <time>2011-03-27T06:50:46Z</time>
      </trkpt>
      <trkpt lat="48.40405" lon="2.6829">
        <ele>90.501342773438</ele>
        <time>2011-03-27T06:50:47Z</time>
      </trkpt>
      <trkpt lat="48.40405" lon="2.68291">
        <ele>90.501342773438</ele>
        <time>2011-03-27T06:50:48Z</time>
      </trkpt>
      <trkpt lat="48.40406" lon="2.68295">
        <ele>90.501342773438</ele>
        <time>2011-03-27T06:50:52Z</time>
      </trkpt>
      <trkpt lat="48.40408" lon="2.68297">
        <ele>90.020629882812</ele>
        <time>2011-03-27T06:50:53Z</time>
      </trkpt>
      <trkpt lat="48.40414" lon="2.68295">
        <ele>89.539916992188</ele>
        <time>2011-03-27T06:50:58Z</time>
      </trkpt>
      <trkpt lat="48.40422" lon="2.68303">
        <ele>89.539916992188</ele>
        <time>2011-03-27T06:51:03Z</time>
      </trkpt>
      <trkpt lat="48.40442" lon="2.68316">
        <ele>89.059326171875</ele>
        <time>2011-03-27T06:51:11Z</time>
      </trkpt>
      <trkpt lat="48.40457" lon="2.68322">
        <ele>90.020629882812</ele>
        <time>2011-03-27T06:51:17Z</time>
      </trkpt>
      <trkpt lat="48.40462" lon="2.68308">
        <ele>90.020629882812</ele>
        <time>2011-03-27T06:51:22Z</time>
      </trkpt>
      <trkpt lat="48.40462" lon="2.68304">
        <ele>90.020629882812</ele>
        <time>2011-03-27T06:51:23Z</time>
      </trkpt>
      <trkpt lat="48.40468" lon="2.68262">
        <ele>90.501342773438</ele>
        <time>2011-03-27T06:51:31Z</time>
      </trkpt>
      <trkpt lat="48.40474" lon="2.68217">
        <ele>90.501342773438</ele>
        <time>2011-03-27T06:51:38Z</time>
      </trkpt>
      <trkpt lat="48.40481" lon="2.68167">
        <ele>90.501342773438</ele>
        <time>2011-03-27T06:51:45Z</time>
      </trkpt>
      <trkpt lat="48.40488" lon="2.68122">
        <ele>90.98193359375</ele>
        <time>2011-03-27T06:51:51Z</time>
      </trkpt>
      <trkpt lat="48.40496" lon="2.68067">
        <ele>90.501342773438</ele>
        <time>2011-03-27T06:51:58Z</time>
      </trkpt>
      <trkpt lat="48.40505" lon="2.68005">
        <ele>90.98193359375</ele>
        <time>2011-03-27T06:52:06Z</time>
      </trkpt>
      <trkpt lat="48.40512" lon="2.67951">
        <ele>91.462524414062</ele>
        <time>2011-03-27T06:52:13Z</time>
      </trkpt>
      <trkpt lat="48.40523" lon="2.67869">
        <ele>91.462524414062</ele>
        <time>2011-03-27T06:52:23Z</time>
      </trkpt>
      <trkpt lat="48.40533" lon="2.67797">
        <ele>91.943237304688</ele>
        <time>2011-03-27T06:52:32Z</time>
      </trkpt>
      <trkpt lat="48.40534" lon="2.6779">
        <ele>91.462524414062</ele>
        <time>2011-03-27T06:52:33Z</time>
      </trkpt>
      <trkpt lat="48.40538" lon="2.67768">
        <ele>91.943237304688</ele>
        <time>2011-03-27T06:52:36Z</time>
      </trkpt>
      <trkpt lat="48.40544" lon="2.67715">
        <ele>90.98193359375</ele>
        <time>2011-03-27T06:52:43Z</time>
      </trkpt>
      <trkpt lat="48.40546" lon="2.67707">
        <ele>90.501342773438</ele>
        <time>2011-03-27T06:52:44Z</time>
      </trkpt>
      <trkpt lat="48.4054" lon="2.67668">
        <ele>90.501342773438</ele>
        <time>2011-03-27T06:52:49Z</time>
      </trkpt>
      <trkpt lat="48.40532" lon="2.67652">
        <ele>89.539916992188</ele>
        <time>2011-03-27T06:52:51Z</time>
      </trkpt>
      <trkpt lat="48.4049" lon="2.67577">
        <ele>89.539916992188</ele>
        <time>2011-03-27T06:53:01Z</time>
      </trkpt>
      <trkpt lat="48.40456" lon="2.67512">
        <ele>89.059326171875</ele>
        <time>2011-03-27T06:53:10Z</time>
      </trkpt>
      <trkpt lat="48.40429" lon="2.67461">
        <ele>89.059326171875</ele>
        <time>2011-03-27T06:53:17Z</time>
      </trkpt>
      <trkpt lat="48.40399" lon="2.67404">
        <ele>89.059326171875</ele>
        <time>2011-03-27T06:53:25Z</time>
      </trkpt>
      <trkpt lat="48.40371" lon="2.67355">
        <ele>88.098022460938</ele>
        <time>2011-03-27T06:53:32Z</time>
      </trkpt>
      <trkpt lat="48.40336" lon="2.67287">
        <ele>87.136596679688</ele>
        <time>2011-03-27T06:53:41Z</time>
      </trkpt>
      <trkpt lat="48.40302" lon="2.67226">
        <ele>86.656005859375</ele>
        <time>2011-03-27T06:53:49Z</time>
      </trkpt>
      <trkpt lat="48.4028" lon="2.67183">
        <ele>86.656005859375</ele>
        <time>2011-03-27T06:53:55Z</time>
      </trkpt>
      <trkpt lat="48.40262" lon="2.67151">
        <ele>86.656005859375</ele>
        <time>2011-03-27T06:54:00Z</time>
      </trkpt>
      <trkpt lat="48.40229" lon="2.67088">
        <ele>86.656005859375</ele>
        <time>2011-03-27T06:54:10Z</time>
      </trkpt>
      <trkpt lat="48.40207" lon="2.67047">
        <ele>87.136596679688</ele>
        <time>2011-03-27T06:54:17Z</time>
      </trkpt>
      <trkpt lat="48.40189" lon="2.67013">
        <ele>87.6171875</ele>
        <time>2011-03-27T06:54:23Z</time>
      </trkpt>
      <trkpt lat="48.40158" lon="2.66962">
        <ele>87.6171875</ele>
        <time>2011-03-27T06:54:32Z</time>
      </trkpt>
      <trkpt lat="48.40138" lon="2.66921">
        <ele>88.578735351562</ele>
        <time>2011-03-27T06:54:39Z</time>
      </trkpt>
      <trkpt lat="48.4012" lon="2.66886">
        <ele>87.6171875</ele>
        <time>2011-03-27T06:54:45Z</time>
      </trkpt>
      <trkpt lat="48.40101" lon="2.66851">
        <ele>87.6171875</ele>
        <time>2011-03-27T06:54:50Z</time>
      </trkpt>
      <trkpt lat="48.40078" lon="2.66805">
        <ele>87.6171875</ele>
        <time>2011-03-27T06:54:56Z</time>
      </trkpt>
      <trkpt lat="48.40059" lon="2.66769">
        <ele>87.6171875</ele>
        <time>2011-03-27T06:55:01Z</time>
      </trkpt>
      <trkpt lat="48.40044" lon="2.66737">
        <ele>87.6171875</ele>
        <time>2011-03-27T06:55:05Z</time>
      </trkpt>
      <trkpt lat="48.40039" lon="2.66693">
        <ele>88.098022460938</ele>
        <time>2011-03-27T06:55:10Z</time>
      </trkpt>
      <trkpt lat="48.40038" lon="2.6663">
        <ele>88.578735351562</ele>
        <time>2011-03-27T06:55:17Z</time>
      </trkpt>
      <trkpt lat="48.40039" lon="2.66569">
        <ele>88.578735351562</ele>
        <time>2011-03-27T06:55:24Z</time>
      </trkpt>
      <trkpt lat="48.40043" lon="2.66517">
        <ele>89.059326171875</ele>
        <time>2011-03-27T06:55:30Z</time>
      </trkpt>
      <trkpt lat="48.40045" lon="2.66444">
        <ele>89.539916992188</ele>
        <time>2011-03-27T06:55:38Z</time>
      </trkpt>
      <trkpt lat="48.40047" lon="2.66382">
        <ele>90.020629882812</ele>
        <time>2011-03-27T06:55:45Z</time>
      </trkpt>
      <trkpt lat="48.4005" lon="2.66322">
        <ele>90.020629882812</ele>
        <time>2011-03-27T06:55:52Z</time>
      </trkpt>
      <trkpt lat="48.40051" lon="2.66287">
        <ele>90.501342773438</ele>
        <time>2011-03-27T06:55:56Z</time>
      </trkpt>
      <trkpt lat="48.40052" lon="2.66253">
        <ele>90.020629882812</ele>
        <time>2011-03-27T06:56:00Z</time>
      </trkpt>
      <trkpt lat="48.4006" lon="2.66215">
        <ele>90.501342773438</ele>
        <time>2011-03-27T06:56:05Z</time>
      </trkpt>
      <trkpt lat="48.40054" lon="2.66191">
        <ele>90.98193359375</ele>
        <time>2011-03-27T06:56:09Z</time>
      </trkpt>
      <trkpt lat="48.40047" lon="2.66185">
        <ele>91.462524414062</ele>
        <time>2011-03-27T06:56:11Z</time>
      </trkpt>
      <trkpt lat="48.40038" lon="2.66178">
        <ele>92.423950195312</ele>
        <time>2011-03-27T06:56:14Z</time>
      </trkpt>
      <trkpt lat="48.40021" lon="2.66173">
        <ele>93.865844726562</ele>
        <time>2011-03-27T06:56:20Z</time>
      </trkpt>
      <trkpt lat="48.40005" lon="2.66166">
        <ele>95.788452148438</ele>
        <time>2011-03-27T06:56:27Z</time>
      </trkpt>
      <trkpt lat="48.39991" lon="2.6616">
        <ele>97.711181640625</ele>
        <time>2011-03-27T06:56:34Z</time>
      </trkpt>
      <trkpt lat="48.39977" lon="2.66152">
        <ele>99.6337890625</ele>
        <time>2011-03-27T06:56:41Z</time>
      </trkpt>
      <trkpt lat="48.39961" lon="2.66149">
        <ele>101.55639648438</ele>
        <time>2011-03-27T06:56:49Z</time>
      </trkpt>
      <trkpt lat="48.39949" lon="2.6615">
        <ele>102.99829101562</ele>
        <time>2011-03-27T06:56:56Z</time>
      </trkpt>
      <trkpt lat="48.39936" lon="2.66154">
        <ele>105.40173339844</ele>
        <time>2011-03-27T06:57:03Z</time>
      </trkpt>
      <trkpt lat="48.39927" lon="2.66162">
        <ele>106.84362792969</ele>
        <time>2011-03-27T06:57:09Z</time>
      </trkpt>
      <trkpt lat="48.39914" lon="2.6617">
        <ele>108.28564453125</ele>
        <time>2011-03-27T06:57:17Z</time>
      </trkpt>
      <trkpt lat="48.39901" lon="2.66174">
        <ele>110.68884277344</ele>
        <time>2011-03-27T06:57:25Z</time>
      </trkpt>
      <trkpt lat="48.3989" lon="2.6617">
        <ele>112.13098144531</ele>
        <time>2011-03-27T06:57:33Z</time>
      </trkpt>
      <trkpt lat="48.39882" lon="2.66165">
        <ele>114.05358886719</ele>
        <time>2011-03-27T06:57:39Z</time>
      </trkpt>
      <trkpt lat="48.39874" lon="2.66161">
        <ele>115.97619628906</ele>
        <time>2011-03-27T06:57:44Z</time>
      </trkpt>
      <trkpt lat="48.39864" lon="2.66159">
        <ele>117.89880371094</ele>
        <time>2011-03-27T06:57:52Z</time>
      </trkpt>
      <trkpt lat="48.39853" lon="2.66158">
        <ele>117.89880371094</ele>
        <time>2011-03-27T06:57:56Z</time>
      </trkpt>
      <trkpt lat="48.39829" lon="2.66156">
        <ele>112.13098144531</ele>
        <time>2011-03-27T06:58:00Z</time>
      </trkpt>
      <trkpt lat="48.39802" lon="2.66155">
        <ele>108.28564453125</ele>
        <time>2011-03-27T06:58:03Z</time>
      </trkpt>
      <trkpt lat="48.39764" lon="2.66146">
        <ele>102.037109375</ele>
        <time>2011-03-27T06:58:07Z</time>
      </trkpt>
      <trkpt lat="48.39754" lon="2.66143">
        <ele>100.11450195312</ele>
        <time>2011-03-27T06:58:08Z</time>
      </trkpt>
      <trkpt lat="48.39709" lon="2.66114">
        <ele>95.788452148438</ele>
        <time>2011-03-27T06:58:13Z</time>
      </trkpt>
      <trkpt lat="48.39694" lon="2.661">
        <ele>94.8271484375</ele>
        <time>2011-03-27T06:58:15Z</time>
      </trkpt>
      <trkpt lat="48.39677" lon="2.66066">
        <ele>93.385131835938</ele>
        <time>2011-03-27T06:58:19Z</time>
      </trkpt>
      <trkpt lat="48.39655" lon="2.65996">
        <ele>90.98193359375</ele>
        <time>2011-03-27T06:58:26Z</time>
      </trkpt>
      <trkpt lat="48.39639" lon="2.65944">
        <ele>90.98193359375</ele>
        <time>2011-03-27T06:58:32Z</time>
      </trkpt>
      <trkpt lat="48.39639" lon="2.65905">
        <ele>88.578735351562</ele>
        <time>2011-03-27T06:58:36Z</time>
      </trkpt>
      <trkpt lat="48.39653" lon="2.65853">
        <ele>88.578735351562</ele>
        <time>2011-03-27T06:58:42Z</time>
      </trkpt>
      <trkpt lat="48.39663" lon="2.65803">
        <ele>89.059326171875</ele>
        <time>2011-03-27T06:58:48Z</time>
      </trkpt>
      <trkpt lat="48.39677" lon="2.65752">
        <ele>89.059326171875</ele>
        <time>2011-03-27T06:58:55Z</time>
      </trkpt>
      <trkpt lat="48.39681" lon="2.65731">
        <ele>90.020629882812</ele>
        <time>2011-03-27T06:58:58Z</time>
      </trkpt>
      <trkpt lat="48.3969" lon="2.65689">
        <ele>87.6171875</ele>
        <time>2011-03-27T06:59:04Z</time>
      </trkpt>
      <trkpt lat="48.39694" lon="2.65645">
        <ele>86.17529296875</ele>
        <time>2011-03-27T06:59:09Z</time>
      </trkpt>
      <trkpt lat="48.39695" lon="2.65636">
        <ele>87.136596679688</ele>
        <time>2011-03-27T06:59:10Z</time>
      </trkpt>
      <trkpt lat="48.39704" lon="2.65592">
        <ele>87.136596679688</ele>
        <time>2011-03-27T06:59:16Z</time>
      </trkpt>
      <trkpt lat="48.3971" lon="2.65551">
        <ele>87.136596679688</ele>
        <time>2011-03-27T06:59:22Z</time>
      </trkpt>
      <trkpt lat="48.39714" lon="2.6551">
        <ele>87.6171875</ele>
        <time>2011-03-27T06:59:28Z</time>
      </trkpt>
      <trkpt lat="48.39715" lon="2.65494">
        <ele>88.578735351562</ele>
        <time>2011-03-27T06:59:30Z</time>
      </trkpt>
      <trkpt lat="48.39715" lon="2.6548">
        <ele>89.539916992188</ele>
        <time>2011-03-27T06:59:32Z</time>
      </trkpt>
      <trkpt lat="48.39718" lon="2.65441">
        <ele>89.539916992188</ele>
        <time>2011-03-27T06:59:37Z</time>
      </trkpt>
      <trkpt lat="48.39725" lon="2.65388">
        <ele>89.539916992188</ele>
        <time>2011-03-27T06:59:44Z</time>
      </trkpt>
      <trkpt lat="48.39732" lon="2.6534">
        <ele>90.98193359375</ele>
        <time>2011-03-27T06:59:51Z</time>
      </trkpt>
      <trkpt lat="48.39737" lon="2.65298">
        <ele>91.462524414062</ele>
        <time>2011-03-27T06:59:57Z</time>
      </trkpt>
      <trkpt lat="48.39742" lon="2.65256">
        <ele>92.423950195312</ele>
        <time>2011-03-27T07:00:04Z</time>
      </trkpt>
      <trkpt lat="48.39746" lon="2.65221">
        <ele>90.98193359375</ele>
        <time>2011-03-27T07:00:09Z</time>
      </trkpt>
      <trkpt lat="48.3975" lon="2.65185">
        <ele>91.462524414062</ele>
        <time>2011-03-27T07:00:14Z</time>
      </trkpt>
      <trkpt lat="48.39756" lon="2.65141">
        <ele>91.943237304688</ele>
        <time>2011-03-27T07:00:20Z</time>
      </trkpt>
      <trkpt lat="48.3976" lon="2.65095">
        <ele>93.385131835938</ele>
        <time>2011-03-27T07:00:27Z</time>
      </trkpt>
      <trkpt lat="48.39764" lon="2.65049">
        <ele>93.865844726562</ele>
        <time>2011-03-27T07:00:34Z</time>
      </trkpt>
      <trkpt lat="48.39768" lon="2.6501">
        <ele>94.346557617188</ele>
        <time>2011-03-27T07:00:40Z</time>
      </trkpt>
      <trkpt lat="48.39772" lon="2.64958">
        <ele>95.307739257812</ele>
        <time>2011-03-27T07:00:48Z</time>
      </trkpt>
      <trkpt lat="48.39779" lon="2.64897">
        <ele>95.307739257812</ele>
        <time>2011-03-27T07:00:57Z</time>
      </trkpt>
      <trkpt lat="48.39785" lon="2.64848">
        <ele>97.23046875</ele>
        <time>2011-03-27T07:01:05Z</time>
      </trkpt>
      <trkpt lat="48.39786" lon="2.64826">
        <ele>97.711181640625</ele>
        <time>2011-03-27T07:01:09Z</time>
      </trkpt>
      <trkpt lat="48.39788" lon="2.6481">
        <ele>98.672485351562</ele>
        <time>2011-03-27T07:01:13Z</time>
      </trkpt>
      <trkpt lat="48.3979" lon="2.64787">
        <ele>99.6337890625</ele>
        <time>2011-03-27T07:01:18Z</time>
      </trkpt>
      <trkpt lat="48.39789" lon="2.64761">
        <ele>100.11450195312</ele>
        <time>2011-03-27T07:01:23Z</time>
      </trkpt>
      <trkpt lat="48.39788" lon="2.64731">
        <ele>99.153076171875</ele>
        <time>2011-03-27T07:01:28Z</time>
      </trkpt>
      <trkpt lat="48.39779" lon="2.64693">
        <ele>97.711181640625</ele>
        <time>2011-03-27T07:01:33Z</time>
      </trkpt>
      <trkpt lat="48.39774" lon="2.64676">
        <ele>96.269287109375</ele>
        <time>2011-03-27T07:01:35Z</time>
      </trkpt>
      <trkpt lat="48.39771" lon="2.64646">
        <ele>94.346557617188</ele>
        <time>2011-03-27T07:01:38Z</time>
      </trkpt>
      <trkpt lat="48.39771" lon="2.646">
        <ele>95.788452148438</ele>
        <time>2011-03-27T07:01:43Z</time>
      </trkpt>
      <trkpt lat="48.39772" lon="2.64553">
        <ele>95.788452148438</ele>
        <time>2011-03-27T07:01:49Z</time>
      </trkpt>
      <trkpt lat="48.39772" lon="2.64545">
        <ele>95.788452148438</ele>
        <time>2011-03-27T07:01:50Z</time>
      </trkpt>
      <trkpt lat="48.3977" lon="2.64495">
        <ele>95.788452148438</ele>
        <time>2011-03-27T07:01:56Z</time>
      </trkpt>
      <trkpt lat="48.39769" lon="2.64441">
        <ele>94.8271484375</ele>
        <time>2011-03-27T07:02:02Z</time>
      </trkpt>
      <trkpt lat="48.39769" lon="2.64392">
        <ele>95.788452148438</ele>
        <time>2011-03-27T07:02:08Z</time>
      </trkpt>
      <trkpt lat="48.39768" lon="2.64348">
        <ele>94.8271484375</ele>
        <time>2011-03-27T07:02:14Z</time>
      </trkpt>
      <trkpt lat="48.39768" lon="2.64306">
        <ele>93.865844726562</ele>
        <time>2011-03-27T07:02:19Z</time>
      </trkpt>
      <trkpt lat="48.39769" lon="2.64297">
        <ele>94.346557617188</ele>
        <time>2011-03-27T07:02:20Z</time>
      </trkpt>
      <trkpt lat="48.39782" lon="2.64249">
        <ele>95.788452148438</ele>
        <time>2011-03-27T07:02:27Z</time>
      </trkpt>
      <trkpt lat="48.39785" lon="2.64223">
        <ele>95.788452148438</ele>
        <time>2011-03-27T07:02:31Z</time>
      </trkpt>
      <trkpt lat="48.3979" lon="2.64173">
        <ele>97.23046875</ele>
        <time>2011-03-27T07:02:39Z</time>
      </trkpt>
      <trkpt lat="48.39797" lon="2.64115">
        <ele>98.19189453125</ele>
        <time>2011-03-27T07:02:48Z</time>
      </trkpt>
      <trkpt lat="48.39804" lon="2.64058">
        <ele>98.19189453125</ele>
        <time>2011-03-27T07:02:57Z</time>
      </trkpt>
      <trkpt lat="48.39809" lon="2.64022">
        <ele>99.6337890625</ele>
        <time>2011-03-27T07:03:03Z</time>
      </trkpt>
      <trkpt lat="48.39813" lon="2.6398">
        <ele>101.07568359375</ele>
        <time>2011-03-27T07:03:10Z</time>
      </trkpt>
      <trkpt lat="48.39816" lon="2.63944">
        <ele>101.07568359375</ele>
        <time>2011-03-27T07:03:16Z</time>
      </trkpt>
      <trkpt lat="48.39818" lon="2.63914">
        <ele>102.037109375</ele>
        <time>2011-03-27T07:03:21Z</time>
      </trkpt>
      <trkpt lat="48.3982" lon="2.63882">
        <ele>102.51770019531</ele>
        <time>2011-03-27T07:03:27Z</time>
      </trkpt>
      <trkpt lat="48.3982" lon="2.63843">
        <ele>102.51770019531</ele>
        <time>2011-03-27T07:03:34Z</time>
      </trkpt>
      <trkpt lat="48.39822" lon="2.63818">
        <ele>103.95971679688</ele>
        <time>2011-03-27T07:03:39Z</time>
      </trkpt>
      <trkpt lat="48.39823" lon="2.63787">
        <ele>104.92102050781</ele>
        <time>2011-03-27T07:03:45Z</time>
      </trkpt>
      <trkpt lat="48.39814" lon="2.63761">
        <ele>105.88244628906</ele>
        <time>2011-03-27T07:03:51Z</time>
      </trkpt>
      <trkpt lat="48.39804" lon="2.63738">
        <ele>105.88244628906</ele>
        <time>2011-03-27T07:03:57Z</time>
      </trkpt>
      <trkpt lat="48.39794" lon="2.63714">
        <ele>107.80505371094</ele>
        <time>2011-03-27T07:04:03Z</time>
      </trkpt>
      <trkpt lat="48.39783" lon="2.63694">
        <ele>108.28564453125</ele>
        <time>2011-03-27T07:04:10Z</time>
      </trkpt>
      <trkpt lat="48.39777" lon="2.63679">
        <ele>109.24694824219</ele>
        <time>2011-03-27T07:04:16Z</time>
      </trkpt>
      <trkpt lat="48.39769" lon="2.63664">
        <ele>110.68884277344</ele>
        <time>2011-03-27T07:04:21Z</time>
      </trkpt>
      <trkpt lat="48.39762" lon="2.63649">
        <ele>111.65026855469</ele>
        <time>2011-03-27T07:04:27Z</time>
      </trkpt>
      <trkpt lat="48.39755" lon="2.63638">
        <ele>113.09228515625</ele>
        <time>2011-03-27T07:04:32Z</time>
      </trkpt>
      <trkpt lat="48.39745" lon="2.63633">
        <ele>115.01489257812</ele>
        <time>2011-03-27T07:04:38Z</time>
      </trkpt>
      <trkpt lat="48.39737" lon="2.63638">
        <ele>115.49560546875</ele>
        <time>2011-03-27T07:04:44Z</time>
      </trkpt>
      <trkpt lat="48.39725" lon="2.63649">
        <ele>116.9375</ele>
        <time>2011-03-27T07:04:51Z</time>
      </trkpt>
      <trkpt lat="48.39717" lon="2.6365">
        <ele>118.37939453125</ele>
        <time>2011-03-27T07:04:54Z</time>
      </trkpt>
      <trkpt lat="48.39711" lon="2.63647">
        <ele>119.3408203125</ele>
        <time>2011-03-27T07:04:57Z</time>
      </trkpt>
      <trkpt lat="48.39703" lon="2.63638">
        <ele>120.78283691406</ele>
        <time>2011-03-27T07:05:02Z</time>
      </trkpt>
      <trkpt lat="48.39695" lon="2.63617">
        <ele>122.22473144531</ele>
        <time>2011-03-27T07:05:09Z</time>
      </trkpt>
      <trkpt lat="48.39689" lon="2.63596">
        <ele>123.66674804688</ele>
        <time>2011-03-27T07:05:16Z</time>
      </trkpt>
      <trkpt lat="48.39684" lon="2.63581">
        <ele>124.62805175781</ele>
        <time>2011-03-27T07:05:20Z</time>
      </trkpt>
      <trkpt lat="48.39676" lon="2.63558">
        <ele>125.58935546875</ele>
        <time>2011-03-27T07:05:27Z</time>
      </trkpt>
      <trkpt lat="48.39672" lon="2.63546">
        <ele>127.03137207031</ele>
        <time>2011-03-27T07:05:32Z</time>
      </trkpt>
      <trkpt lat="48.39671" lon="2.63541">
        <ele>127.51196289062</ele>
        <time>2011-03-27T07:05:34Z</time>
      </trkpt>
      <trkpt lat="48.39668" lon="2.63539">
        <ele>128.9541015625</ele>
        <time>2011-03-27T07:05:36Z</time>
      </trkpt>
      <trkpt lat="48.39664" lon="2.63538">
        <ele>128.9541015625</ele>
        <time>2011-03-27T07:05:39Z</time>
      </trkpt>
      <trkpt lat="48.39654" lon="2.63538">
        <ele>129.91528320312</ele>
        <time>2011-03-27T07:05:45Z</time>
      </trkpt>
      <trkpt lat="48.3964" lon="2.63537">
        <ele>131.35729980469</ele>
        <time>2011-03-27T07:05:52Z</time>
      </trkpt>
      <trkpt lat="48.39625" lon="2.63533">
        <ele>131.837890625</ele>
        <time>2011-03-27T07:05:58Z</time>
      </trkpt>
      <trkpt lat="48.39605" lon="2.63532">
        <ele>133.27990722656</ele>
        <time>2011-03-27T07:06:07Z</time>
      </trkpt>
      <trkpt lat="48.39594" lon="2.63532">
        <ele>134.72192382812</ele>
        <time>2011-03-27T07:06:12Z</time>
      </trkpt>
      <trkpt lat="48.3958" lon="2.63532">
        <ele>135.68310546875</ele>
        <time>2011-03-27T07:06:17Z</time>
      </trkpt>
      <trkpt lat="48.3956" lon="2.63533">
        <ele>135.68310546875</ele>
        <time>2011-03-27T07:06:24Z</time>
      </trkpt>
      <trkpt lat="48.39542" lon="2.63527">
        <ele>136.16394042969</ele>
        <time>2011-03-27T07:06:30Z</time>
      </trkpt>
      <trkpt lat="48.39527" lon="2.63514">
        <ele>136.64465332031</ele>
        <time>2011-03-27T07:06:35Z</time>
      </trkpt>
      <trkpt lat="48.39516" lon="2.63503">
        <ele>136.64465332031</ele>
        <time>2011-03-27T07:06:39Z</time>
      </trkpt>
      <trkpt lat="48.39512" lon="2.63492">
        <ele>136.64465332031</ele>
        <time>2011-03-27T07:06:44Z</time>
      </trkpt>
      <trkpt lat="48.39514" lon="2.63495">
        <ele>135.68310546875</ele>
        <time>2011-03-27T07:08:25Z</time>
      </trkpt>
      <trkpt lat="48.39514" lon="2.63493">
        <ele>136.64465332031</ele>
        <time>2011-03-27T07:08:27Z</time>
      </trkpt>
      <trkpt lat="48.39515" lon="2.63492">
        <ele>136.64465332031</ele>
        <time>2011-03-27T07:08:30Z</time>
      </trkpt>
      <trkpt lat="48.39511" lon="2.6348">
        <ele>136.16394042969</ele>
        <time>2011-03-27T07:08:32Z</time>
      </trkpt>
      <trkpt lat="48.39503" lon="2.6345">
        <ele>136.16394042969</ele>
        <time>2011-03-27T07:08:38Z</time>
      </trkpt>
      <trkpt lat="48.395" lon="2.63437">
        <ele>136.64465332031</ele>
        <time>2011-03-27T07:08:40Z</time>
      </trkpt>
      <trkpt lat="48.39494" lon="2.63417">
        <ele>136.64465332031</ele>
        <time>2011-03-27T07:08:43Z</time>
      </trkpt>
      <trkpt lat="48.39483" lon="2.6337">
        <ele>137.12524414062</ele>
        <time>2011-03-27T07:08:49Z</time>
      </trkpt>
      <trkpt lat="48.39477" lon="2.63345">
        <ele>137.12524414062</ele>
        <time>2011-03-27T07:08:52Z</time>
      </trkpt>
      <trkpt lat="48.39462" lon="2.63286">
        <ele>137.12524414062</ele>
        <time>2011-03-27T07:08:59Z</time>
      </trkpt>
      <trkpt lat="48.39456" lon="2.63258">
        <ele>137.12524414062</ele>
        <time>2011-03-27T07:09:02Z</time>
      </trkpt>
      <trkpt lat="48.39442" lon="2.63195">
        <ele>137.60583496094</ele>
        <time>2011-03-27T07:09:09Z</time>
      </trkpt>
      <trkpt lat="48.39439" lon="2.63186">
        <ele>137.60583496094</ele>
        <time>2011-03-27T07:09:10Z</time>
      </trkpt>
      <trkpt lat="48.3943" lon="2.63148">
        <ele>137.60583496094</ele>
        <time>2011-03-27T07:09:14Z</time>
      </trkpt>
      <trkpt lat="48.39419" lon="2.63134">
        <ele>138.08654785156</ele>
        <time>2011-03-27T07:09:17Z</time>
      </trkpt>
      <trkpt lat="48.39413" lon="2.63134">
        <ele>137.60583496094</ele>
        <time>2011-03-27T07:09:18Z</time>
      </trkpt>
      <trkpt lat="48.39396" lon="2.63135">
        <ele>137.12524414062</ele>
        <time>2011-03-27T07:09:21Z</time>
      </trkpt>
      <trkpt lat="48.39384" lon="2.63134">
        <ele>136.16394042969</ele>
        <time>2011-03-27T07:09:23Z</time>
      </trkpt>
      <trkpt lat="48.3936" lon="2.6314">
        <ele>135.68310546875</ele>
        <time>2011-03-27T07:09:27Z</time>
      </trkpt>
      <trkpt lat="48.39349" lon="2.63146">
        <ele>135.20251464844</ele>
        <time>2011-03-27T07:09:29Z</time>
      </trkpt>
      <trkpt lat="48.39336" lon="2.63172">
        <ele>134.72192382812</ele>
        <time>2011-03-27T07:09:33Z</time>
      </trkpt>
      <trkpt lat="48.39336" lon="2.6318">
        <ele>134.72192382812</ele>
        <time>2011-03-27T07:09:34Z</time>
      </trkpt>
      <trkpt lat="48.39336" lon="2.63199">
        <ele>133.27990722656</ele>
        <time>2011-03-27T07:09:36Z</time>
      </trkpt>
      <trkpt lat="48.39329" lon="2.63259">
        <ele>128.9541015625</ele>
        <time>2011-03-27T07:09:41Z</time>
      </trkpt>
      <trkpt lat="48.39328" lon="2.63282">
        <ele>128.47338867188</ele>
        <time>2011-03-27T07:09:43Z</time>
      </trkpt>
      <trkpt lat="48.39325" lon="2.6333">
        <ele>124.62805175781</ele>
        <time>2011-03-27T07:09:47Z</time>
      </trkpt>
      <trkpt lat="48.39325" lon="2.63357">
        <ele>123.66674804688</ele>
        <time>2011-03-27T07:09:49Z</time>
      </trkpt>
      <trkpt lat="48.39319" lon="2.63412">
        <ele>120.30212402344</ele>
        <time>2011-03-27T07:09:53Z</time>
      </trkpt>
      <trkpt lat="48.39305" lon="2.63496">
        <ele>119.3408203125</ele>
        <time>2011-03-27T07:09:59Z</time>
      </trkpt>
      <trkpt lat="48.39297" lon="2.63532">
        <ele>118.86010742188</ele>
        <time>2011-03-27T07:10:02Z</time>
      </trkpt>
      <trkpt lat="48.39294" lon="2.63557">
        <ele>117.89880371094</ele>
        <time>2011-03-27T07:10:04Z</time>
      </trkpt>
      <trkpt lat="48.39299" lon="2.63595">
        <ele>115.01489257812</ele>
        <time>2011-03-27T07:10:07Z</time>
      </trkpt>
      <trkpt lat="48.39303" lon="2.6362">
        <ele>113.57299804688</ele>
        <time>2011-03-27T07:10:09Z</time>
      </trkpt>
      <trkpt lat="48.39306" lon="2.63633">
        <ele>113.57299804688</ele>
        <time>2011-03-27T07:10:10Z</time>
      </trkpt>
      <trkpt lat="48.39312" lon="2.63658">
        <ele>113.09228515625</ele>
        <time>2011-03-27T07:10:12Z</time>
      </trkpt>
      <trkpt lat="48.39316" lon="2.63682">
        <ele>111.65026855469</ele>
        <time>2011-03-27T07:10:14Z</time>
      </trkpt>
      <trkpt lat="48.3931" lon="2.63725">
        <ele>109.24694824219</ele>
        <time>2011-03-27T07:10:18Z</time>
      </trkpt>
      <trkpt lat="48.39292" lon="2.63744">
        <ele>106.36303710938</ele>
        <time>2011-03-27T07:10:21Z</time>
      </trkpt>
      <trkpt lat="48.39267" lon="2.63789">
        <ele>104.4404296875</ele>
        <time>2011-03-27T07:10:26Z</time>
      </trkpt>
      <trkpt lat="48.39266" lon="2.63828">
        <ele>103.47900390625</ele>
        <time>2011-03-27T07:10:29Z</time>
      </trkpt>
      <trkpt lat="48.39267" lon="2.63842">
        <ele>102.51770019531</ele>
        <time>2011-03-27T07:10:30Z</time>
      </trkpt>
      <trkpt lat="48.39272" lon="2.6389">
        <ele>100.11450195312</ele>
        <time>2011-03-27T07:10:34Z</time>
      </trkpt>
      <trkpt lat="48.39273" lon="2.63942">
        <ele>97.711181640625</ele>
        <time>2011-03-27T07:10:39Z</time>
      </trkpt>
      <trkpt lat="48.39276" lon="2.63983">
        <ele>97.23046875</ele>
        <time>2011-03-27T07:10:43Z</time>
      </trkpt>
      <trkpt lat="48.39271" lon="2.64037">
        <ele>95.788452148438</ele>
        <time>2011-03-27T07:10:48Z</time>
      </trkpt>
      <trkpt lat="48.39267" lon="2.64084">
        <ele>95.307739257812</ele>
        <time>2011-03-27T07:10:52Z</time>
      </trkpt>
      <trkpt lat="48.39267" lon="2.64177">
        <ele>93.385131835938</ele>
        <time>2011-03-27T07:11:00Z</time>
      </trkpt>
      <trkpt lat="48.39269" lon="2.64215">
        <ele>92.423950195312</ele>
        <time>2011-03-27T07:11:04Z</time>
      </trkpt>
      <trkpt lat="48.39265" lon="2.64261">
        <ele>92.904541015625</ele>
        <time>2011-03-27T07:11:09Z</time>
      </trkpt>
      <trkpt lat="48.3926" lon="2.64309">
        <ele>91.943237304688</ele>
        <time>2011-03-27T07:11:14Z</time>
      </trkpt>
      <trkpt lat="48.39252" lon="2.64369">
        <ele>91.943237304688</ele>
        <time>2011-03-27T07:11:20Z</time>
      </trkpt>
      <trkpt lat="48.39248" lon="2.64389">
        <ele>90.501342773438</ele>
        <time>2011-03-27T07:11:22Z</time>
      </trkpt>
      <trkpt lat="48.39239" lon="2.64451">
        <ele>90.501342773438</ele>
        <time>2011-03-27T07:11:29Z</time>
      </trkpt>
      <trkpt lat="48.39236" lon="2.64472">
        <ele>89.539916992188</ele>
        <time>2011-03-27T07:11:33Z</time>
      </trkpt>
      <trkpt lat="48.39233" lon="2.64496">
        <ele>89.539916992188</ele>
        <time>2011-03-27T07:11:37Z</time>
      </trkpt>
      <trkpt lat="48.3923" lon="2.64526">
        <ele>88.578735351562</ele>
        <time>2011-03-27T07:11:41Z</time>
      </trkpt>
      <trkpt lat="48.3923" lon="2.64534">
        <ele>89.059326171875</ele>
        <time>2011-03-27T07:11:42Z</time>
      </trkpt>
      <trkpt lat="48.39225" lon="2.64567">
        <ele>88.098022460938</ele>
        <time>2011-03-27T07:11:46Z</time>
      </trkpt>
      <trkpt lat="48.39215" lon="2.6465">
        <ele>87.136596679688</ele>
        <time>2011-03-27T07:11:55Z</time>
      </trkpt>
      <trkpt lat="48.39209" lon="2.6469">
        <ele>85.694580078125</ele>
        <time>2011-03-27T07:12:00Z</time>
      </trkpt>
      <trkpt lat="48.39209" lon="2.64695">
        <ele>85.694580078125</ele>
        <time>2011-03-27T07:12:03Z</time>
      </trkpt>
      <trkpt lat="48.39209" lon="2.647">
        <ele>85.694580078125</ele>
        <time>2011-03-27T07:12:06Z</time>
      </trkpt>
      <trkpt lat="48.39206" lon="2.64714">
        <ele>85.213989257812</ele>
        <time>2011-03-27T07:12:11Z</time>
      </trkpt>
      <trkpt lat="48.39205" lon="2.64719">
        <ele>85.694580078125</ele>
        <time>2011-03-27T07:12:12Z</time>
      </trkpt>
      <trkpt lat="48.39198" lon="2.6474">
        <ele>85.694580078125</ele>
        <time>2011-03-27T07:12:16Z</time>
      </trkpt>
      <trkpt lat="48.39191" lon="2.64791">
        <ele>85.694580078125</ele>
        <time>2011-03-27T07:12:23Z</time>
      </trkpt>
      <trkpt lat="48.39186" lon="2.64826">
        <ele>85.213989257812</ele>
        <time>2011-03-27T07:12:28Z</time>
      </trkpt>
      <trkpt lat="48.39186" lon="2.64833">
        <ele>84.7333984375</ele>
        <time>2011-03-27T07:12:29Z</time>
      </trkpt>
      <trkpt lat="48.3918" lon="2.64892">
        <ele>85.213989257812</ele>
        <time>2011-03-27T07:12:37Z</time>
      </trkpt>
      <trkpt lat="48.39179" lon="2.64899">
        <ele>85.213989257812</ele>
        <time>2011-03-27T07:12:38Z</time>
      </trkpt>
      <trkpt lat="48.39174" lon="2.6495">
        <ele>84.7333984375</ele>
        <time>2011-03-27T07:12:45Z</time>
      </trkpt>
      <trkpt lat="48.39169" lon="2.65007">
        <ele>84.252685546875</ele>
        <time>2011-03-27T07:12:53Z</time>
      </trkpt>
      <trkpt lat="48.39164" lon="2.65054">
        <ele>83.77197265625</ele>
        <time>2011-03-27T07:13:00Z</time>
      </trkpt>
      <trkpt lat="48.3916" lon="2.65064">
        <ele>84.252685546875</ele>
        <time>2011-03-27T07:13:02Z</time>
      </trkpt>
      <trkpt lat="48.39141" lon="2.65064">
        <ele>85.213989257812</ele>
        <time>2011-03-27T07:13:08Z</time>
      </trkpt>
      <trkpt lat="48.39116" lon="2.65059">
        <ele>85.694580078125</ele>
        <time>2011-03-27T07:13:17Z</time>
      </trkpt>
      <trkpt lat="48.39105" lon="2.65058">
        <ele>87.136596679688</ele>
        <time>2011-03-27T07:13:22Z</time>
      </trkpt>
      <trkpt lat="48.39093" lon="2.65056">
        <ele>88.578735351562</ele>
        <time>2011-03-27T07:13:28Z</time>
      </trkpt>
      <trkpt lat="48.39074" lon="2.65053">
        <ele>90.501342773438</ele>
        <time>2011-03-27T07:13:36Z</time>
      </trkpt>
      <trkpt lat="48.39061" lon="2.65053">
        <ele>91.943237304688</ele>
        <time>2011-03-27T07:13:42Z</time>
      </trkpt>
      <trkpt lat="48.39049" lon="2.6505">
        <ele>92.904541015625</ele>
        <time>2011-03-27T07:13:48Z</time>
      </trkpt>
      <trkpt lat="48.39041" lon="2.65038">
        <ele>94.346557617188</ele>
        <time>2011-03-27T07:13:54Z</time>
      </trkpt>
      <trkpt lat="48.39036" lon="2.65021">
        <ele>93.865844726562</ele>
        <time>2011-03-27T07:14:00Z</time>
      </trkpt>
      <trkpt lat="48.39029" lon="2.64999">
        <ele>94.8271484375</ele>
        <time>2011-03-27T07:14:07Z</time>
      </trkpt>
      <trkpt lat="48.39016" lon="2.64973">
        <ele>95.788452148438</ele>
        <time>2011-03-27T07:14:15Z</time>
      </trkpt>
      <trkpt lat="48.39001" lon="2.64955">
        <ele>98.19189453125</ele>
        <time>2011-03-27T07:14:22Z</time>
      </trkpt>
      <trkpt lat="48.38982" lon="2.64943">
        <ele>99.6337890625</ele>
        <time>2011-03-27T07:14:31Z</time>
      </trkpt>
      <trkpt lat="48.38964" lon="2.64933">
        <ele>101.55639648438</ele>
        <time>2011-03-27T07:14:39Z</time>
      </trkpt>
      <trkpt lat="48.38943" lon="2.64923">
        <ele>100.59509277344</ele>
        <time>2011-03-27T07:14:46Z</time>
      </trkpt>
      <trkpt lat="48.38923" lon="2.64916">
        <ele>99.153076171875</ele>
        <time>2011-03-27T07:14:51Z</time>
      </trkpt>
      <trkpt lat="48.38901" lon="2.64914">
        <ele>95.788452148438</ele>
        <time>2011-03-27T07:14:55Z</time>
      </trkpt>
      <trkpt lat="48.38887" lon="2.64916">
        <ele>95.307739257812</ele>
        <time>2011-03-27T07:14:57Z</time>
      </trkpt>
      <trkpt lat="48.38869" lon="2.64912">
        <ele>93.865844726562</ele>
        <time>2011-03-27T07:15:00Z</time>
      </trkpt>
      <trkpt lat="48.38863" lon="2.64906">
        <ele>93.865844726562</ele>
        <time>2011-03-27T07:15:01Z</time>
      </trkpt>
      <trkpt lat="48.38824" lon="2.64871">
        <ele>93.865844726562</ele>
        <time>2011-03-27T07:15:08Z</time>
      </trkpt>
      <trkpt lat="48.38783" lon="2.64837">
        <ele>93.385131835938</ele>
        <time>2011-03-27T07:15:16Z</time>
      </trkpt>
      <trkpt lat="48.38744" lon="2.64804">
        <ele>93.385131835938</ele>
        <time>2011-03-27T07:15:24Z</time>
      </trkpt>
      <trkpt lat="48.38716" lon="2.64781">
        <ele>93.865844726562</ele>
        <time>2011-03-27T07:15:30Z</time>
      </trkpt>
      <trkpt lat="48.38698" lon="2.64766">
        <ele>94.346557617188</ele>
        <time>2011-03-27T07:15:34Z</time>
      </trkpt>
      <trkpt lat="48.38668" lon="2.64742">
        <ele>94.8271484375</ele>
        <time>2011-03-27T07:15:41Z</time>
      </trkpt>
      <trkpt lat="48.3866" lon="2.6472">
        <ele>96.269287109375</ele>
        <time>2011-03-27T07:15:45Z</time>
      </trkpt>
      <trkpt lat="48.38657" lon="2.64701">
        <ele>96.269287109375</ele>
        <time>2011-03-27T07:15:48Z</time>
      </trkpt>
      <trkpt lat="48.38652" lon="2.64676">
        <ele>96.749877929688</ele>
        <time>2011-03-27T07:15:52Z</time>
      </trkpt>
      <trkpt lat="48.38649" lon="2.64617">
        <ele>98.19189453125</ele>
        <time>2011-03-27T07:16:01Z</time>
      </trkpt>
      <trkpt lat="48.38646" lon="2.64588">
        <ele>98.19189453125</ele>
        <time>2011-03-27T07:16:06Z</time>
      </trkpt>
      <trkpt lat="48.3864" lon="2.6454">
        <ele>99.153076171875</ele>
        <time>2011-03-27T07:16:14Z</time>
      </trkpt>
      <trkpt lat="48.38637" lon="2.64508">
        <ele>99.6337890625</ele>
        <time>2011-03-27T07:16:20Z</time>
      </trkpt>
      <trkpt lat="48.38633" lon="2.64478">
        <ele>100.59509277344</ele>
        <time>2011-03-27T07:16:26Z</time>
      </trkpt>
      <trkpt lat="48.38632" lon="2.64446">
        <ele>100.59509277344</ele>
        <time>2011-03-27T07:16:31Z</time>
      </trkpt>
      <trkpt lat="48.38631" lon="2.64433">
        <ele>101.55639648438</ele>
        <time>2011-03-27T07:16:33Z</time>
      </trkpt>
      <trkpt lat="48.38626" lon="2.64385">
        <ele>102.51770019531</ele>
        <time>2011-03-27T07:16:41Z</time>
      </trkpt>
      <trkpt lat="48.3862" lon="2.64344">
        <ele>103.47900390625</ele>
        <time>2011-03-27T07:16:48Z</time>
      </trkpt>
      <trkpt lat="48.38617" lon="2.64316">
        <ele>103.95971679688</ele>
        <time>2011-03-27T07:16:53Z</time>
      </trkpt>
      <trkpt lat="48.38614" lon="2.64287">
        <ele>104.4404296875</ele>
        <time>2011-03-27T07:16:59Z</time>
      </trkpt>
      <trkpt lat="48.3861" lon="2.64248">
        <ele>105.88244628906</ele>
        <time>2011-03-27T07:17:06Z</time>
      </trkpt>
      <trkpt lat="48.38605" lon="2.64214">
        <ele>105.88244628906</ele>
        <time>2011-03-27T07:17:13Z</time>
      </trkpt>
      <trkpt lat="48.38604" lon="2.64183">
        <ele>105.88244628906</ele>
        <time>2011-03-27T07:17:20Z</time>
      </trkpt>
      <trkpt lat="48.386" lon="2.64155">
        <ele>105.88244628906</ele>
        <time>2011-03-27T07:17:25Z</time>
      </trkpt>
      <trkpt lat="48.38598" lon="2.64123">
        <ele>107.32434082031</ele>
        <time>2011-03-27T07:17:31Z</time>
      </trkpt>
      <trkpt lat="48.38596" lon="2.64093">
        <ele>107.32434082031</ele>
        <time>2011-03-27T07:17:37Z</time>
      </trkpt>
      <trkpt lat="48.38593" lon="2.64066">
        <ele>108.28564453125</ele>
        <time>2011-03-27T07:17:43Z</time>
      </trkpt>
      <trkpt lat="48.38591" lon="2.64047">
        <ele>109.24694824219</ele>
        <time>2011-03-27T07:17:48Z</time>
      </trkpt>
      <trkpt lat="48.38591" lon="2.64025">
        <ele>111.16955566406</ele>
        <time>2011-03-27T07:17:54Z</time>
      </trkpt>
      <trkpt lat="48.38591" lon="2.64005">
        <ele>112.61157226562</ele>
        <time>2011-03-27T07:17:59Z</time>
      </trkpt>
      <trkpt lat="48.38589" lon="2.63976">
        <ele>113.09228515625</ele>
        <time>2011-03-27T07:18:06Z</time>
      </trkpt>
      <trkpt lat="48.38586" lon="2.63951">
        <ele>115.01489257812</ele>
        <time>2011-03-27T07:18:12Z</time>
      </trkpt>
      <trkpt lat="48.38585" lon="2.6393">
        <ele>116.45678710938</ele>
        <time>2011-03-27T07:18:18Z</time>
      </trkpt>
      <trkpt lat="48.38585" lon="2.6391">
        <ele>118.86010742188</ele>
        <time>2011-03-27T07:18:24Z</time>
      </trkpt>
      <trkpt lat="48.38583" lon="2.63887">
        <ele>120.78283691406</ele>
        <time>2011-03-27T07:18:30Z</time>
      </trkpt>
      <trkpt lat="48.38583" lon="2.63868">
        <ele>122.22473144531</ele>
        <time>2011-03-27T07:18:36Z</time>
      </trkpt>
      <trkpt lat="48.38581" lon="2.63844">
        <ele>122.70544433594</ele>
        <time>2011-03-27T07:18:44Z</time>
      </trkpt>
      <trkpt lat="48.3858" lon="2.63826">
        <ele>123.66674804688</ele>
        <time>2011-03-27T07:18:49Z</time>
      </trkpt>
      <trkpt lat="48.3858" lon="2.63801">
        <ele>124.62805175781</ele>
        <time>2011-03-27T07:18:55Z</time>
      </trkpt>
      <trkpt lat="48.38577" lon="2.63775">
        <ele>125.10876464844</ele>
        <time>2011-03-27T07:19:01Z</time>
      </trkpt>
      <trkpt lat="48.38575" lon="2.63741">
        <ele>125.58935546875</ele>
        <time>2011-03-27T07:19:09Z</time>
      </trkpt>
      <trkpt lat="48.38574" lon="2.6371">
        <ele>126.06994628906</ele>
        <time>2011-03-27T07:19:16Z</time>
      </trkpt>
      <trkpt lat="48.38574" lon="2.63683">
        <ele>127.03137207031</ele>
        <time>2011-03-27T07:19:22Z</time>
      </trkpt>
      <trkpt lat="48.38574" lon="2.63659">
        <ele>127.51196289062</ele>
        <time>2011-03-27T07:19:28Z</time>
      </trkpt>
      <trkpt lat="48.38575" lon="2.63627">
        <ele>128.47338867188</ele>
        <time>2011-03-27T07:19:35Z</time>
      </trkpt>
      <trkpt lat="48.38573" lon="2.63594">
        <ele>129.43469238281</ele>
        <time>2011-03-27T07:19:41Z</time>
      </trkpt>
      <trkpt lat="48.38571" lon="2.63564">
        <ele>128.9541015625</ele>
        <time>2011-03-27T07:19:47Z</time>
      </trkpt>
      <trkpt lat="48.38568" lon="2.63526">
        <ele>128.9541015625</ele>
        <time>2011-03-27T07:19:54Z</time>
      </trkpt>
      <trkpt lat="48.38565" lon="2.63497">
        <ele>129.91528320312</ele>
        <time>2011-03-27T07:19:59Z</time>
      </trkpt>
      <trkpt lat="48.38564" lon="2.63459">
        <ele>129.91528320312</ele>
        <time>2011-03-27T07:20:05Z</time>
      </trkpt>
      <trkpt lat="48.38563" lon="2.63447">
        <ele>129.43469238281</ele>
        <time>2011-03-27T07:20:07Z</time>
      </trkpt>
      <trkpt lat="48.38561" lon="2.63387">
        <ele>129.43469238281</ele>
        <time>2011-03-27T07:20:16Z</time>
      </trkpt>
      <trkpt lat="48.38557" lon="2.63341">
        <ele>130.39599609375</ele>
        <time>2011-03-27T07:20:23Z</time>
      </trkpt>
      <trkpt lat="48.38555" lon="2.63294">
        <ele>129.43469238281</ele>
        <time>2011-03-27T07:20:30Z</time>
      </trkpt>
      <trkpt lat="48.38555" lon="2.63286">
        <ele>129.43469238281</ele>
        <time>2011-03-27T07:20:31Z</time>
      </trkpt>
      <trkpt lat="48.38551" lon="2.63246">
        <ele>129.91528320312</ele>
        <time>2011-03-27T07:20:37Z</time>
      </trkpt>
      <trkpt lat="48.38548" lon="2.63211">
        <ele>129.91528320312</ele>
        <time>2011-03-27T07:20:42Z</time>
      </trkpt>
      <trkpt lat="48.38547" lon="2.63176">
        <ele>129.43469238281</ele>
        <time>2011-03-27T07:20:47Z</time>
      </trkpt>
      <trkpt lat="48.38546" lon="2.63163">
        <ele>128.9541015625</ele>
        <time>2011-03-27T07:20:49Z</time>
      </trkpt>
      <trkpt lat="48.38544" lon="2.63131">
        <ele>130.39599609375</ele>
        <time>2011-03-27T07:20:54Z</time>
      </trkpt>
      <trkpt lat="48.38543" lon="2.63111">
        <ele>129.91528320312</ele>
        <time>2011-03-27T07:20:58Z</time>
      </trkpt>
      <trkpt lat="48.38532" lon="2.63092">
        <ele>129.91528320312</ele>
        <time>2011-03-27T07:21:03Z</time>
      </trkpt>
      <trkpt lat="48.38529" lon="2.63082">
        <ele>130.87670898438</ele>
        <time>2011-03-27T07:21:05Z</time>
      </trkpt>
      <trkpt lat="48.38528" lon="2.6307">
        <ele>130.87670898438</ele>
        <time>2011-03-27T07:21:07Z</time>
      </trkpt>
      <trkpt lat="48.3853" lon="2.63049">
        <ele>130.39599609375</ele>
        <time>2011-03-27T07:21:10Z</time>
      </trkpt>
      <trkpt lat="48.38526" lon="2.63022">
        <ele>130.39599609375</ele>
        <time>2011-03-27T07:21:14Z</time>
      </trkpt>
      <trkpt lat="48.38513" lon="2.62986">
        <ele>131.35729980469</ele>
        <time>2011-03-27T07:21:20Z</time>
      </trkpt>
      <trkpt lat="48.38511" lon="2.62979">
        <ele>129.91528320312</ele>
        <time>2011-03-27T07:21:21Z</time>
      </trkpt>
      <trkpt lat="48.38498" lon="2.62941">
        <ele>130.39599609375</ele>
        <time>2011-03-27T07:21:27Z</time>
      </trkpt>
      <trkpt lat="48.3849" lon="2.62919">
        <ele>130.87670898438</ele>
        <time>2011-03-27T07:21:30Z</time>
      </trkpt>
      <trkpt lat="48.38481" lon="2.62893">
        <ele>131.35729980469</ele>
        <time>2011-03-27T07:21:34Z</time>
      </trkpt>
      <trkpt lat="48.38465" lon="2.62848">
        <ele>131.35729980469</ele>
        <time>2011-03-27T07:21:41Z</time>
      </trkpt>
      <trkpt lat="48.38448" lon="2.628">
        <ele>132.31860351562</ele>
        <time>2011-03-27T07:21:48Z</time>
      </trkpt>
      <trkpt lat="48.38443" lon="2.62787">
        <ele>131.837890625</ele>
        <time>2011-03-27T07:21:50Z</time>
      </trkpt>
      <trkpt lat="48.38428" lon="2.62738">
        <ele>132.31860351562</ele>
        <time>2011-03-27T07:21:56Z</time>
      </trkpt>
      <trkpt lat="48.38411" lon="2.6268">
        <ele>131.837890625</ele>
        <time>2011-03-27T07:22:03Z</time>
      </trkpt>
      <trkpt lat="48.38391" lon="2.62625">
        <ele>132.31860351562</ele>
        <time>2011-03-27T07:22:10Z</time>
      </trkpt>
      <trkpt lat="48.3838" lon="2.62595">
        <ele>131.837890625</ele>
        <time>2011-03-27T07:22:14Z</time>
      </trkpt>
      <trkpt lat="48.38361" lon="2.62538">
        <ele>132.31860351562</ele>
        <time>2011-03-27T07:22:21Z</time>
      </trkpt>
      <trkpt lat="48.38353" lon="2.62516">
        <ele>131.35729980469</ele>
        <time>2011-03-27T07:22:24Z</time>
      </trkpt>
      <trkpt lat="48.38343" lon="2.62484">
        <ele>131.837890625</ele>
        <time>2011-03-27T07:22:28Z</time>
      </trkpt>
      <trkpt lat="48.38328" lon="2.6243">
        <ele>131.35729980469</ele>
        <time>2011-03-27T07:22:35Z</time>
      </trkpt>
      <trkpt lat="48.38313" lon="2.6239">
        <ele>131.837890625</ele>
        <time>2011-03-27T07:22:41Z</time>
      </trkpt>
      <trkpt lat="48.38304" lon="2.62361">
        <ele>131.35729980469</ele>
        <time>2011-03-27T07:22:45Z</time>
      </trkpt>
      <trkpt lat="48.3829" lon="2.62313">
        <ele>130.87670898438</ele>
        <time>2011-03-27T07:22:51Z</time>
      </trkpt>
      <trkpt lat="48.38272" lon="2.6226">
        <ele>130.87670898438</ele>
        <time>2011-03-27T07:22:58Z</time>
      </trkpt>
      <trkpt lat="48.38267" lon="2.62245">
        <ele>129.91528320312</ele>
        <time>2011-03-27T07:23:00Z</time>
      </trkpt>
      <trkpt lat="48.38242" lon="2.62172">
        <ele>128.9541015625</ele>
        <time>2011-03-27T07:23:09Z</time>
      </trkpt>
      <trkpt lat="48.38223" lon="2.62116">
        <ele>128.47338867188</ele>
        <time>2011-03-27T07:23:16Z</time>
      </trkpt>
      <trkpt lat="48.38217" lon="2.621">
        <ele>128.9541015625</ele>
        <time>2011-03-27T07:23:18Z</time>
      </trkpt>
      <trkpt lat="48.382" lon="2.62051">
        <ele>127.99255371094</ele>
        <time>2011-03-27T07:23:24Z</time>
      </trkpt>
      <trkpt lat="48.38185" lon="2.62003">
        <ele>127.03137207031</ele>
        <time>2011-03-27T07:23:30Z</time>
      </trkpt>
      <trkpt lat="48.38169" lon="2.61957">
        <ele>127.03137207031</ele>
        <time>2011-03-27T07:23:36Z</time>
      </trkpt>
      <trkpt lat="48.38154" lon="2.61914">
        <ele>127.03137207031</ele>
        <time>2011-03-27T07:23:42Z</time>
      </trkpt>
      <trkpt lat="48.38152" lon="2.61906">
        <ele>127.03137207031</ele>
        <time>2011-03-27T07:23:43Z</time>
      </trkpt>
      <trkpt lat="48.38143" lon="2.61887">
        <ele>127.03137207031</ele>
        <time>2011-03-27T07:23:46Z</time>
      </trkpt>
      <trkpt lat="48.38116" lon="2.61858">
        <ele>127.03137207031</ele>
        <time>2011-03-27T07:23:53Z</time>
      </trkpt>
      <trkpt lat="48.38088" lon="2.6183">
        <ele>127.99255371094</ele>
        <time>2011-03-27T07:24:00Z</time>
      </trkpt>
      <trkpt lat="48.38054" lon="2.61796">
        <ele>127.99255371094</ele>
        <time>2011-03-27T07:24:08Z</time>
      </trkpt>
      <trkpt lat="48.38035" lon="2.61773">
        <ele>127.99255371094</ele>
        <time>2011-03-27T07:24:13Z</time>
      </trkpt>
      <trkpt lat="48.38017" lon="2.61757">
        <ele>127.51196289062</ele>
        <time>2011-03-27T07:24:18Z</time>
      </trkpt>
      <trkpt lat="48.38001" lon="2.61741">
        <ele>128.9541015625</ele>
        <time>2011-03-27T07:24:22Z</time>
      </trkpt>
      <trkpt lat="48.37994" lon="2.61733">
        <ele>127.99255371094</ele>
        <time>2011-03-27T07:24:24Z</time>
      </trkpt>
      <trkpt lat="48.37971" lon="2.61711">
        <ele>129.43469238281</ele>
        <time>2011-03-27T07:24:30Z</time>
      </trkpt>
      <trkpt lat="48.3796" lon="2.61701">
        <ele>128.9541015625</ele>
        <time>2011-03-27T07:24:33Z</time>
      </trkpt>
      <trkpt lat="48.37933" lon="2.61671">
        <ele>129.91528320312</ele>
        <time>2011-03-27T07:24:40Z</time>
      </trkpt>
      <trkpt lat="48.37916" lon="2.61656">
        <ele>129.91528320312</ele>
        <time>2011-03-27T07:24:45Z</time>
      </trkpt>
      <trkpt lat="48.37901" lon="2.61641">
        <ele>129.43469238281</ele>
        <time>2011-03-27T07:24:49Z</time>
      </trkpt>
      <trkpt lat="48.37885" lon="2.6161">
        <ele>129.91528320312</ele>
        <time>2011-03-27T07:24:55Z</time>
      </trkpt>
      <trkpt lat="48.37873" lon="2.61577">
        <ele>129.91528320312</ele>
        <time>2011-03-27T07:25:00Z</time>
      </trkpt>
      <trkpt lat="48.37865" lon="2.61554">
        <ele>129.43469238281</ele>
        <time>2011-03-27T07:25:04Z</time>
      </trkpt>
      <trkpt lat="48.37852" lon="2.6151">
        <ele>129.43469238281</ele>
        <time>2011-03-27T07:25:11Z</time>
      </trkpt>
      <trkpt lat="48.37843" lon="2.61477">
        <ele>129.43469238281</ele>
        <time>2011-03-27T07:25:16Z</time>
      </trkpt>
      <trkpt lat="48.37831" lon="2.6143">
        <ele>129.91528320312</ele>
        <time>2011-03-27T07:25:23Z</time>
      </trkpt>
      <trkpt lat="48.37821" lon="2.61393">
        <ele>129.91528320312</ele>
        <time>2011-03-27T07:25:28Z</time>
      </trkpt>
      <trkpt lat="48.37811" lon="2.61364">
        <ele>129.43469238281</ele>
        <time>2011-03-27T07:25:32Z</time>
      </trkpt>
      <trkpt lat="48.37802" lon="2.61326">
        <ele>129.91528320312</ele>
        <time>2011-03-27T07:25:37Z</time>
      </trkpt>
      <trkpt lat="48.37787" lon="2.61275">
        <ele>129.43469238281</ele>
        <time>2011-03-27T07:25:44Z</time>
      </trkpt>
      <trkpt lat="48.37771" lon="2.61216">
        <ele>129.43469238281</ele>
        <time>2011-03-27T07:25:52Z</time>
      </trkpt>
      <trkpt lat="48.37759" lon="2.61173">
        <ele>128.47338867188</ele>
        <time>2011-03-27T07:25:58Z</time>
      </trkpt>
      <trkpt lat="48.37747" lon="2.61129">
        <ele>128.47338867188</ele>
        <time>2011-03-27T07:26:04Z</time>
      </trkpt>
      <trkpt lat="48.37743" lon="2.61114">
        <ele>128.47338867188</ele>
        <time>2011-03-27T07:26:06Z</time>
      </trkpt>
      <trkpt lat="48.3773" lon="2.61071">
        <ele>128.47338867188</ele>
        <time>2011-03-27T07:26:12Z</time>
      </trkpt>
      <trkpt lat="48.37721" lon="2.61038">
        <ele>127.99255371094</ele>
        <time>2011-03-27T07:26:17Z</time>
      </trkpt>
      <trkpt lat="48.37708" lon="2.60993">
        <ele>127.99255371094</ele>
        <time>2011-03-27T07:26:23Z</time>
      </trkpt>
      <trkpt lat="48.37696" lon="2.6095">
        <ele>128.47338867188</ele>
        <time>2011-03-27T07:26:29Z</time>
      </trkpt>
      <trkpt lat="48.37683" lon="2.60904">
        <ele>127.99255371094</ele>
        <time>2011-03-27T07:26:35Z</time>
      </trkpt>
      <trkpt lat="48.37666" lon="2.60841">
        <ele>127.51196289062</ele>
        <time>2011-03-27T07:26:43Z</time>
      </trkpt>
      <trkpt lat="48.37649" lon="2.60779">
        <ele>126.55065917969</ele>
        <time>2011-03-27T07:26:51Z</time>
      </trkpt>
      <trkpt lat="48.37631" lon="2.60718">
        <ele>126.06994628906</ele>
        <time>2011-03-27T07:26:59Z</time>
      </trkpt>
      <trkpt lat="48.37619" lon="2.60671">
        <ele>126.06994628906</ele>
        <time>2011-03-27T07:27:05Z</time>
      </trkpt>
      <trkpt lat="48.37606" lon="2.60626">
        <ele>125.58935546875</ele>
        <time>2011-03-27T07:27:11Z</time>
      </trkpt>
      <trkpt lat="48.37602" lon="2.60612">
        <ele>125.58935546875</ele>
        <time>2011-03-27T07:27:13Z</time>
      </trkpt>
      <trkpt lat="48.37593" lon="2.60583">
        <ele>125.10876464844</ele>
        <time>2011-03-27T07:27:17Z</time>
      </trkpt>
      <trkpt lat="48.37573" lon="2.60512">
        <ele>125.58935546875</ele>
        <time>2011-03-27T07:27:26Z</time>
      </trkpt>
      <trkpt lat="48.37555" lon="2.60443">
        <ele>125.58935546875</ele>
        <time>2011-03-27T07:27:35Z</time>
      </trkpt>
      <trkpt lat="48.37541" lon="2.60393">
        <ele>125.10876464844</ele>
        <time>2011-03-27T07:27:42Z</time>
      </trkpt>
      <trkpt lat="48.37536" lon="2.60379">
        <ele>124.14733886719</ele>
        <time>2011-03-27T07:27:44Z</time>
      </trkpt>
      <trkpt lat="48.37533" lon="2.60331">
        <ele>124.62805175781</ele>
        <time>2011-03-27T07:27:50Z</time>
      </trkpt>
      <trkpt lat="48.37532" lon="2.60308">
        <ele>125.10876464844</ele>
        <time>2011-03-27T07:27:53Z</time>
      </trkpt>
      <trkpt lat="48.37533" lon="2.60275">
        <ele>124.62805175781</ele>
        <time>2011-03-27T07:27:57Z</time>
      </trkpt>
      <trkpt lat="48.37535" lon="2.60232">
        <ele>125.10876464844</ele>
        <time>2011-03-27T07:28:03Z</time>
      </trkpt>
      <trkpt lat="48.37535" lon="2.6023">
        <ele>125.58935546875</ele>
        <time>2011-03-27T07:28:05Z</time>
      </trkpt>
      <trkpt lat="48.37535" lon="2.60229">
        <ele>126.06994628906</ele>
        <time>2011-03-27T07:28:11Z</time>
      </trkpt>
      <trkpt lat="48.37535" lon="2.60218">
        <ele>126.06994628906</ele>
        <time>2011-03-27T07:28:15Z</time>
      </trkpt>
      <trkpt lat="48.37536" lon="2.60204">
        <ele>127.03137207031</ele>
        <time>2011-03-27T07:28:18Z</time>
      </trkpt>
      <trkpt lat="48.37537" lon="2.60154">
        <ele>126.55065917969</ele>
        <time>2011-03-27T07:28:25Z</time>
      </trkpt>
      <trkpt lat="48.37536" lon="2.60111">
        <ele>126.06994628906</ele>
        <time>2011-03-27T07:28:30Z</time>
      </trkpt>
      <trkpt lat="48.37535" lon="2.60052">
        <ele>127.03137207031</ele>
        <time>2011-03-27T07:28:37Z</time>
      </trkpt>
      <trkpt lat="48.37534" lon="2.59979">
        <ele>126.55065917969</ele>
        <time>2011-03-27T07:28:45Z</time>
      </trkpt>
      <trkpt lat="48.37535" lon="2.59925">
        <ele>127.99255371094</ele>
        <time>2011-03-27T07:28:51Z</time>
      </trkpt>
      <trkpt lat="48.37534" lon="2.59854">
        <ele>129.43469238281</ele>
        <time>2011-03-27T07:29:00Z</time>
      </trkpt>
      <trkpt lat="48.37534" lon="2.59791">
        <ele>130.39599609375</ele>
        <time>2011-03-27T07:29:08Z</time>
      </trkpt>
      <trkpt lat="48.37534" lon="2.59726">
        <ele>130.87670898438</ele>
        <time>2011-03-27T07:29:16Z</time>
      </trkpt>
      <trkpt lat="48.37533" lon="2.59629">
        <ele>130.87670898438</ele>
        <time>2011-03-27T07:29:27Z</time>
      </trkpt>
      <trkpt lat="48.37531" lon="2.59576">
        <ele>130.87670898438</ele>
        <time>2011-03-27T07:29:33Z</time>
      </trkpt>
      <trkpt lat="48.3753" lon="2.59533">
        <ele>131.837890625</ele>
        <time>2011-03-27T07:29:38Z</time>
      </trkpt>
      <trkpt lat="48.37529" lon="2.595">
        <ele>131.837890625</ele>
        <time>2011-03-27T07:29:42Z</time>
      </trkpt>
      <trkpt lat="48.37534" lon="2.59466">
        <ele>131.35729980469</ele>
        <time>2011-03-27T07:29:46Z</time>
      </trkpt>
      <trkpt lat="48.37541" lon="2.59454">
        <ele>131.837890625</ele>
        <time>2011-03-27T07:29:48Z</time>
      </trkpt>
      <trkpt lat="48.37578" lon="2.59422">
        <ele>130.39599609375</ele>
        <time>2011-03-27T07:29:55Z</time>
      </trkpt>
      <trkpt lat="48.3761" lon="2.59398">
        <ele>129.91528320312</ele>
        <time>2011-03-27T07:30:01Z</time>
      </trkpt>
      <trkpt lat="48.37647" lon="2.59371">
        <ele>128.47338867188</ele>
        <time>2011-03-27T07:30:08Z</time>
      </trkpt>
      <trkpt lat="48.37677" lon="2.59348">
        <ele>127.51196289062</ele>
        <time>2011-03-27T07:30:14Z</time>
      </trkpt>
      <trkpt lat="48.37693" lon="2.59336">
        <ele>128.47338867188</ele>
        <time>2011-03-27T07:30:17Z</time>
      </trkpt>
      <trkpt lat="48.37702" lon="2.59328">
        <ele>128.9541015625</ele>
        <time>2011-03-27T07:30:19Z</time>
      </trkpt>
      <trkpt lat="48.37733" lon="2.59303">
        <ele>127.51196289062</ele>
        <time>2011-03-27T07:30:25Z</time>
      </trkpt>
      <trkpt lat="48.37766" lon="2.59279">
        <ele>127.03137207031</ele>
        <time>2011-03-27T07:30:31Z</time>
      </trkpt>
      <trkpt lat="48.37804" lon="2.59249">
        <ele>127.03137207031</ele>
        <time>2011-03-27T07:30:38Z</time>
      </trkpt>
      <trkpt lat="48.37842" lon="2.59219">
        <ele>126.55065917969</ele>
        <time>2011-03-27T07:30:45Z</time>
      </trkpt>
      <trkpt lat="48.3787" lon="2.59196">
        <ele>125.10876464844</ele>
        <time>2011-03-27T07:30:50Z</time>
      </trkpt>
      <trkpt lat="48.3791" lon="2.59164">
        <ele>124.14733886719</ele>
        <time>2011-03-27T07:30:57Z</time>
      </trkpt>
      <trkpt lat="48.37962" lon="2.59125">
        <ele>122.22473144531</ele>
        <time>2011-03-27T07:31:06Z</time>
      </trkpt>
      <trkpt lat="48.37985" lon="2.59108">
        <ele>121.744140625</ele>
        <time>2011-03-27T07:31:10Z</time>
      </trkpt>
      <trkpt lat="48.38003" lon="2.59083">
        <ele>121.26354980469</ele>
        <time>2011-03-27T07:31:14Z</time>
      </trkpt>
      <trkpt lat="48.38006" lon="2.59055">
        <ele>120.78283691406</ele>
        <time>2011-03-27T07:31:17Z</time>
      </trkpt>
      <trkpt lat="48.38011" lon="2.5901">
        <ele>120.78283691406</ele>
        <time>2011-03-27T07:31:22Z</time>
      </trkpt>
      <trkpt lat="48.38019" lon="2.58953">
        <ele>120.78283691406</ele>
        <time>2011-03-27T07:31:29Z</time>
      </trkpt>
      <trkpt lat="48.3802" lon="2.58945">
        <ele>121.26354980469</ele>
        <time>2011-03-27T07:31:30Z</time>
      </trkpt>
      <trkpt lat="48.38021" lon="2.5893">
        <ele>121.26354980469</ele>
        <time>2011-03-27T07:31:32Z</time>
      </trkpt>
      <trkpt lat="48.38023" lon="2.58906">
        <ele>121.26354980469</ele>
        <time>2011-03-27T07:31:35Z</time>
      </trkpt>
      <trkpt lat="48.38028" lon="2.58867">
        <ele>121.744140625</ele>
        <time>2011-03-27T07:31:41Z</time>
      </trkpt>
      <trkpt lat="48.38026" lon="2.58808">
        <ele>121.26354980469</ele>
        <time>2011-03-27T07:31:49Z</time>
      </trkpt>
      <trkpt lat="48.38026" lon="2.58802">
        <ele>121.26354980469</ele>
        <time>2011-03-27T07:31:50Z</time>
      </trkpt>
      <trkpt lat="48.38025" lon="2.58783">
        <ele>121.26354980469</ele>
        <time>2011-03-27T07:31:53Z</time>
      </trkpt>
      <trkpt lat="48.38027" lon="2.58738">
        <ele>121.744140625</ele>
        <time>2011-03-27T07:32:00Z</time>
      </trkpt>
      <trkpt lat="48.38028" lon="2.58703">
        <ele>121.26354980469</ele>
        <time>2011-03-27T07:32:05Z</time>
      </trkpt>
      <trkpt lat="48.38033" lon="2.58663">
        <ele>121.744140625</ele>
        <time>2011-03-27T07:32:11Z</time>
      </trkpt>
      <trkpt lat="48.3804" lon="2.58614">
        <ele>122.22473144531</ele>
        <time>2011-03-27T07:32:18Z</time>
      </trkpt>
      <trkpt lat="48.38049" lon="2.58563">
        <ele>121.744140625</ele>
        <time>2011-03-27T07:32:25Z</time>
      </trkpt>
      <trkpt lat="48.38054" lon="2.58534">
        <ele>121.744140625</ele>
        <time>2011-03-27T07:32:29Z</time>
      </trkpt>
      <trkpt lat="48.3806" lon="2.58492">
        <ele>122.22473144531</ele>
        <time>2011-03-27T07:32:35Z</time>
      </trkpt>
      <trkpt lat="48.38064" lon="2.58458">
        <ele>122.22473144531</ele>
        <time>2011-03-27T07:32:40Z</time>
      </trkpt>
      <trkpt lat="48.38072" lon="2.58407">
        <ele>121.744140625</ele>
        <time>2011-03-27T07:32:47Z</time>
      </trkpt>
      <trkpt lat="48.38084" lon="2.58353">
        <ele>122.22473144531</ele>
        <time>2011-03-27T07:32:54Z</time>
      </trkpt>
      <trkpt lat="48.38096" lon="2.58288">
        <ele>122.22473144531</ele>
        <time>2011-03-27T07:33:02Z</time>
      </trkpt>
      <trkpt lat="48.38099" lon="2.58245">
        <ele>121.744140625</ele>
        <time>2011-03-27T07:33:07Z</time>
      </trkpt>
      <trkpt lat="48.38102" lon="2.58219">
        <ele>122.22473144531</ele>
        <time>2011-03-27T07:33:10Z</time>
      </trkpt>
      <trkpt lat="48.38115" lon="2.5815">
        <ele>121.26354980469</ele>
        <time>2011-03-27T07:33:18Z</time>
      </trkpt>
      <trkpt lat="48.38123" lon="2.58098">
        <ele>121.26354980469</ele>
        <time>2011-03-27T07:33:24Z</time>
      </trkpt>
      <trkpt lat="48.38127" lon="2.58071">
        <ele>120.78283691406</ele>
        <time>2011-03-27T07:33:27Z</time>
      </trkpt>
      <trkpt lat="48.38128" lon="2.58054">
        <ele>121.26354980469</ele>
        <time>2011-03-27T07:33:29Z</time>
      </trkpt>
      <trkpt lat="48.38133" lon="2.5802">
        <ele>120.78283691406</ele>
        <time>2011-03-27T07:33:33Z</time>
      </trkpt>
      <trkpt lat="48.38141" lon="2.57964">
        <ele>120.30212402344</ele>
        <time>2011-03-27T07:33:40Z</time>
      </trkpt>
      <trkpt lat="48.38149" lon="2.5792">
        <ele>120.30212402344</ele>
        <time>2011-03-27T07:33:46Z</time>
      </trkpt>
      <trkpt lat="48.38155" lon="2.57887">
        <ele>120.78283691406</ele>
        <time>2011-03-27T07:33:50Z</time>
      </trkpt>
      <trkpt lat="48.38163" lon="2.57837">
        <ele>119.82141113281</ele>
        <time>2011-03-27T07:33:56Z</time>
      </trkpt>
      <trkpt lat="48.38166" lon="2.57821">
        <ele>119.82141113281</ele>
        <time>2011-03-27T07:33:58Z</time>
      </trkpt>
      <trkpt lat="48.38172" lon="2.57772">
        <ele>119.82141113281</ele>
        <time>2011-03-27T07:34:04Z</time>
      </trkpt>
      <trkpt lat="48.38185" lon="2.57717">
        <ele>119.3408203125</ele>
        <time>2011-03-27T07:34:11Z</time>
      </trkpt>
      <trkpt lat="48.38193" lon="2.57676">
        <ele>119.3408203125</ele>
        <time>2011-03-27T07:34:16Z</time>
      </trkpt>
      <trkpt lat="48.382" lon="2.57642">
        <ele>118.37939453125</ele>
        <time>2011-03-27T07:34:20Z</time>
      </trkpt>
      <trkpt lat="48.38202" lon="2.57605">
        <ele>118.37939453125</ele>
        <time>2011-03-27T07:34:24Z</time>
      </trkpt>
      <trkpt lat="48.38201" lon="2.57584">
        <ele>117.41821289062</ele>
        <time>2011-03-27T07:34:26Z</time>
      </trkpt>
      <trkpt lat="48.38207" lon="2.57527">
        <ele>116.45678710938</ele>
        <time>2011-03-27T07:34:31Z</time>
      </trkpt>
      <trkpt lat="48.38222" lon="2.57474">
        <ele>115.97619628906</ele>
        <time>2011-03-27T07:34:36Z</time>
      </trkpt>
      <trkpt lat="48.38226" lon="2.57422">
        <ele>114.5341796875</ele>
        <time>2011-03-27T07:34:41Z</time>
      </trkpt>
      <trkpt lat="48.38224" lon="2.57381">
        <ele>114.05358886719</ele>
        <time>2011-03-27T07:34:45Z</time>
      </trkpt>
      <trkpt lat="48.38221" lon="2.5733">
        <ele>113.09228515625</ele>
        <time>2011-03-27T07:34:50Z</time>
      </trkpt>
      <trkpt lat="48.38227" lon="2.57288">
        <ele>111.65026855469</ele>
        <time>2011-03-27T07:34:54Z</time>
      </trkpt>
      <trkpt lat="48.38227" lon="2.57249">
        <ele>111.16955566406</ele>
        <time>2011-03-27T07:34:58Z</time>
      </trkpt>
      <trkpt lat="48.38226" lon="2.57241">
        <ele>111.16955566406</ele>
        <time>2011-03-27T07:34:59Z</time>
      </trkpt>
      <trkpt lat="48.38223" lon="2.57226">
        <ele>109.72766113281</ele>
        <time>2011-03-27T07:35:01Z</time>
      </trkpt>
      <trkpt lat="48.38224" lon="2.57182">
        <ele>107.32434082031</ele>
        <time>2011-03-27T07:35:06Z</time>
      </trkpt>
      <trkpt lat="48.38225" lon="2.57143">
        <ele>107.32434082031</ele>
        <time>2011-03-27T07:35:10Z</time>
      </trkpt>
      <trkpt lat="48.38232" lon="2.57092">
        <ele>106.84362792969</ele>
        <time>2011-03-27T07:35:16Z</time>
      </trkpt>
      <trkpt lat="48.38246" lon="2.57064">
        <ele>105.88244628906</ele>
        <time>2011-03-27T07:35:20Z</time>
      </trkpt>
      <trkpt lat="48.38253" lon="2.57051">
        <ele>105.88244628906</ele>
        <time>2011-03-27T07:35:22Z</time>
      </trkpt>
      <trkpt lat="48.38261" lon="2.57028">
        <ele>104.92102050781</ele>
        <time>2011-03-27T07:35:25Z</time>
      </trkpt>
      <trkpt lat="48.38265" lon="2.56991">
        <ele>104.4404296875</ele>
        <time>2011-03-27T07:35:29Z</time>
      </trkpt>
      <trkpt lat="48.38258" lon="2.56955">
        <ele>103.95971679688</ele>
        <time>2011-03-27T07:35:33Z</time>
      </trkpt>
      <trkpt lat="48.38256" lon="2.56938">
        <ele>103.95971679688</ele>
        <time>2011-03-27T07:35:35Z</time>
      </trkpt>
      <trkpt lat="48.38261" lon="2.56908">
        <ele>102.99829101562</ele>
        <time>2011-03-27T07:35:39Z</time>
      </trkpt>
      <trkpt lat="48.38268" lon="2.5688">
        <ele>101.07568359375</ele>
        <time>2011-03-27T07:35:42Z</time>
      </trkpt>
      <trkpt lat="48.38271" lon="2.56859">
        <ele>100.59509277344</ele>
        <time>2011-03-27T07:35:44Z</time>
      </trkpt>
      <trkpt lat="48.38283" lon="2.56822">
        <ele>98.19189453125</ele>
        <time>2011-03-27T07:35:48Z</time>
      </trkpt>
      <trkpt lat="48.38302" lon="2.56786">
        <ele>98.19189453125</ele>
        <time>2011-03-27T07:35:53Z</time>
      </trkpt>
      <trkpt lat="48.3832" lon="2.56765">
        <ele>97.711181640625</ele>
        <time>2011-03-27T07:35:57Z</time>
      </trkpt>
      <trkpt lat="48.38328" lon="2.56753">
        <ele>97.711181640625</ele>
        <time>2011-03-27T07:35:59Z</time>
      </trkpt>
      <trkpt lat="48.38334" lon="2.56742">
        <ele>95.788452148438</ele>
        <time>2011-03-27T07:36:01Z</time>
      </trkpt>
      <trkpt lat="48.38357" lon="2.56717">
        <ele>94.346557617188</ele>
        <time>2011-03-27T07:36:06Z</time>
      </trkpt>
      <trkpt lat="48.38377" lon="2.56693">
        <ele>91.943237304688</ele>
        <time>2011-03-27T07:36:10Z</time>
      </trkpt>
      <trkpt lat="48.38389" lon="2.56667">
        <ele>90.501342773438</ele>
        <time>2011-03-27T07:36:14Z</time>
      </trkpt>
      <trkpt lat="48.38393" lon="2.56653">
        <ele>90.501342773438</ele>
        <time>2011-03-27T07:36:16Z</time>
      </trkpt>
      <trkpt lat="48.38403" lon="2.56631">
        <ele>89.539916992188</ele>
        <time>2011-03-27T07:36:19Z</time>
      </trkpt>
      <trkpt lat="48.38417" lon="2.56614">
        <ele>89.059326171875</ele>
        <time>2011-03-27T07:36:22Z</time>
      </trkpt>
      <trkpt lat="48.38435" lon="2.56588">
        <ele>88.098022460938</ele>
        <time>2011-03-27T07:36:26Z</time>
      </trkpt>
      <trkpt lat="48.38462" lon="2.56529">
        <ele>87.6171875</ele>
        <time>2011-03-27T07:36:33Z</time>
      </trkpt>
      <trkpt lat="48.38469" lon="2.56512">
        <ele>86.656005859375</ele>
        <time>2011-03-27T07:36:35Z</time>
      </trkpt>
      <trkpt lat="48.38478" lon="2.56498">
        <ele>86.656005859375</ele>
        <time>2011-03-27T07:36:37Z</time>
      </trkpt>
      <trkpt lat="48.38483" lon="2.56484">
        <ele>85.694580078125</ele>
        <time>2011-03-27T07:36:39Z</time>
      </trkpt>
      <trkpt lat="48.38502" lon="2.56458">
        <ele>84.252685546875</ele>
        <time>2011-03-27T07:36:44Z</time>
      </trkpt>
      <trkpt lat="48.38519" lon="2.56451">
        <ele>82.330078125</ele>
        <time>2011-03-27T07:36:48Z</time>
      </trkpt>
      <trkpt lat="48.38535" lon="2.56451">
        <ele>81.368774414062</ele>
        <time>2011-03-27T07:36:51Z</time>
      </trkpt>
      <trkpt lat="48.38546" lon="2.56449">
        <ele>81.368774414062</ele>
        <time>2011-03-27T07:36:53Z</time>
      </trkpt>
      <trkpt lat="48.38585" lon="2.56434">
        <ele>80.407470703125</ele>
        <time>2011-03-27T07:36:59Z</time>
      </trkpt>
      <trkpt lat="48.38621" lon="2.56415">
        <ele>78.484741210938</ele>
        <time>2011-03-27T07:37:05Z</time>
      </trkpt>
      <trkpt lat="48.38626" lon="2.56411">
        <ele>78.484741210938</ele>
        <time>2011-03-27T07:37:06Z</time>
      </trkpt>
      <trkpt lat="48.38638" lon="2.56401">
        <ele>79.446044921875</ele>
        <time>2011-03-27T07:37:08Z</time>
      </trkpt>
      <trkpt lat="48.38676" lon="2.5635">
        <ele>79.446044921875</ele>
        <time>2011-03-27T07:37:16Z</time>
      </trkpt>
      <trkpt lat="48.38691" lon="2.56343">
        <ele>78.965454101562</ele>
        <time>2011-03-27T07:37:19Z</time>
      </trkpt>
      <trkpt lat="48.3871" lon="2.56323">
        <ele>78.484741210938</ele>
        <time>2011-03-27T07:37:23Z</time>
      </trkpt>
      <trkpt lat="48.38733" lon="2.56279">
        <ele>78.965454101562</ele>
        <time>2011-03-27T07:37:29Z</time>
      </trkpt>
      <trkpt lat="48.38747" lon="2.56249">
        <ele>78.484741210938</ele>
        <time>2011-03-27T07:37:33Z</time>
      </trkpt>
      <trkpt lat="48.38769" lon="2.56225">
        <ele>78.484741210938</ele>
        <time>2011-03-27T07:37:38Z</time>
      </trkpt>
      <trkpt lat="48.38774" lon="2.56225">
        <ele>78.004028320312</ele>
        <time>2011-03-27T07:37:39Z</time>
      </trkpt>
      <trkpt lat="48.38791" lon="2.56224">
        <ele>77.5234375</ele>
        <time>2011-03-27T07:37:42Z</time>
      </trkpt>
      <trkpt lat="48.38816" lon="2.56238">
        <ele>78.004028320312</ele>
        <time>2011-03-27T07:37:48Z</time>
      </trkpt>
      <trkpt lat="48.38826" lon="2.56255">
        <ele>78.004028320312</ele>
        <time>2011-03-27T07:37:51Z</time>
      </trkpt>
      <trkpt lat="48.38839" lon="2.56278">
        <ele>78.004028320312</ele>
        <time>2011-03-27T07:37:55Z</time>
      </trkpt>
      <trkpt lat="48.38861" lon="2.56313">
        <ele>77.5234375</ele>
        <time>2011-03-27T07:38:01Z</time>
      </trkpt>
      <trkpt lat="48.38868" lon="2.56326">
        <ele>78.004028320312</ele>
        <time>2011-03-27T07:38:03Z</time>
      </trkpt>
      <trkpt lat="48.38876" lon="2.56339">
        <ele>78.004028320312</ele>
        <time>2011-03-27T07:38:05Z</time>
      </trkpt>
      <trkpt lat="48.38896" lon="2.56391">
        <ele>78.484741210938</ele>
        <time>2011-03-27T07:38:13Z</time>
      </trkpt>
      <trkpt lat="48.38902" lon="2.56417">
        <ele>78.484741210938</ele>
        <time>2011-03-27T07:38:17Z</time>
      </trkpt>
      <trkpt lat="48.38903" lon="2.56454">
        <ele>78.965454101562</ele>
        <time>2011-03-27T07:38:23Z</time>
      </trkpt>
      <trkpt lat="48.38909" lon="2.56482">
        <ele>78.965454101562</ele>
        <time>2011-03-27T07:38:28Z</time>
      </trkpt>
      <trkpt lat="48.38915" lon="2.56516">
        <ele>79.446044921875</ele>
        <time>2011-03-27T07:38:34Z</time>
      </trkpt>
      <trkpt lat="48.38924" lon="2.56548">
        <ele>79.446044921875</ele>
        <time>2011-03-27T07:38:40Z</time>
      </trkpt>
      <trkpt lat="48.38931" lon="2.56582">
        <ele>80.407470703125</ele>
        <time>2011-03-27T07:38:46Z</time>
      </trkpt>
      <trkpt lat="48.38938" lon="2.5661">
        <ele>79.926635742188</ele>
        <time>2011-03-27T07:38:51Z</time>
      </trkpt>
      <trkpt lat="48.38953" lon="2.56626">
        <ele>81.368774414062</ele>
        <time>2011-03-27T07:38:56Z</time>
      </trkpt>
      <trkpt lat="48.38974" lon="2.56641">
        <ele>82.810791015625</ele>
        <time>2011-03-27T07:39:02Z</time>
      </trkpt>
      <trkpt lat="48.3899" lon="2.56658">
        <ele>82.810791015625</ele>
        <time>2011-03-27T07:39:07Z</time>
      </trkpt>
      <trkpt lat="48.39" lon="2.56671">
        <ele>83.77197265625</ele>
        <time>2011-03-27T07:39:11Z</time>
      </trkpt>
      <trkpt lat="48.39013" lon="2.56696">
        <ele>84.252685546875</ele>
        <time>2011-03-27T07:39:16Z</time>
      </trkpt>
      <trkpt lat="48.39023" lon="2.56718">
        <ele>84.252685546875</ele>
        <time>2011-03-27T07:39:21Z</time>
      </trkpt>
      <trkpt lat="48.39029" lon="2.56735">
        <ele>84.252685546875</ele>
        <time>2011-03-27T07:39:25Z</time>
      </trkpt>
      <trkpt lat="48.39036" lon="2.56764">
        <ele>85.213989257812</ele>
        <time>2011-03-27T07:39:32Z</time>
      </trkpt>
      <trkpt lat="48.39039" lon="2.56783">
        <ele>85.694580078125</ele>
        <time>2011-03-27T07:39:37Z</time>
      </trkpt>
      <trkpt lat="48.39037" lon="2.56797">
        <ele>86.17529296875</ele>
        <time>2011-03-27T07:39:41Z</time>
      </trkpt>
      <trkpt lat="48.39032" lon="2.56823">
        <ele>86.17529296875</ele>
        <time>2011-03-27T07:39:48Z</time>
      </trkpt>
      <trkpt lat="48.39029" lon="2.56846">
        <ele>86.656005859375</ele>
        <time>2011-03-27T07:39:54Z</time>
      </trkpt>
      <trkpt lat="48.39024" lon="2.56873">
        <ele>87.136596679688</ele>
        <time>2011-03-27T07:40:00Z</time>
      </trkpt>
      <trkpt lat="48.39019" lon="2.56897">
        <ele>87.136596679688</ele>
        <time>2011-03-27T07:40:06Z</time>
      </trkpt>
      <trkpt lat="48.39015" lon="2.56923">
        <ele>87.6171875</ele>
        <time>2011-03-27T07:40:12Z</time>
      </trkpt>
      <trkpt lat="48.3901" lon="2.56949">
        <ele>88.578735351562</ele>
        <time>2011-03-27T07:40:18Z</time>
      </trkpt>
      <trkpt lat="48.39005" lon="2.56972">
        <ele>89.539916992188</ele>
        <time>2011-03-27T07:40:23Z</time>
      </trkpt>
      <trkpt lat="48.38999" lon="2.56997">
        <ele>90.501342773438</ele>
        <time>2011-03-27T07:40:28Z</time>
      </trkpt>
      <trkpt lat="48.38993" lon="2.57023">
        <ele>90.98193359375</ele>
        <time>2011-03-27T07:40:32Z</time>
      </trkpt>
      <trkpt lat="48.38981" lon="2.57065">
        <ele>92.904541015625</ele>
        <time>2011-03-27T07:40:40Z</time>
      </trkpt>
      <trkpt lat="48.38972" lon="2.57098">
        <ele>93.385131835938</ele>
        <time>2011-03-27T07:40:46Z</time>
      </trkpt>
      <trkpt lat="48.3896" lon="2.57127">
        <ele>95.307739257812</ele>
        <time>2011-03-27T07:40:51Z</time>
      </trkpt>
      <trkpt lat="48.3895" lon="2.57154">
        <ele>96.269287109375</ele>
        <time>2011-03-27T07:40:56Z</time>
      </trkpt>
      <trkpt lat="48.38939" lon="2.57183">
        <ele>96.269287109375</ele>
        <time>2011-03-27T07:41:01Z</time>
      </trkpt>
      <trkpt lat="48.38932" lon="2.5721">
        <ele>97.23046875</ele>
        <time>2011-03-27T07:41:06Z</time>
      </trkpt>
      <trkpt lat="48.38926" lon="2.57239">
        <ele>97.711181640625</ele>
        <time>2011-03-27T07:41:11Z</time>
      </trkpt>
      <trkpt lat="48.38922" lon="2.57265">
        <ele>99.153076171875</ele>
        <time>2011-03-27T07:41:16Z</time>
      </trkpt>
      <trkpt lat="48.3892" lon="2.57282">
        <ele>99.153076171875</ele>
        <time>2011-03-27T07:41:20Z</time>
      </trkpt>
      <trkpt lat="48.38923" lon="2.57308">
        <ele>100.11450195312</ele>
        <time>2011-03-27T07:41:26Z</time>
      </trkpt>
      <trkpt lat="48.38924" lon="2.57326">
        <ele>100.11450195312</ele>
        <time>2011-03-27T07:41:31Z</time>
      </trkpt>
      <trkpt lat="48.38927" lon="2.57356">
        <ele>102.51770019531</ele>
        <time>2011-03-27T07:41:37Z</time>
      </trkpt>
      <trkpt lat="48.38931" lon="2.57377">
        <ele>103.95971679688</ele>
        <time>2011-03-27T07:41:42Z</time>
      </trkpt>
      <trkpt lat="48.38936" lon="2.57402">
        <ele>104.4404296875</ele>
        <time>2011-03-27T07:41:47Z</time>
      </trkpt>
      <trkpt lat="48.38945" lon="2.57427">
        <ele>104.4404296875</ele>
        <time>2011-03-27T07:41:53Z</time>
      </trkpt>
      <trkpt lat="48.38955" lon="2.57453">
        <ele>105.40173339844</ele>
        <time>2011-03-27T07:42:00Z</time>
      </trkpt>
      <trkpt lat="48.38966" lon="2.57471">
        <ele>106.36303710938</ele>
        <time>2011-03-27T07:42:06Z</time>
      </trkpt>
      <trkpt lat="48.38976" lon="2.5749">
        <ele>107.80505371094</ele>
        <time>2011-03-27T07:42:12Z</time>
      </trkpt>
      <trkpt lat="48.38986" lon="2.57516">
        <ele>109.24694824219</ele>
        <time>2011-03-27T07:42:19Z</time>
      </trkpt>
      <trkpt lat="48.38991" lon="2.57538">
        <ele>110.20825195312</ele>
        <time>2011-03-27T07:42:25Z</time>
      </trkpt>
      <trkpt lat="48.38992" lon="2.57553">
        <ele>111.65026855469</ele>
        <time>2011-03-27T07:42:29Z</time>
      </trkpt>
      <trkpt lat="48.38991" lon="2.57576">
        <ele>113.09228515625</ele>
        <time>2011-03-27T07:42:35Z</time>
      </trkpt>
      <trkpt lat="48.38987" lon="2.57591">
        <ele>113.57299804688</ele>
        <time>2011-03-27T07:42:40Z</time>
      </trkpt>
      <trkpt lat="48.38983" lon="2.57603">
        <ele>114.5341796875</ele>
        <time>2011-03-27T07:42:45Z</time>
      </trkpt>
      <trkpt lat="48.38976" lon="2.57616">
        <ele>115.97619628906</ele>
        <time>2011-03-27T07:42:51Z</time>
      </trkpt>
      <trkpt lat="48.3897" lon="2.57631">
        <ele>116.9375</ele>
        <time>2011-03-27T07:42:57Z</time>
      </trkpt>
      <trkpt lat="48.38967" lon="2.57649">
        <ele>118.86010742188</ele>
        <time>2011-03-27T07:43:03Z</time>
      </trkpt>
      <trkpt lat="48.38963" lon="2.57668">
        <ele>119.82141113281</ele>
        <time>2011-03-27T07:43:09Z</time>
      </trkpt>
      <trkpt lat="48.38961" lon="2.57674">
        <ele>120.78283691406</ele>
        <time>2011-03-27T07:43:11Z</time>
      </trkpt>
      <trkpt lat="48.38957" lon="2.57689">
        <ele>121.744140625</ele>
        <time>2011-03-27T07:43:16Z</time>
      </trkpt>
      <trkpt lat="48.38952" lon="2.57707">
        <ele>122.70544433594</ele>
        <time>2011-03-27T07:43:21Z</time>
      </trkpt>
      <trkpt lat="48.38951" lon="2.5771">
        <ele>122.70544433594</ele>
        <time>2011-03-27T07:43:22Z</time>
      </trkpt>
      <trkpt lat="48.38943" lon="2.57736">
        <ele>122.70544433594</ele>
        <time>2011-03-27T07:43:29Z</time>
      </trkpt>
      <trkpt lat="48.38936" lon="2.57757">
        <ele>123.18615722656</ele>
        <time>2011-03-27T07:43:35Z</time>
      </trkpt>
      <trkpt lat="48.38927" lon="2.57783">
        <ele>123.18615722656</ele>
        <time>2011-03-27T07:43:41Z</time>
      </trkpt>
      <trkpt lat="48.38925" lon="2.57812">
        <ele>123.66674804688</ele>
        <time>2011-03-27T07:43:46Z</time>
      </trkpt>
      <trkpt lat="48.38916" lon="2.57836">
        <ele>123.18615722656</ele>
        <time>2011-03-27T07:43:51Z</time>
      </trkpt>
      <trkpt lat="48.38907" lon="2.57855">
        <ele>123.18615722656</ele>
        <time>2011-03-27T07:43:55Z</time>
      </trkpt>
      <trkpt lat="48.38895" lon="2.57892">
        <ele>122.70544433594</ele>
        <time>2011-03-27T07:44:02Z</time>
      </trkpt>
      <trkpt lat="48.38884" lon="2.57897">
        <ele>123.18615722656</ele>
        <time>2011-03-27T07:44:06Z</time>
      </trkpt>
      <trkpt lat="48.38868" lon="2.5789">
        <ele>123.18615722656</ele>
        <time>2011-03-27T07:44:12Z</time>
      </trkpt>
      <trkpt lat="48.38846" lon="2.57875">
        <ele>123.18615722656</ele>
        <time>2011-03-27T07:44:19Z</time>
      </trkpt>
      <trkpt lat="48.38821" lon="2.5786">
        <ele>122.70544433594</ele>
        <time>2011-03-27T07:44:25Z</time>
      </trkpt>
      <trkpt lat="48.38808" lon="2.5785">
        <ele>122.22473144531</ele>
        <time>2011-03-27T07:44:28Z</time>
      </trkpt>
      <trkpt lat="48.38782" lon="2.57823">
        <ele>121.744140625</ele>
        <time>2011-03-27T07:44:34Z</time>
      </trkpt>
      <trkpt lat="48.38758" lon="2.57797">
        <ele>119.82141113281</ele>
        <time>2011-03-27T07:44:39Z</time>
      </trkpt>
      <trkpt lat="48.3875" lon="2.57773">
        <ele>117.89880371094</ele>
        <time>2011-03-27T07:44:42Z</time>
      </trkpt>
      <trkpt lat="48.38745" lon="2.57766">
        <ele>115.97619628906</ele>
        <time>2011-03-27T07:44:43Z</time>
      </trkpt>
      <trkpt lat="48.38728" lon="2.57743">
        <ele>113.57299804688</ele>
        <time>2011-03-27T07:44:46Z</time>
      </trkpt>
      <trkpt lat="48.38707" lon="2.57726">
        <ele>111.16955566406</ele>
        <time>2011-03-27T07:44:49Z</time>
      </trkpt>
      <trkpt lat="48.3868" lon="2.57724">
        <ele>106.84362792969</ele>
        <time>2011-03-27T07:44:52Z</time>
      </trkpt>
      <trkpt lat="48.38658" lon="2.57708">
        <ele>102.99829101562</ele>
        <time>2011-03-27T07:44:55Z</time>
      </trkpt>
      <trkpt lat="48.38653" lon="2.57698">
        <ele>102.51770019531</ele>
        <time>2011-03-27T07:44:56Z</time>
      </trkpt>
      <trkpt lat="48.38644" lon="2.57665">
        <ele>101.55639648438</ele>
        <time>2011-03-27T07:44:59Z</time>
      </trkpt>
      <trkpt lat="48.38643" lon="2.57643">
        <ele>100.11450195312</ele>
        <time>2011-03-27T07:45:01Z</time>
      </trkpt>
      <trkpt lat="48.38647" lon="2.5757">
        <ele>98.19189453125</ele>
        <time>2011-03-27T07:45:07Z</time>
      </trkpt>
      <trkpt lat="48.38646" lon="2.57508">
        <ele>96.269287109375</ele>
        <time>2011-03-27T07:45:12Z</time>
      </trkpt>
      <trkpt lat="48.38649" lon="2.57459">
        <ele>94.8271484375</ele>
        <time>2011-03-27T07:45:16Z</time>
      </trkpt>
      <trkpt lat="48.38651" lon="2.57447">
        <ele>94.8271484375</ele>
        <time>2011-03-27T07:45:17Z</time>
      </trkpt>
      <trkpt lat="48.38658" lon="2.57375">
        <ele>93.385131835938</ele>
        <time>2011-03-27T07:45:23Z</time>
      </trkpt>
      <trkpt lat="48.38659" lon="2.57351">
        <ele>91.943237304688</ele>
        <time>2011-03-27T07:45:25Z</time>
      </trkpt>
      <trkpt lat="48.38656" lon="2.57305">
        <ele>91.943237304688</ele>
        <time>2011-03-27T07:45:29Z</time>
      </trkpt>
      <trkpt lat="48.38655" lon="2.57282">
        <ele>90.020629882812</ele>
        <time>2011-03-27T07:45:31Z</time>
      </trkpt>
      <trkpt lat="48.38641" lon="2.57195">
        <ele>88.098022460938</ele>
        <time>2011-03-27T07:45:39Z</time>
      </trkpt>
      <trkpt lat="48.38626" lon="2.5715">
        <ele>86.656005859375</ele>
        <time>2011-03-27T07:45:44Z</time>
      </trkpt>
      <trkpt lat="48.38612" lon="2.57142">
        <ele>85.213989257812</ele>
        <time>2011-03-27T07:45:47Z</time>
      </trkpt>
      <trkpt lat="48.38575" lon="2.57123">
        <ele>84.252685546875</ele>
        <time>2011-03-27T07:45:53Z</time>
      </trkpt>
      <trkpt lat="48.38563" lon="2.57119">
        <ele>84.252685546875</ele>
        <time>2011-03-27T07:45:55Z</time>
      </trkpt>
      <trkpt lat="48.38549" lon="2.57092">
        <ele>83.291381835938</ele>
        <time>2011-03-27T07:45:59Z</time>
      </trkpt>
      <trkpt lat="48.38551" lon="2.57081">
        <ele>82.810791015625</ele>
        <time>2011-03-27T07:46:00Z</time>
      </trkpt>
      <trkpt lat="48.3856" lon="2.5703">
        <ele>82.810791015625</ele>
        <time>2011-03-27T07:46:05Z</time>
      </trkpt>
      <trkpt lat="48.38562" lon="2.57001">
        <ele>81.849365234375</ele>
        <time>2011-03-27T07:46:09Z</time>
      </trkpt>
      <trkpt lat="48.38554" lon="2.57">
        <ele>81.849365234375</ele>
        <time>2011-03-27T07:46:12Z</time>
      </trkpt>
      <trkpt lat="48.38548" lon="2.5701">
        <ele>81.849365234375</ele>
        <time>2011-03-27T07:46:16Z</time>
      </trkpt>
      <trkpt lat="48.38543" lon="2.57029">
        <ele>81.849365234375</ele>
        <time>2011-03-27T07:46:22Z</time>
      </trkpt>
      <trkpt lat="48.38539" lon="2.57042">
        <ele>82.330078125</ele>
        <time>2011-03-27T07:46:28Z</time>
      </trkpt>
      <trkpt lat="48.38536" lon="2.57048">
        <ele>82.330078125</ele>
        <time>2011-03-27T07:46:31Z</time>
      </trkpt>
      <trkpt lat="48.38535" lon="2.57063">
        <ele>82.810791015625</ele>
        <time>2011-03-27T07:46:37Z</time>
      </trkpt>
      <trkpt lat="48.38533" lon="2.57069">
        <ele>82.330078125</ele>
        <time>2011-03-27T07:46:42Z</time>
      </trkpt>
      <trkpt lat="48.38533" lon="2.57071">
        <ele>82.330078125</ele>
        <time>2011-03-27T07:46:44Z</time>
      </trkpt>
      <trkpt lat="48.38527" lon="2.57085">
        <ele>82.330078125</ele>
        <time>2011-03-27T07:46:49Z</time>
      </trkpt>
      <trkpt lat="48.38527" lon="2.57106">
        <ele>82.810791015625</ele>
        <time>2011-03-27T07:46:54Z</time>
      </trkpt>
      <trkpt lat="48.38524" lon="2.57132">
        <ele>82.810791015625</ele>
        <time>2011-03-27T07:46:59Z</time>
      </trkpt>
      <trkpt lat="48.38522" lon="2.57157">
        <ele>82.810791015625</ele>
        <time>2011-03-27T07:47:03Z</time>
      </trkpt>
      <trkpt lat="48.38524" lon="2.57186">
        <ele>83.291381835938</ele>
        <time>2011-03-27T07:47:07Z</time>
      </trkpt>
      <trkpt lat="48.38528" lon="2.57205">
        <ele>82.810791015625</ele>
        <time>2011-03-27T07:47:10Z</time>
      </trkpt>
      <trkpt lat="48.38535" lon="2.57229">
        <ele>83.291381835938</ele>
        <time>2011-03-27T07:47:14Z</time>
      </trkpt>
      <trkpt lat="48.3854" lon="2.57264">
        <ele>83.291381835938</ele>
        <time>2011-03-27T07:47:20Z</time>
      </trkpt>
      <trkpt lat="48.38543" lon="2.57298">
        <ele>83.291381835938</ele>
        <time>2011-03-27T07:47:26Z</time>
      </trkpt>
      <trkpt lat="48.38541" lon="2.57343">
        <ele>83.291381835938</ele>
        <time>2011-03-27T07:47:33Z</time>
      </trkpt>
      <trkpt lat="48.38533" lon="2.57378">
        <ele>83.77197265625</ele>
        <time>2011-03-27T07:47:39Z</time>
      </trkpt>
      <trkpt lat="48.38524" lon="2.57403">
        <ele>83.291381835938</ele>
        <time>2011-03-27T07:47:44Z</time>
      </trkpt>
      <trkpt lat="48.3852" lon="2.57413">
        <ele>83.77197265625</ele>
        <time>2011-03-27T07:47:46Z</time>
      </trkpt>
      <trkpt lat="48.38503" lon="2.5745">
        <ele>83.77197265625</ele>
        <time>2011-03-27T07:47:53Z</time>
      </trkpt>
      <trkpt lat="48.3849" lon="2.57484">
        <ele>84.252685546875</ele>
        <time>2011-03-27T07:47:59Z</time>
      </trkpt>
      <trkpt lat="48.38481" lon="2.57519">
        <ele>84.7333984375</ele>
        <time>2011-03-27T07:48:05Z</time>
      </trkpt>
      <trkpt lat="48.38479" lon="2.57545">
        <ele>85.694580078125</ele>
        <time>2011-03-27T07:48:10Z</time>
      </trkpt>
      <trkpt lat="48.3848" lon="2.57563">
        <ele>86.656005859375</ele>
        <time>2011-03-27T07:48:14Z</time>
      </trkpt>
      <trkpt lat="48.38481" lon="2.57588">
        <ele>86.656005859375</ele>
        <time>2011-03-27T07:48:19Z</time>
      </trkpt>
      <trkpt lat="48.38479" lon="2.57621">
        <ele>87.136596679688</ele>
        <time>2011-03-27T07:48:25Z</time>
      </trkpt>
      <trkpt lat="48.38476" lon="2.57648">
        <ele>88.098022460938</ele>
        <time>2011-03-27T07:48:30Z</time>
      </trkpt>
      <trkpt lat="48.38474" lon="2.57679">
        <ele>88.098022460938</ele>
        <time>2011-03-27T07:48:35Z</time>
      </trkpt>
      <trkpt lat="48.38471" lon="2.57715">
        <ele>88.578735351562</ele>
        <time>2011-03-27T07:48:41Z</time>
      </trkpt>
      <trkpt lat="48.38467" lon="2.57757">
        <ele>87.6171875</ele>
        <time>2011-03-27T07:48:47Z</time>
      </trkpt>
      <trkpt lat="48.38461" lon="2.57798">
        <ele>88.098022460938</ele>
        <time>2011-03-27T07:48:54Z</time>
      </trkpt>
      <trkpt lat="48.38453" lon="2.57829">
        <ele>89.539916992188</ele>
        <time>2011-03-27T07:49:00Z</time>
      </trkpt>
      <trkpt lat="48.38445" lon="2.57854">
        <ele>89.539916992188</ele>
        <time>2011-03-27T07:49:05Z</time>
      </trkpt>
      <trkpt lat="48.38438" lon="2.57879">
        <ele>90.020629882812</ele>
        <time>2011-03-27T07:49:10Z</time>
      </trkpt>
      <trkpt lat="48.38438" lon="2.57909">
        <ele>90.98193359375</ele>
        <time>2011-03-27T07:49:15Z</time>
      </trkpt>
      <trkpt lat="48.38438" lon="2.5794">
        <ele>90.501342773438</ele>
        <time>2011-03-27T07:49:20Z</time>
      </trkpt>
      <trkpt lat="48.38435" lon="2.57974">
        <ele>91.462524414062</ele>
        <time>2011-03-27T07:49:26Z</time>
      </trkpt>
      <trkpt lat="48.38427" lon="2.57997">
        <ele>91.462524414062</ele>
        <time>2011-03-27T07:49:31Z</time>
      </trkpt>
      <trkpt lat="48.38419" lon="2.58031">
        <ele>91.943237304688</ele>
        <time>2011-03-27T07:49:37Z</time>
      </trkpt>
      <trkpt lat="48.38413" lon="2.58053">
        <ele>92.423950195312</ele>
        <time>2011-03-27T07:49:42Z</time>
      </trkpt>
      <trkpt lat="48.38411" lon="2.58086">
        <ele>92.423950195312</ele>
        <time>2011-03-27T07:49:48Z</time>
      </trkpt>
      <trkpt lat="48.38409" lon="2.58114">
        <ele>92.423950195312</ele>
        <time>2011-03-27T07:49:53Z</time>
      </trkpt>
      <trkpt lat="48.38406" lon="2.58142">
        <ele>92.423950195312</ele>
        <time>2011-03-27T07:49:58Z</time>
      </trkpt>
      <trkpt lat="48.38406" lon="2.5817">
        <ele>92.423950195312</ele>
        <time>2011-03-27T07:50:03Z</time>
      </trkpt>
      <trkpt lat="48.38406" lon="2.58196">
        <ele>93.385131835938</ele>
        <time>2011-03-27T07:50:08Z</time>
      </trkpt>
      <trkpt lat="48.38408" lon="2.58224">
        <ele>92.423950195312</ele>
        <time>2011-03-27T07:50:13Z</time>
      </trkpt>
      <trkpt lat="48.3841" lon="2.58268">
        <ele>92.423950195312</ele>
        <time>2011-03-27T07:50:20Z</time>
      </trkpt>
      <trkpt lat="48.3841" lon="2.58298">
        <ele>91.943237304688</ele>
        <time>2011-03-27T07:50:25Z</time>
      </trkpt>
      <trkpt lat="48.38411" lon="2.58338">
        <ele>93.865844726562</ele>
        <time>2011-03-27T07:50:32Z</time>
      </trkpt>
      <trkpt lat="48.38406" lon="2.5838">
        <ele>93.385131835938</ele>
        <time>2011-03-27T07:50:39Z</time>
      </trkpt>
      <trkpt lat="48.38402" lon="2.58406">
        <ele>93.385131835938</ele>
        <time>2011-03-27T07:50:44Z</time>
      </trkpt>
      <trkpt lat="48.38398" lon="2.58433">
        <ele>93.865844726562</ele>
        <time>2011-03-27T07:50:50Z</time>
      </trkpt>
      <trkpt lat="48.38393" lon="2.58463">
        <ele>94.346557617188</ele>
        <time>2011-03-27T07:50:55Z</time>
      </trkpt>
      <trkpt lat="48.38387" lon="2.58497">
        <ele>93.865844726562</ele>
        <time>2011-03-27T07:51:01Z</time>
      </trkpt>
      <trkpt lat="48.38383" lon="2.58524">
        <ele>94.8271484375</ele>
        <time>2011-03-27T07:51:06Z</time>
      </trkpt>
      <trkpt lat="48.38377" lon="2.58551">
        <ele>94.8271484375</ele>
        <time>2011-03-27T07:51:11Z</time>
      </trkpt>
      <trkpt lat="48.38374" lon="2.58575">
        <ele>94.346557617188</ele>
        <time>2011-03-27T07:51:15Z</time>
      </trkpt>
      <trkpt lat="48.38372" lon="2.58602">
        <ele>94.8271484375</ele>
        <time>2011-03-27T07:51:20Z</time>
      </trkpt>
      <trkpt lat="48.38371" lon="2.58629">
        <ele>94.8271484375</ele>
        <time>2011-03-27T07:51:25Z</time>
      </trkpt>
      <trkpt lat="48.38369" lon="2.58659">
        <ele>95.307739257812</ele>
        <time>2011-03-27T07:51:31Z</time>
      </trkpt>
      <trkpt lat="48.38366" lon="2.58689">
        <ele>95.788452148438</ele>
        <time>2011-03-27T07:51:37Z</time>
      </trkpt>
      <trkpt lat="48.38366" lon="2.58693">
        <ele>95.307739257812</ele>
        <time>2011-03-27T07:51:38Z</time>
      </trkpt>
      <trkpt lat="48.38366" lon="2.58712">
        <ele>95.307739257812</ele>
        <time>2011-03-27T07:51:42Z</time>
      </trkpt>
      <trkpt lat="48.38365" lon="2.58744">
        <ele>96.269287109375</ele>
        <time>2011-03-27T07:51:48Z</time>
      </trkpt>
      <trkpt lat="48.38371" lon="2.5876">
        <ele>95.788452148438</ele>
        <time>2011-03-27T07:51:52Z</time>
      </trkpt>
      <trkpt lat="48.3839" lon="2.58771">
        <ele>95.307739257812</ele>
        <time>2011-03-27T07:51:57Z</time>
      </trkpt>
      <trkpt lat="48.38407" lon="2.58777">
        <ele>95.788452148438</ele>
        <time>2011-03-27T07:52:02Z</time>
      </trkpt>
      <trkpt lat="48.38425" lon="2.58775">
        <ele>96.749877929688</ele>
        <time>2011-03-27T07:52:07Z</time>
      </trkpt>
      <trkpt lat="48.38441" lon="2.58778">
        <ele>97.23046875</ele>
        <time>2011-03-27T07:52:12Z</time>
      </trkpt>
      <trkpt lat="48.3846" lon="2.58788">
        <ele>98.672485351562</ele>
        <time>2011-03-27T07:52:18Z</time>
      </trkpt>
      <trkpt lat="48.38474" lon="2.58794">
        <ele>98.19189453125</ele>
        <time>2011-03-27T07:52:22Z</time>
      </trkpt>
      <trkpt lat="48.38486" lon="2.58815">
        <ele>99.153076171875</ele>
        <time>2011-03-27T07:52:26Z</time>
      </trkpt>
      <trkpt lat="48.385" lon="2.58842">
        <ele>99.6337890625</ele>
        <time>2011-03-27T07:52:32Z</time>
      </trkpt>
      <trkpt lat="48.3851" lon="2.58862">
        <ele>99.153076171875</ele>
        <time>2011-03-27T07:52:37Z</time>
      </trkpt>
      <trkpt lat="48.38524" lon="2.58893">
        <ele>100.59509277344</ele>
        <time>2011-03-27T07:52:44Z</time>
      </trkpt>
      <trkpt lat="48.38533" lon="2.58908">
        <ele>100.59509277344</ele>
        <time>2011-03-27T07:52:48Z</time>
      </trkpt>
      <trkpt lat="48.38543" lon="2.58922">
        <ele>101.55639648438</ele>
        <time>2011-03-27T07:52:53Z</time>
      </trkpt>
      <trkpt lat="48.38551" lon="2.58943">
        <ele>102.037109375</ele>
        <time>2011-03-27T07:52:58Z</time>
      </trkpt>
      <trkpt lat="48.38561" lon="2.58975">
        <ele>102.037109375</ele>
        <time>2011-03-27T07:53:05Z</time>
      </trkpt>
      <trkpt lat="48.38568" lon="2.58996">
        <ele>102.51770019531</ele>
        <time>2011-03-27T07:53:10Z</time>
      </trkpt>
      <trkpt lat="48.38578" lon="2.59024">
        <ele>102.51770019531</ele>
        <time>2011-03-27T07:53:15Z</time>
      </trkpt>
      <trkpt lat="48.3859" lon="2.59055">
        <ele>102.99829101562</ele>
        <time>2011-03-27T07:53:21Z</time>
      </trkpt>
      <trkpt lat="48.38599" lon="2.59083">
        <ele>102.99829101562</ele>
        <time>2011-03-27T07:53:26Z</time>
      </trkpt>
      <trkpt lat="48.38612" lon="2.59106">
        <ele>103.47900390625</ele>
        <time>2011-03-27T07:53:31Z</time>
      </trkpt>
      <trkpt lat="48.38627" lon="2.59128">
        <ele>103.95971679688</ele>
        <time>2011-03-27T07:53:37Z</time>
      </trkpt>
      <trkpt lat="48.3864" lon="2.59147">
        <ele>103.47900390625</ele>
        <time>2011-03-27T07:53:43Z</time>
      </trkpt>
      <trkpt lat="48.38653" lon="2.59166">
        <ele>104.4404296875</ele>
        <time>2011-03-27T07:53:49Z</time>
      </trkpt>
      <trkpt lat="48.38661" lon="2.59182">
        <ele>104.92102050781</ele>
        <time>2011-03-27T07:53:54Z</time>
      </trkpt>
      <trkpt lat="48.38664" lon="2.59199">
        <ele>105.88244628906</ele>
        <time>2011-03-27T07:53:59Z</time>
      </trkpt>
      <trkpt lat="48.38659" lon="2.59222">
        <ele>106.84362792969</ele>
        <time>2011-03-27T07:54:05Z</time>
      </trkpt>
      <trkpt lat="48.38651" lon="2.59241">
        <ele>108.76623535156</ele>
        <time>2011-03-27T07:54:11Z</time>
      </trkpt>
      <trkpt lat="48.38638" lon="2.59258">
        <ele>110.68884277344</ele>
        <time>2011-03-27T07:54:17Z</time>
      </trkpt>
      <trkpt lat="48.38631" lon="2.59279">
        <ele>111.16955566406</ele>
        <time>2011-03-27T07:54:23Z</time>
      </trkpt>
      <trkpt lat="48.38628" lon="2.59304">
        <ele>112.13098144531</ele>
        <time>2011-03-27T07:54:30Z</time>
      </trkpt>
      <trkpt lat="48.38632" lon="2.59324">
        <ele>113.09228515625</ele>
        <time>2011-03-27T07:54:36Z</time>
      </trkpt>
      <trkpt lat="48.38638" lon="2.59342">
        <ele>114.05358886719</ele>
        <time>2011-03-27T07:54:43Z</time>
      </trkpt>
      <trkpt lat="48.38643" lon="2.59353">
        <ele>115.49560546875</ele>
        <time>2011-03-27T07:54:48Z</time>
      </trkpt>
      <trkpt lat="48.38649" lon="2.5937">
        <ele>117.41821289062</ele>
        <time>2011-03-27T07:54:55Z</time>
      </trkpt>
      <trkpt lat="48.38654" lon="2.59385">
        <ele>120.30212402344</ele>
        <time>2011-03-27T07:55:02Z</time>
      </trkpt>
      <trkpt lat="48.3866" lon="2.59399">
        <ele>120.78283691406</ele>
        <time>2011-03-27T07:55:08Z</time>
      </trkpt>
      <trkpt lat="48.38664" lon="2.59421">
        <ele>121.26354980469</ele>
        <time>2011-03-27T07:55:15Z</time>
      </trkpt>
      <trkpt lat="48.38668" lon="2.59448">
        <ele>121.744140625</ele>
        <time>2011-03-27T07:55:22Z</time>
      </trkpt>
      <trkpt lat="48.38671" lon="2.59476">
        <ele>122.70544433594</ele>
        <time>2011-03-27T07:55:29Z</time>
      </trkpt>
      <trkpt lat="48.38671" lon="2.59493">
        <ele>122.70544433594</ele>
        <time>2011-03-27T07:55:33Z</time>
      </trkpt>
      <trkpt lat="48.38669" lon="2.59515">
        <ele>123.18615722656</ele>
        <time>2011-03-27T07:55:38Z</time>
      </trkpt>
      <trkpt lat="48.38667" lon="2.59534">
        <ele>124.14733886719</ele>
        <time>2011-03-27T07:55:42Z</time>
      </trkpt>
      <trkpt lat="48.38665" lon="2.59558">
        <ele>123.18615722656</ele>
        <time>2011-03-27T07:55:47Z</time>
      </trkpt>
      <trkpt lat="48.38664" lon="2.59581">
        <ele>123.66674804688</ele>
        <time>2011-03-27T07:55:52Z</time>
      </trkpt>
      <trkpt lat="48.38659" lon="2.59621">
        <ele>124.14733886719</ele>
        <time>2011-03-27T07:55:59Z</time>
      </trkpt>
      <trkpt lat="48.38657" lon="2.59656">
        <ele>123.66674804688</ele>
        <time>2011-03-27T07:56:05Z</time>
      </trkpt>
      <trkpt lat="48.38654" lon="2.59687">
        <ele>121.744140625</ele>
        <time>2011-03-27T07:56:10Z</time>
      </trkpt>
      <trkpt lat="48.38652" lon="2.5972">
        <ele>123.18615722656</ele>
        <time>2011-03-27T07:56:15Z</time>
      </trkpt>
      <trkpt lat="48.38648" lon="2.59769">
        <ele>123.18615722656</ele>
        <time>2011-03-27T07:56:23Z</time>
      </trkpt>
      <trkpt lat="48.38647" lon="2.59791">
        <ele>123.66674804688</ele>
        <time>2011-03-27T07:56:27Z</time>
      </trkpt>
      <trkpt lat="48.38645" lon="2.59817">
        <ele>123.66674804688</ele>
        <time>2011-03-27T07:56:31Z</time>
      </trkpt>
      <trkpt lat="48.38642" lon="2.59851">
        <ele>123.18615722656</ele>
        <time>2011-03-27T07:56:36Z</time>
      </trkpt>
      <trkpt lat="48.38639" lon="2.59901">
        <ele>123.18615722656</ele>
        <time>2011-03-27T07:56:44Z</time>
      </trkpt>
      <trkpt lat="48.38639" lon="2.59913">
        <ele>123.18615722656</ele>
        <time>2011-03-27T07:56:46Z</time>
      </trkpt>
      <trkpt lat="48.38652" lon="2.59919">
        <ele>123.18615722656</ele>
        <time>2011-03-27T07:56:50Z</time>
      </trkpt>
      <trkpt lat="48.38656" lon="2.59917">
        <ele>123.18615722656</ele>
        <time>2011-03-27T07:56:51Z</time>
      </trkpt>
      <trkpt lat="48.38675" lon="2.59901">
        <ele>122.22473144531</ele>
        <time>2011-03-27T07:56:57Z</time>
      </trkpt>
      <trkpt lat="48.38693" lon="2.59893">
        <ele>122.22473144531</ele>
        <time>2011-03-27T07:57:02Z</time>
      </trkpt>
      <trkpt lat="48.38699" lon="2.59895">
        <ele>123.18615722656</ele>
        <time>2011-03-27T07:57:04Z</time>
      </trkpt>
      <trkpt lat="48.38715" lon="2.59899">
        <ele>124.62805175781</ele>
        <time>2011-03-27T07:57:09Z</time>
      </trkpt>
      <trkpt lat="48.38736" lon="2.59909">
        <ele>125.58935546875</ele>
        <time>2011-03-27T07:57:16Z</time>
      </trkpt>
      <trkpt lat="48.3875" lon="2.59903">
        <ele>125.58935546875</ele>
        <time>2011-03-27T07:57:20Z</time>
      </trkpt>
      <trkpt lat="48.38763" lon="2.59884">
        <ele>125.10876464844</ele>
        <time>2011-03-27T07:57:25Z</time>
      </trkpt>
      <trkpt lat="48.38785" lon="2.59852">
        <ele>125.10876464844</ele>
        <time>2011-03-27T07:57:32Z</time>
      </trkpt>
      <trkpt lat="48.38791" lon="2.59841">
        <ele>125.10876464844</ele>
        <time>2011-03-27T07:57:34Z</time>
      </trkpt>
      <trkpt lat="48.38799" lon="2.59818">
        <ele>125.10876464844</ele>
        <time>2011-03-27T07:57:38Z</time>
      </trkpt>
      <trkpt lat="48.38817" lon="2.59802">
        <ele>123.66674804688</ele>
        <time>2011-03-27T07:57:43Z</time>
      </trkpt>
      <trkpt lat="48.38839" lon="2.59804">
        <ele>122.70544433594</ele>
        <time>2011-03-27T07:57:47Z</time>
      </trkpt>
      <trkpt lat="48.38853" lon="2.598">
        <ele>122.70544433594</ele>
        <time>2011-03-27T07:57:50Z</time>
      </trkpt>
      <trkpt lat="48.38878" lon="2.59786">
        <ele>122.70544433594</ele>
        <time>2011-03-27T07:57:56Z</time>
      </trkpt>
      <trkpt lat="48.38887" lon="2.59786">
        <ele>122.70544433594</ele>
        <time>2011-03-27T07:57:58Z</time>
      </trkpt>
      <trkpt lat="48.38917" lon="2.59792">
        <ele>123.18615722656</ele>
        <time>2011-03-27T07:58:05Z</time>
      </trkpt>
      <trkpt lat="48.38948" lon="2.59796">
        <ele>124.62805175781</ele>
        <time>2011-03-27T07:58:12Z</time>
      </trkpt>
      <trkpt lat="48.38958" lon="2.59796">
        <ele>125.10876464844</ele>
        <time>2011-03-27T07:58:14Z</time>
      </trkpt>
      <trkpt lat="48.38989" lon="2.59799">
        <ele>125.10876464844</ele>
        <time>2011-03-27T07:58:21Z</time>
      </trkpt>
      <trkpt lat="48.39004" lon="2.59801">
        <ele>125.10876464844</ele>
        <time>2011-03-27T07:58:24Z</time>
      </trkpt>
      <trkpt lat="48.39018" lon="2.59804">
        <ele>125.10876464844</ele>
        <time>2011-03-27T07:58:27Z</time>
      </trkpt>
      <trkpt lat="48.39048" lon="2.59807">
        <ele>125.10876464844</ele>
        <time>2011-03-27T07:58:33Z</time>
      </trkpt>
      <trkpt lat="48.39079" lon="2.59814">
        <ele>125.10876464844</ele>
        <time>2011-03-27T07:58:39Z</time>
      </trkpt>
      <trkpt lat="48.3912" lon="2.59817">
        <ele>124.14733886719</ele>
        <time>2011-03-27T07:58:46Z</time>
      </trkpt>
      <trkpt lat="48.39154" lon="2.59823">
        <ele>122.70544433594</ele>
        <time>2011-03-27T07:58:52Z</time>
      </trkpt>
      <trkpt lat="48.39188" lon="2.59828">
        <ele>120.78283691406</ele>
        <time>2011-03-27T07:58:57Z</time>
      </trkpt>
      <trkpt lat="48.392" lon="2.59828">
        <ele>119.3408203125</ele>
        <time>2011-03-27T07:58:59Z</time>
      </trkpt>
      <trkpt lat="48.39216" lon="2.5983">
        <ele>118.37939453125</ele>
        <time>2011-03-27T07:59:01Z</time>
      </trkpt>
      <trkpt lat="48.39241" lon="2.59833">
        <ele>114.5341796875</ele>
        <time>2011-03-27T07:59:04Z</time>
      </trkpt>
      <trkpt lat="48.39251" lon="2.59836">
        <ele>114.5341796875</ele>
        <time>2011-03-27T07:59:05Z</time>
      </trkpt>
      <trkpt lat="48.3927" lon="2.59837">
        <ele>110.20825195312</ele>
        <time>2011-03-27T07:59:07Z</time>
      </trkpt>
      <trkpt lat="48.3928" lon="2.59837">
        <ele>107.80505371094</ele>
        <time>2011-03-27T07:59:08Z</time>
      </trkpt>
      <trkpt lat="48.39313" lon="2.59858">
        <ele>101.07568359375</ele>
        <time>2011-03-27T07:59:11Z</time>
      </trkpt>
      <trkpt lat="48.39359" lon="2.5989">
        <ele>97.711181640625</ele>
        <time>2011-03-27T07:59:15Z</time>
      </trkpt>
      <trkpt lat="48.39381" lon="2.59905">
        <ele>94.346557617188</ele>
        <time>2011-03-27T07:59:17Z</time>
      </trkpt>
      <trkpt lat="48.39392" lon="2.59912">
        <ele>94.346557617188</ele>
        <time>2011-03-27T07:59:18Z</time>
      </trkpt>
      <trkpt lat="48.39422" lon="2.5993">
        <ele>92.904541015625</ele>
        <time>2011-03-27T07:59:21Z</time>
      </trkpt>
      <trkpt lat="48.39477" lon="2.59967">
        <ele>88.578735351562</ele>
        <time>2011-03-27T07:59:27Z</time>
      </trkpt>
      <trkpt lat="48.39484" lon="2.59972">
        <ele>88.578735351562</ele>
        <time>2011-03-27T07:59:28Z</time>
      </trkpt>
      <trkpt lat="48.39491" lon="2.59977">
        <ele>88.098022460938</ele>
        <time>2011-03-27T07:59:30Z</time>
      </trkpt>
      <trkpt lat="48.39494" lon="2.59978">
        <ele>87.6171875</ele>
        <time>2011-03-27T07:59:31Z</time>
      </trkpt>
      <trkpt lat="48.39497" lon="2.59969">
        <ele>87.6171875</ele>
        <time>2011-03-27T07:59:35Z</time>
      </trkpt>
      <trkpt lat="48.39499" lon="2.59948">
        <ele>87.6171875</ele>
        <time>2011-03-27T07:59:40Z</time>
      </trkpt>
      <trkpt lat="48.39502" lon="2.59921">
        <ele>87.6171875</ele>
        <time>2011-03-27T07:59:45Z</time>
      </trkpt>
      <trkpt lat="48.39504" lon="2.59893">
        <ele>86.656005859375</ele>
        <time>2011-03-27T07:59:50Z</time>
      </trkpt>
      <trkpt lat="48.3951" lon="2.59866">
        <ele>86.656005859375</ele>
        <time>2011-03-27T07:59:54Z</time>
      </trkpt>
      <trkpt lat="48.39515" lon="2.59838">
        <ele>86.656005859375</ele>
        <time>2011-03-27T07:59:58Z</time>
      </trkpt>
      <trkpt lat="48.39522" lon="2.59789">
        <ele>87.136596679688</ele>
        <time>2011-03-27T08:00:05Z</time>
      </trkpt>
      <trkpt lat="48.39531" lon="2.5974">
        <ele>87.136596679688</ele>
        <time>2011-03-27T08:00:12Z</time>
      </trkpt>
      <trkpt lat="48.39539" lon="2.59687">
        <ele>85.694580078125</ele>
        <time>2011-03-27T08:00:19Z</time>
      </trkpt>
      <trkpt lat="48.39547" lon="2.59628">
        <ele>85.213989257812</ele>
        <time>2011-03-27T08:00:27Z</time>
      </trkpt>
      <trkpt lat="48.39552" lon="2.59599">
        <ele>85.213989257812</ele>
        <time>2011-03-27T08:00:31Z</time>
      </trkpt>
      <trkpt lat="48.39558" lon="2.5955">
        <ele>84.7333984375</ele>
        <time>2011-03-27T08:00:39Z</time>
      </trkpt>
      <trkpt lat="48.39563" lon="2.59517">
        <ele>84.252685546875</ele>
        <time>2011-03-27T08:00:45Z</time>
      </trkpt>
      <trkpt lat="48.39572" lon="2.59469">
        <ele>84.252685546875</ele>
        <time>2011-03-27T08:00:53Z</time>
      </trkpt>
      <trkpt lat="48.39574" lon="2.59435">
        <ele>84.252685546875</ele>
        <time>2011-03-27T08:00:59Z</time>
      </trkpt>
      <trkpt lat="48.39578" lon="2.59405">
        <ele>83.291381835938</ele>
        <time>2011-03-27T08:01:03Z</time>
      </trkpt>
      <trkpt lat="48.39585" lon="2.5936">
        <ele>82.810791015625</ele>
        <time>2011-03-27T08:01:08Z</time>
      </trkpt>
      <trkpt lat="48.39595" lon="2.59291">
        <ele>82.810791015625</ele>
        <time>2011-03-27T08:01:16Z</time>
      </trkpt>
      <trkpt lat="48.39603" lon="2.59237">
        <ele>83.291381835938</ele>
        <time>2011-03-27T08:01:23Z</time>
      </trkpt>
      <trkpt lat="48.39611" lon="2.59181">
        <ele>82.810791015625</ele>
        <time>2011-03-27T08:01:30Z</time>
      </trkpt>
      <trkpt lat="48.39616" lon="2.59137">
        <ele>81.368774414062</ele>
        <time>2011-03-27T08:01:36Z</time>
      </trkpt>
      <trkpt lat="48.39619" lon="2.59095">
        <ele>80.407470703125</ele>
        <time>2011-03-27T08:01:42Z</time>
      </trkpt>
      <trkpt lat="48.39626" lon="2.59042">
        <ele>80.88818359375</ele>
        <time>2011-03-27T08:01:50Z</time>
      </trkpt>
      <trkpt lat="48.3963" lon="2.58998">
        <ele>79.926635742188</ele>
        <time>2011-03-27T08:01:57Z</time>
      </trkpt>
      <trkpt lat="48.39634" lon="2.58953">
        <ele>79.926635742188</ele>
        <time>2011-03-27T08:02:05Z</time>
      </trkpt>
      <trkpt lat="48.39635" lon="2.58923">
        <ele>80.407470703125</ele>
        <time>2011-03-27T08:02:11Z</time>
      </trkpt>
      <trkpt lat="48.39639" lon="2.58893">
        <ele>80.407470703125</ele>
        <time>2011-03-27T08:02:18Z</time>
      </trkpt>
      <trkpt lat="48.39645" lon="2.58869">
        <ele>79.926635742188</ele>
        <time>2011-03-27T08:02:23Z</time>
      </trkpt>
      <trkpt lat="48.39658" lon="2.58865">
        <ele>80.88818359375</ele>
        <time>2011-03-27T08:02:27Z</time>
      </trkpt>
      <trkpt lat="48.39679" lon="2.58859">
        <ele>82.810791015625</ele>
        <time>2011-03-27T08:02:33Z</time>
      </trkpt>
      <trkpt lat="48.39697" lon="2.58853">
        <ele>85.213989257812</ele>
        <time>2011-03-27T08:02:39Z</time>
      </trkpt>
      <trkpt lat="48.39717" lon="2.58848">
        <ele>87.6171875</ele>
        <time>2011-03-27T08:02:47Z</time>
      </trkpt>
      <trkpt lat="48.39723" lon="2.58847">
        <ele>89.059326171875</ele>
        <time>2011-03-27T08:02:49Z</time>
      </trkpt>
      <trkpt lat="48.39736" lon="2.58849">
        <ele>90.501342773438</ele>
        <time>2011-03-27T08:02:54Z</time>
      </trkpt>
      <trkpt lat="48.39749" lon="2.58861">
        <ele>90.501342773438</ele>
        <time>2011-03-27T08:02:59Z</time>
      </trkpt>
      <trkpt lat="48.39761" lon="2.5887">
        <ele>90.98193359375</ele>
        <time>2011-03-27T08:03:04Z</time>
      </trkpt>
      <trkpt lat="48.39778" lon="2.58876">
        <ele>92.904541015625</ele>
        <time>2011-03-27T08:03:11Z</time>
      </trkpt>
      <trkpt lat="48.39792" lon="2.58882">
        <ele>94.346557617188</ele>
        <time>2011-03-27T08:03:17Z</time>
      </trkpt>
      <trkpt lat="48.39808" lon="2.58888">
        <ele>96.749877929688</ele>
        <time>2011-03-27T08:03:24Z</time>
      </trkpt>
      <trkpt lat="48.39819" lon="2.58898">
        <ele>97.23046875</ele>
        <time>2011-03-27T08:03:30Z</time>
      </trkpt>
      <trkpt lat="48.39829" lon="2.58921">
        <ele>99.153076171875</ele>
        <time>2011-03-27T08:03:38Z</time>
      </trkpt>
      <trkpt lat="48.39835" lon="2.58944">
        <ele>101.55639648438</ele>
        <time>2011-03-27T08:03:45Z</time>
      </trkpt>
      <trkpt lat="48.39837" lon="2.5895">
        <ele>102.51770019531</ele>
        <time>2011-03-27T08:03:47Z</time>
      </trkpt>
      <trkpt lat="48.39838" lon="2.58974">
        <ele>103.95971679688</ele>
        <time>2011-03-27T08:03:54Z</time>
      </trkpt>
      <trkpt lat="48.39841" lon="2.58988">
        <ele>105.40173339844</ele>
        <time>2011-03-27T08:03:59Z</time>
      </trkpt>
      <trkpt lat="48.39848" lon="2.59">
        <ele>106.36303710938</ele>
        <time>2011-03-27T08:04:04Z</time>
      </trkpt>
      <trkpt lat="48.39862" lon="2.58997">
        <ele>107.32434082031</ele>
        <time>2011-03-27T08:04:11Z</time>
      </trkpt>
      <trkpt lat="48.39864" lon="2.58996">
        <ele>107.80505371094</ele>
        <time>2011-03-27T08:04:12Z</time>
      </trkpt>
      <trkpt lat="48.3988" lon="2.5899">
        <ele>109.24694824219</ele>
        <time>2011-03-27T08:04:20Z</time>
      </trkpt>
      <trkpt lat="48.39892" lon="2.58984">
        <ele>110.20825195312</ele>
        <time>2011-03-27T08:04:25Z</time>
      </trkpt>
      <trkpt lat="48.39903" lon="2.58995">
        <ele>109.72766113281</ele>
        <time>2011-03-27T08:04:30Z</time>
      </trkpt>
      <trkpt lat="48.39906" lon="2.59">
        <ele>108.76623535156</ele>
        <time>2011-03-27T08:04:31Z</time>
      </trkpt>
      <trkpt lat="48.39925" lon="2.59045">
        <ele>105.40173339844</ele>
        <time>2011-03-27T08:04:37Z</time>
      </trkpt>
      <trkpt lat="48.39928" lon="2.59052">
        <ele>104.92102050781</ele>
        <time>2011-03-27T08:04:38Z</time>
      </trkpt>
      <trkpt lat="48.39932" lon="2.59087">
        <ele>104.92102050781</ele>
        <time>2011-03-27T08:04:42Z</time>
      </trkpt>
      <trkpt lat="48.39928" lon="2.59101">
        <ele>104.92102050781</ele>
        <time>2011-03-27T08:04:44Z</time>
      </trkpt>
      <trkpt lat="48.39924" lon="2.59137">
        <ele>105.88244628906</ele>
        <time>2011-03-27T08:04:50Z</time>
      </trkpt>
      <trkpt lat="48.39925" lon="2.59155">
        <ele>106.84362792969</ele>
        <time>2011-03-27T08:04:55Z</time>
      </trkpt>
      <trkpt lat="48.3993" lon="2.59177">
        <ele>108.28564453125</ele>
        <time>2011-03-27T08:05:00Z</time>
      </trkpt>
      <trkpt lat="48.39937" lon="2.59201">
        <ele>108.28564453125</ele>
        <time>2011-03-27T08:05:07Z</time>
      </trkpt>
      <trkpt lat="48.39941" lon="2.59228">
        <ele>111.16955566406</ele>
        <time>2011-03-27T08:05:15Z</time>
      </trkpt>
      <trkpt lat="48.39942" lon="2.59249">
        <ele>113.09228515625</ele>
        <time>2011-03-27T08:05:22Z</time>
      </trkpt>
      <trkpt lat="48.39942" lon="2.59254">
        <ele>114.05358886719</ele>
        <time>2011-03-27T08:05:24Z</time>
      </trkpt>
      <trkpt lat="48.39944" lon="2.59275">
        <ele>116.9375</ele>
        <time>2011-03-27T08:05:31Z</time>
      </trkpt>
      <trkpt lat="48.3994" lon="2.59296">
        <ele>118.37939453125</ele>
        <time>2011-03-27T08:05:38Z</time>
      </trkpt>
      <trkpt lat="48.39935" lon="2.59315">
        <ele>118.86010742188</ele>
        <time>2011-03-27T08:05:44Z</time>
      </trkpt>
      <trkpt lat="48.39934" lon="2.59335">
        <ele>118.86010742188</ele>
        <time>2011-03-27T08:05:49Z</time>
      </trkpt>
      <trkpt lat="48.39934" lon="2.5936">
        <ele>118.37939453125</ele>
        <time>2011-03-27T08:05:54Z</time>
      </trkpt>
      <trkpt lat="48.39935" lon="2.59372">
        <ele>118.37939453125</ele>
        <time>2011-03-27T08:05:56Z</time>
      </trkpt>
      <trkpt lat="48.39946" lon="2.59403">
        <ele>116.9375</ele>
        <time>2011-03-27T08:06:02Z</time>
      </trkpt>
      <trkpt lat="48.3995" lon="2.59437">
        <ele>112.61157226562</ele>
        <time>2011-03-27T08:06:06Z</time>
      </trkpt>
      <trkpt lat="48.39948" lon="2.5945">
        <ele>111.65026855469</ele>
        <time>2011-03-27T08:06:08Z</time>
      </trkpt>
      <trkpt lat="48.3994" lon="2.59451">
        <ele>110.20825195312</ele>
        <time>2011-03-27T08:06:10Z</time>
      </trkpt>
      <trkpt lat="48.39912" lon="2.59455">
        <ele>108.76623535156</ele>
        <time>2011-03-27T08:06:14Z</time>
      </trkpt>
      <trkpt lat="48.39884" lon="2.59472">
        <ele>107.32434082031</ele>
        <time>2011-03-27T08:06:19Z</time>
      </trkpt>
      <trkpt lat="48.3988" lon="2.59488">
        <ele>107.32434082031</ele>
        <time>2011-03-27T08:06:22Z</time>
      </trkpt>
      <trkpt lat="48.39882" lon="2.59523">
        <ele>107.80505371094</ele>
        <time>2011-03-27T08:06:27Z</time>
      </trkpt>
      <trkpt lat="48.39883" lon="2.5953">
        <ele>107.80505371094</ele>
        <time>2011-03-27T08:06:28Z</time>
      </trkpt>
      <trkpt lat="48.39886" lon="2.59579">
        <ele>108.28564453125</ele>
        <time>2011-03-27T08:06:35Z</time>
      </trkpt>
      <trkpt lat="48.39887" lon="2.59616">
        <ele>108.28564453125</ele>
        <time>2011-03-27T08:06:40Z</time>
      </trkpt>
      <trkpt lat="48.39889" lon="2.59637">
        <ele>108.28564453125</ele>
        <time>2011-03-27T08:06:43Z</time>
      </trkpt>
      <trkpt lat="48.39891" lon="2.59664">
        <ele>109.24694824219</ele>
        <time>2011-03-27T08:06:47Z</time>
      </trkpt>
      <trkpt lat="48.39896" lon="2.59711">
        <ele>108.76623535156</ele>
        <time>2011-03-27T08:06:53Z</time>
      </trkpt>
      <trkpt lat="48.39897" lon="2.59747">
        <ele>109.72766113281</ele>
        <time>2011-03-27T08:06:58Z</time>
      </trkpt>
      <trkpt lat="48.39898" lon="2.59761">
        <ele>109.72766113281</ele>
        <time>2011-03-27T08:07:00Z</time>
      </trkpt>
      <trkpt lat="48.39905" lon="2.59803">
        <ele>111.65026855469</ele>
        <time>2011-03-27T08:07:07Z</time>
      </trkpt>
      <trkpt lat="48.39909" lon="2.59827">
        <ele>111.16955566406</ele>
        <time>2011-03-27T08:07:11Z</time>
      </trkpt>
      <trkpt lat="48.39906" lon="2.59858">
        <ele>110.68884277344</ele>
        <time>2011-03-27T08:07:16Z</time>
      </trkpt>
      <trkpt lat="48.39893" lon="2.59886">
        <ele>109.72766113281</ele>
        <time>2011-03-27T08:07:21Z</time>
      </trkpt>
      <trkpt lat="48.39885" lon="2.59903">
        <ele>109.24694824219</ele>
        <time>2011-03-27T08:07:24Z</time>
      </trkpt>
      <trkpt lat="48.39879" lon="2.59916">
        <ele>109.24694824219</ele>
        <time>2011-03-27T08:07:26Z</time>
      </trkpt>
      <trkpt lat="48.39859" lon="2.59957">
        <ele>108.76623535156</ele>
        <time>2011-03-27T08:07:32Z</time>
      </trkpt>
      <trkpt lat="48.39841" lon="2.59992">
        <ele>108.28564453125</ele>
        <time>2011-03-27T08:07:37Z</time>
      </trkpt>
      <trkpt lat="48.39834" lon="2.6001">
        <ele>108.76623535156</ele>
        <time>2011-03-27T08:07:39Z</time>
      </trkpt>
      <trkpt lat="48.39825" lon="2.60062">
        <ele>108.28564453125</ele>
        <time>2011-03-27T08:07:45Z</time>
      </trkpt>
      <trkpt lat="48.3982" lon="2.60087">
        <ele>107.80505371094</ele>
        <time>2011-03-27T08:07:48Z</time>
      </trkpt>
      <trkpt lat="48.39814" lon="2.60131">
        <ele>107.32434082031</ele>
        <time>2011-03-27T08:07:53Z</time>
      </trkpt>
      <trkpt lat="48.3981" lon="2.60148">
        <ele>106.84362792969</ele>
        <time>2011-03-27T08:07:55Z</time>
      </trkpt>
      <trkpt lat="48.398" lon="2.60184">
        <ele>107.80505371094</ele>
        <time>2011-03-27T08:08:00Z</time>
      </trkpt>
      <trkpt lat="48.39797" lon="2.60208">
        <ele>107.80505371094</ele>
        <time>2011-03-27T08:08:03Z</time>
      </trkpt>
      <trkpt lat="48.39798" lon="2.60237">
        <ele>108.28564453125</ele>
        <time>2011-03-27T08:08:07Z</time>
      </trkpt>
      <trkpt lat="48.39801" lon="2.60242">
        <ele>108.28564453125</ele>
        <time>2011-03-27T08:08:08Z</time>
      </trkpt>
      <trkpt lat="48.3981" lon="2.60261">
        <ele>109.72766113281</ele>
        <time>2011-03-27T08:08:12Z</time>
      </trkpt>
      <trkpt lat="48.39823" lon="2.60289">
        <ele>108.28564453125</ele>
        <time>2011-03-27T08:08:17Z</time>
      </trkpt>
      <trkpt lat="48.39833" lon="2.60316">
        <ele>108.76623535156</ele>
        <time>2011-03-27T08:08:21Z</time>
      </trkpt>
      <trkpt lat="48.39851" lon="2.60366">
        <ele>108.28564453125</ele>
        <time>2011-03-27T08:08:29Z</time>
      </trkpt>
      <trkpt lat="48.39859" lon="2.60391">
        <ele>108.76623535156</ele>
        <time>2011-03-27T08:08:33Z</time>
      </trkpt>
      <trkpt lat="48.39874" lon="2.60404">
        <ele>109.24694824219</ele>
        <time>2011-03-27T08:08:37Z</time>
      </trkpt>
      <trkpt lat="48.39891" lon="2.60405">
        <ele>110.20825195312</ele>
        <time>2011-03-27T08:08:42Z</time>
      </trkpt>
      <trkpt lat="48.39901" lon="2.60407">
        <ele>109.72766113281</ele>
        <time>2011-03-27T08:08:45Z</time>
      </trkpt>
      <trkpt lat="48.39925" lon="2.60422">
        <ele>109.72766113281</ele>
        <time>2011-03-27T08:08:51Z</time>
      </trkpt>
      <trkpt lat="48.39935" lon="2.60428">
        <ele>109.72766113281</ele>
        <time>2011-03-27T08:08:53Z</time>
      </trkpt>
      <trkpt lat="48.39957" lon="2.6045">
        <ele>110.20825195312</ele>
        <time>2011-03-27T08:08:59Z</time>
      </trkpt>
      <trkpt lat="48.39964" lon="2.60454">
        <ele>109.72766113281</ele>
        <time>2011-03-27T08:09:01Z</time>
      </trkpt>
      <trkpt lat="48.39973" lon="2.60442">
        <ele>110.68884277344</ele>
        <time>2011-03-27T08:09:05Z</time>
      </trkpt>
      <trkpt lat="48.39982" lon="2.60401">
        <ele>111.65026855469</ele>
        <time>2011-03-27T08:09:14Z</time>
      </trkpt>
      <trkpt lat="48.39988" lon="2.60378">
        <ele>112.13098144531</ele>
        <time>2011-03-27T08:09:20Z</time>
      </trkpt>
      <trkpt lat="48.39994" lon="2.60358">
        <ele>113.09228515625</ele>
        <time>2011-03-27T08:09:25Z</time>
      </trkpt>
      <trkpt lat="48.4" lon="2.60334">
        <ele>113.57299804688</ele>
        <time>2011-03-27T08:09:32Z</time>
      </trkpt>
      <trkpt lat="48.40005" lon="2.60318">
        <ele>114.5341796875</ele>
        <time>2011-03-27T08:09:37Z</time>
      </trkpt>
      <trkpt lat="48.40013" lon="2.60287">
        <ele>115.49560546875</ele>
        <time>2011-03-27T08:09:45Z</time>
      </trkpt>
      <trkpt lat="48.40012" lon="2.60269">
        <ele>116.45678710938</ele>
        <time>2011-03-27T08:09:50Z</time>
      </trkpt>
      <trkpt lat="48.40007" lon="2.60247">
        <ele>117.41821289062</ele>
        <time>2011-03-27T08:09:57Z</time>
      </trkpt>
      <trkpt lat="48.40005" lon="2.60231">
        <ele>119.3408203125</ele>
        <time>2011-03-27T08:10:02Z</time>
      </trkpt>
      <trkpt lat="48.40007" lon="2.60212">
        <ele>120.30212402344</ele>
        <time>2011-03-27T08:10:08Z</time>
      </trkpt>
      <trkpt lat="48.40007" lon="2.60188">
        <ele>121.26354980469</ele>
        <time>2011-03-27T08:10:15Z</time>
      </trkpt>
      <trkpt lat="48.40007" lon="2.6017">
        <ele>121.744140625</ele>
        <time>2011-03-27T08:10:20Z</time>
      </trkpt>
      <trkpt lat="48.40005" lon="2.60144">
        <ele>121.744140625</ele>
        <time>2011-03-27T08:10:26Z</time>
      </trkpt>
      <trkpt lat="48.40009" lon="2.60118">
        <ele>122.70544433594</ele>
        <time>2011-03-27T08:10:31Z</time>
      </trkpt>
      <trkpt lat="48.40012" lon="2.60093">
        <ele>122.22473144531</ele>
        <time>2011-03-27T08:10:35Z</time>
      </trkpt>
      <trkpt lat="48.40012" lon="2.60064">
        <ele>121.744140625</ele>
        <time>2011-03-27T08:10:39Z</time>
      </trkpt>
      <trkpt lat="48.40019" lon="2.60027">
        <ele>121.26354980469</ele>
        <time>2011-03-27T08:10:44Z</time>
      </trkpt>
      <trkpt lat="48.40034" lon="2.59983">
        <ele>121.744140625</ele>
        <time>2011-03-27T08:10:50Z</time>
      </trkpt>
      <trkpt lat="48.4005" lon="2.59951">
        <ele>121.744140625</ele>
        <time>2011-03-27T08:10:55Z</time>
      </trkpt>
      <trkpt lat="48.40057" lon="2.59918">
        <ele>121.744140625</ele>
        <time>2011-03-27T08:10:59Z</time>
      </trkpt>
      <trkpt lat="48.40058" lon="2.59878">
        <ele>122.22473144531</ele>
        <time>2011-03-27T08:11:04Z</time>
      </trkpt>
      <trkpt lat="48.40057" lon="2.59854">
        <ele>121.26354980469</ele>
        <time>2011-03-27T08:11:07Z</time>
      </trkpt>
      <trkpt lat="48.40054" lon="2.59838">
        <ele>122.22473144531</ele>
        <time>2011-03-27T08:11:09Z</time>
      </trkpt>
      <trkpt lat="48.4006" lon="2.59812">
        <ele>122.70544433594</ele>
        <time>2011-03-27T08:11:14Z</time>
      </trkpt>
      <trkpt lat="48.40068" lon="2.59812">
        <ele>123.18615722656</ele>
        <time>2011-03-27T08:11:16Z</time>
      </trkpt>
      <trkpt lat="48.401" lon="2.59817">
        <ele>123.66674804688</ele>
        <time>2011-03-27T08:11:24Z</time>
      </trkpt>
      <trkpt lat="48.40125" lon="2.59824">
        <ele>124.14733886719</ele>
        <time>2011-03-27T08:11:30Z</time>
      </trkpt>
      <trkpt lat="48.40146" lon="2.59827">
        <ele>124.14733886719</ele>
        <time>2011-03-27T08:11:35Z</time>
      </trkpt>
      <trkpt lat="48.40163" lon="2.59817">
        <ele>123.66674804688</ele>
        <time>2011-03-27T08:11:39Z</time>
      </trkpt>
      <trkpt lat="48.40189" lon="2.598">
        <ele>120.30212402344</ele>
        <time>2011-03-27T08:11:44Z</time>
      </trkpt>
      <trkpt lat="48.40196" lon="2.59795">
        <ele>117.89880371094</ele>
        <time>2011-03-27T08:11:45Z</time>
      </trkpt>
      <trkpt lat="48.40229" lon="2.59771">
        <ele>113.09228515625</ele>
        <time>2011-03-27T08:11:49Z</time>
      </trkpt>
      <trkpt lat="48.40246" lon="2.59759">
        <ele>112.13098144531</ele>
        <time>2011-03-27T08:11:51Z</time>
      </trkpt>
      <trkpt lat="48.4026" lon="2.59749">
        <ele>110.20825195312</ele>
        <time>2011-03-27T08:11:53Z</time>
      </trkpt>
      <trkpt lat="48.40271" lon="2.59741">
        <ele>109.24694824219</ele>
        <time>2011-03-27T08:11:55Z</time>
      </trkpt>
      <trkpt lat="48.40277" lon="2.59715">
        <ele>107.80505371094</ele>
        <time>2011-03-27T08:11:58Z</time>
      </trkpt>
      <trkpt lat="48.40279" lon="2.59693">
        <ele>106.84362792969</ele>
        <time>2011-03-27T08:12:00Z</time>
      </trkpt>
      <trkpt lat="48.40279" lon="2.5963">
        <ele>104.92102050781</ele>
        <time>2011-03-27T08:12:05Z</time>
      </trkpt>
      <trkpt lat="48.40275" lon="2.59589">
        <ele>102.99829101562</ele>
        <time>2011-03-27T08:12:08Z</time>
      </trkpt>
      <trkpt lat="48.40274" lon="2.59564">
        <ele>102.037109375</ele>
        <time>2011-03-27T08:12:10Z</time>
      </trkpt>
      <trkpt lat="48.40274" lon="2.59537">
        <ele>100.59509277344</ele>
        <time>2011-03-27T08:12:12Z</time>
      </trkpt>
      <trkpt lat="48.40278" lon="2.59496">
        <ele>98.19189453125</ele>
        <time>2011-03-27T08:12:15Z</time>
      </trkpt>
      <trkpt lat="48.40285" lon="2.59454">
        <ele>97.23046875</ele>
        <time>2011-03-27T08:12:18Z</time>
      </trkpt>
      <trkpt lat="48.40294" lon="2.5941">
        <ele>93.865844726562</ele>
        <time>2011-03-27T08:12:21Z</time>
      </trkpt>
      <trkpt lat="48.40295" lon="2.59395">
        <ele>92.423950195312</ele>
        <time>2011-03-27T08:12:22Z</time>
      </trkpt>
      <trkpt lat="48.40288" lon="2.59336">
        <ele>91.462524414062</ele>
        <time>2011-03-27T08:12:26Z</time>
      </trkpt>
      <trkpt lat="48.4028" lon="2.59277">
        <ele>87.6171875</ele>
        <time>2011-03-27T08:12:30Z</time>
      </trkpt>
      <trkpt lat="48.40275" lon="2.59208">
        <ele>85.213989257812</ele>
        <time>2011-03-27T08:12:35Z</time>
      </trkpt>
      <trkpt lat="48.40274" lon="2.59194">
        <ele>85.213989257812</ele>
        <time>2011-03-27T08:12:36Z</time>
      </trkpt>
      <trkpt lat="48.40268" lon="2.59139">
        <ele>82.810791015625</ele>
        <time>2011-03-27T08:12:40Z</time>
      </trkpt>
      <trkpt lat="48.40263" lon="2.59082">
        <ele>80.88818359375</ele>
        <time>2011-03-27T08:12:44Z</time>
      </trkpt>
      <trkpt lat="48.40261" lon="2.59069">
        <ele>80.88818359375</ele>
        <time>2011-03-27T08:12:45Z</time>
      </trkpt>
      <trkpt lat="48.40253" lon="2.58997">
        <ele>78.484741210938</ele>
        <time>2011-03-27T08:12:51Z</time>
      </trkpt>
      <trkpt lat="48.40246" lon="2.58942">
        <ele>77.5234375</ele>
        <time>2011-03-27T08:12:57Z</time>
      </trkpt>
      <trkpt lat="48.40242" lon="2.58914">
        <ele>77.042846679688</ele>
        <time>2011-03-27T08:13:00Z</time>
      </trkpt>
      <trkpt lat="48.40237" lon="2.58852">
        <ele>76.562133789062</ele>
        <time>2011-03-27T08:13:07Z</time>
      </trkpt>
      <trkpt lat="48.40232" lon="2.5879">
        <ele>75.600830078125</ele>
        <time>2011-03-27T08:13:14Z</time>
      </trkpt>
      <trkpt lat="48.40232" lon="2.58754">
        <ele>75.120239257812</ele>
        <time>2011-03-27T08:13:18Z</time>
      </trkpt>
      <trkpt lat="48.40236" lon="2.58712">
        <ele>74.639526367188</ele>
        <time>2011-03-27T08:13:23Z</time>
      </trkpt>
      <trkpt lat="48.40236" lon="2.58682">
        <ele>75.120239257812</ele>
        <time>2011-03-27T08:13:27Z</time>
      </trkpt>
      <trkpt lat="48.40243" lon="2.58616">
        <ele>74.158813476562</ele>
        <time>2011-03-27T08:13:35Z</time>
      </trkpt>
      <trkpt lat="48.40245" lon="2.58571">
        <ele>74.639526367188</ele>
        <time>2011-03-27T08:13:41Z</time>
      </trkpt>
      <trkpt lat="48.40249" lon="2.5854">
        <ele>73.197631835938</ele>
        <time>2011-03-27T08:13:45Z</time>
      </trkpt>
      <trkpt lat="48.40249" lon="2.58523">
        <ele>73.197631835938</ele>
        <time>2011-03-27T08:13:47Z</time>
      </trkpt>
      <trkpt lat="48.40243" lon="2.58492">
        <ele>73.197631835938</ele>
        <time>2011-03-27T08:13:51Z</time>
      </trkpt>
      <trkpt lat="48.40242" lon="2.58455">
        <ele>73.67822265625</ele>
        <time>2011-03-27T08:13:56Z</time>
      </trkpt>
      <trkpt lat="48.40245" lon="2.58441">
        <ele>72.716918945312</ele>
        <time>2011-03-27T08:13:58Z</time>
      </trkpt>
      <trkpt lat="48.40249" lon="2.58426">
        <ele>73.67822265625</ele>
        <time>2011-03-27T08:14:00Z</time>
      </trkpt>
      <trkpt lat="48.4026" lon="2.58409">
        <ele>73.67822265625</ele>
        <time>2011-03-27T08:14:04Z</time>
      </trkpt>
      <trkpt lat="48.40269" lon="2.58417">
        <ele>73.197631835938</ele>
        <time>2011-03-27T08:14:06Z</time>
      </trkpt>
      <trkpt lat="48.40278" lon="2.58425">
        <ele>73.197631835938</ele>
        <time>2011-03-27T08:14:08Z</time>
      </trkpt>
      <trkpt lat="48.40311" lon="2.58445">
        <ele>72.716918945312</ele>
        <time>2011-03-27T08:14:14Z</time>
      </trkpt>
      <trkpt lat="48.4035" lon="2.58467">
        <ele>73.197631835938</ele>
        <time>2011-03-27T08:14:21Z</time>
      </trkpt>
      <trkpt lat="48.40368" lon="2.5848">
        <ele>73.67822265625</ele>
        <time>2011-03-27T08:14:24Z</time>
      </trkpt>
      <trkpt lat="48.40406" lon="2.5851">
        <ele>73.197631835938</ele>
        <time>2011-03-27T08:14:31Z</time>
      </trkpt>
      <trkpt lat="48.4044" lon="2.5853">
        <ele>73.197631835938</ele>
        <time>2011-03-27T08:14:37Z</time>
      </trkpt>
      <trkpt lat="48.40457" lon="2.58533">
        <ele>73.197631835938</ele>
        <time>2011-03-27T08:14:40Z</time>
      </trkpt>
      <trkpt lat="48.40481" lon="2.58533">
        <ele>74.158813476562</ele>
        <time>2011-03-27T08:14:44Z</time>
      </trkpt>
      <trkpt lat="48.40507" lon="2.58544">
        <ele>73.197631835938</ele>
        <time>2011-03-27T08:14:49Z</time>
      </trkpt>
      <trkpt lat="48.40522" lon="2.58556">
        <ele>73.67822265625</ele>
        <time>2011-03-27T08:14:52Z</time>
      </trkpt>
      <trkpt lat="48.40525" lon="2.58584">
        <ele>73.67822265625</ele>
        <time>2011-03-27T08:14:56Z</time>
      </trkpt>
      <trkpt lat="48.40519" lon="2.58606">
        <ele>74.158813476562</ele>
        <time>2011-03-27T08:14:59Z</time>
      </trkpt>
      <trkpt lat="48.40512" lon="2.58647">
        <ele>75.120239257812</ele>
        <time>2011-03-27T08:15:05Z</time>
      </trkpt>
      <trkpt lat="48.40513" lon="2.58655">
        <ele>75.120239257812</ele>
        <time>2011-03-27T08:15:06Z</time>
      </trkpt>
      <trkpt lat="48.40518" lon="2.5871">
        <ele>76.081420898438</ele>
        <time>2011-03-27T08:15:14Z</time>
      </trkpt>
      <trkpt lat="48.40518" lon="2.58738">
        <ele>76.562133789062</ele>
        <time>2011-03-27T08:15:18Z</time>
      </trkpt>
      <trkpt lat="48.40514" lon="2.5876">
        <ele>76.562133789062</ele>
        <time>2011-03-27T08:15:21Z</time>
      </trkpt>
      <trkpt lat="48.40498" lon="2.58804">
        <ele>77.042846679688</ele>
        <time>2011-03-27T08:15:28Z</time>
      </trkpt>
      <trkpt lat="48.40492" lon="2.58834">
        <ele>78.004028320312</ele>
        <time>2011-03-27T08:15:33Z</time>
      </trkpt>
      <trkpt lat="48.40495" lon="2.58856">
        <ele>78.965454101562</ele>
        <time>2011-03-27T08:15:37Z</time>
      </trkpt>
      <trkpt lat="48.40495" lon="2.58881">
        <ele>80.407470703125</ele>
        <time>2011-03-27T08:15:41Z</time>
      </trkpt>
      <trkpt lat="48.4049" lon="2.58921">
        <ele>81.849365234375</ele>
        <time>2011-03-27T08:15:48Z</time>
      </trkpt>
      <trkpt lat="48.4049" lon="2.58925">
        <ele>81.368774414062</ele>
        <time>2011-03-27T08:15:49Z</time>
      </trkpt>
      <trkpt lat="48.40505" lon="2.58936">
        <ele>83.291381835938</ele>
        <time>2011-03-27T08:15:55Z</time>
      </trkpt>
      <trkpt lat="48.40522" lon="2.58947">
        <ele>85.213989257812</ele>
        <time>2011-03-27T08:16:02Z</time>
      </trkpt>
      <trkpt lat="48.40533" lon="2.58962">
        <ele>85.694580078125</ele>
        <time>2011-03-27T08:16:08Z</time>
      </trkpt>
      <trkpt lat="48.40543" lon="2.58979">
        <ele>87.136596679688</ele>
        <time>2011-03-27T08:16:14Z</time>
      </trkpt>
      <trkpt lat="48.40545" lon="2.58985">
        <ele>88.098022460938</ele>
        <time>2011-03-27T08:16:16Z</time>
      </trkpt>
      <trkpt lat="48.40559" lon="2.59001">
        <ele>88.578735351562</ele>
        <time>2011-03-27T08:16:23Z</time>
      </trkpt>
      <trkpt lat="48.40575" lon="2.59002">
        <ele>89.539916992188</ele>
        <time>2011-03-27T08:16:29Z</time>
      </trkpt>
      <trkpt lat="48.40593" lon="2.58998">
        <ele>91.462524414062</ele>
        <time>2011-03-27T08:16:37Z</time>
      </trkpt>
      <trkpt lat="48.40603" lon="2.59002">
        <ele>93.865844726562</ele>
        <time>2011-03-27T08:16:43Z</time>
      </trkpt>
      <trkpt lat="48.40616" lon="2.59014">
        <ele>96.269287109375</ele>
        <time>2011-03-27T08:16:51Z</time>
      </trkpt>
      <trkpt lat="48.40623" lon="2.59033">
        <ele>98.19189453125</ele>
        <time>2011-03-27T08:16:58Z</time>
      </trkpt>
      <trkpt lat="48.40628" lon="2.59055">
        <ele>101.07568359375</ele>
        <time>2011-03-27T08:17:05Z</time>
      </trkpt>
      <trkpt lat="48.40629" lon="2.59058">
        <ele>101.07568359375</ele>
        <time>2011-03-27T08:17:06Z</time>
      </trkpt>
      <trkpt lat="48.40627" lon="2.5908">
        <ele>102.51770019531</ele>
        <time>2011-03-27T08:17:13Z</time>
      </trkpt>
      <trkpt lat="48.40625" lon="2.59103">
        <ele>103.47900390625</ele>
        <time>2011-03-27T08:17:19Z</time>
      </trkpt>
      <trkpt lat="48.40621" lon="2.5912">
        <ele>104.92102050781</ele>
        <time>2011-03-27T08:17:26Z</time>
      </trkpt>
      <trkpt lat="48.40617" lon="2.59146">
        <ele>106.84362792969</ele>
        <time>2011-03-27T08:17:36Z</time>
      </trkpt>
      <trkpt lat="48.40619" lon="2.59162">
        <ele>108.28564453125</ele>
        <time>2011-03-27T08:17:43Z</time>
      </trkpt>
      <trkpt lat="48.40625" lon="2.59183">
        <ele>110.20825195312</ele>
        <time>2011-03-27T08:17:52Z</time>
      </trkpt>
      <trkpt lat="48.40636" lon="2.59197">
        <ele>112.13098144531</ele>
        <time>2011-03-27T08:18:00Z</time>
      </trkpt>
      <trkpt lat="48.40645" lon="2.59201">
        <ele>114.05358886719</ele>
        <time>2011-03-27T08:18:06Z</time>
      </trkpt>
      <trkpt lat="48.40653" lon="2.59203">
        <ele>115.49560546875</ele>
        <time>2011-03-27T08:18:11Z</time>
      </trkpt>
      <trkpt lat="48.40663" lon="2.59218">
        <ele>115.49560546875</ele>
        <time>2011-03-27T08:18:16Z</time>
      </trkpt>
      <trkpt lat="48.40666" lon="2.59222">
        <ele>115.49560546875</ele>
        <time>2011-03-27T08:18:17Z</time>
      </trkpt>
      <trkpt lat="48.40685" lon="2.59218">
        <ele>111.65026855469</ele>
        <time>2011-03-27T08:18:21Z</time>
      </trkpt>
      <trkpt lat="48.40707" lon="2.59191">
        <ele>108.28564453125</ele>
        <time>2011-03-27T08:18:25Z</time>
      </trkpt>
      <trkpt lat="48.40722" lon="2.59187">
        <ele>104.92102050781</ele>
        <time>2011-03-27T08:18:29Z</time>
      </trkpt>
      <trkpt lat="48.40723" lon="2.59219">
        <ele>102.037109375</ele>
        <time>2011-03-27T08:18:32Z</time>
      </trkpt>
      <trkpt lat="48.40725" lon="2.59243">
        <ele>101.07568359375</ele>
        <time>2011-03-27T08:18:34Z</time>
      </trkpt>
      <trkpt lat="48.40731" lon="2.59261">
        <ele>99.153076171875</ele>
        <time>2011-03-27T08:18:36Z</time>
      </trkpt>
      <trkpt lat="48.40751" lon="2.59279">
        <ele>96.269287109375</ele>
        <time>2011-03-27T08:18:39Z</time>
      </trkpt>
      <trkpt lat="48.40779" lon="2.59279">
        <ele>93.385131835938</ele>
        <time>2011-03-27T08:18:42Z</time>
      </trkpt>
      <trkpt lat="48.408" lon="2.59272">
        <ele>90.501342773438</ele>
        <time>2011-03-27T08:18:44Z</time>
      </trkpt>
      <trkpt lat="48.40812" lon="2.59265">
        <ele>89.059326171875</ele>
        <time>2011-03-27T08:18:45Z</time>
      </trkpt>
      <trkpt lat="48.40868" lon="2.59233">
        <ele>84.252685546875</ele>
        <time>2011-03-27T08:18:50Z</time>
      </trkpt>
      <trkpt lat="48.40891" lon="2.59221">
        <ele>82.810791015625</ele>
        <time>2011-03-27T08:18:52Z</time>
      </trkpt>
      <trkpt lat="48.40911" lon="2.59206">
        <ele>79.446044921875</ele>
        <time>2011-03-27T08:18:54Z</time>
      </trkpt>
      <trkpt lat="48.40949" lon="2.59191">
        <ele>76.562133789062</ele>
        <time>2011-03-27T08:18:58Z</time>
      </trkpt>
      <trkpt lat="48.40968" lon="2.59185">
        <ele>77.042846679688</ele>
        <time>2011-03-27T08:19:00Z</time>
      </trkpt>
      <trkpt lat="48.40988" lon="2.59196">
        <ele>73.67822265625</ele>
        <time>2011-03-27T08:19:04Z</time>
      </trkpt>
      <trkpt lat="48.40987" lon="2.59221">
        <ele>73.67822265625</ele>
        <time>2011-03-27T08:19:07Z</time>
      </trkpt>
      <trkpt lat="48.40985" lon="2.59231">
        <ele>73.67822265625</ele>
        <time>2011-03-27T08:19:08Z</time>
      </trkpt>
      <trkpt lat="48.40983" lon="2.59289">
        <ele>73.67822265625</ele>
        <time>2011-03-27T08:19:15Z</time>
      </trkpt>
      <trkpt lat="48.40979" lon="2.59333">
        <ele>74.639526367188</ele>
        <time>2011-03-27T08:19:21Z</time>
      </trkpt>
      <trkpt lat="48.40977" lon="2.59348">
        <ele>74.158813476562</ele>
        <time>2011-03-27T08:19:23Z</time>
      </trkpt>
      <trkpt lat="48.40973" lon="2.59402">
        <ele>74.639526367188</ele>
        <time>2011-03-27T08:19:30Z</time>
      </trkpt>
      <trkpt lat="48.40968" lon="2.59463">
        <ele>73.197631835938</ele>
        <time>2011-03-27T08:19:37Z</time>
      </trkpt>
      <trkpt lat="48.40965" lon="2.59513">
        <ele>73.197631835938</ele>
        <time>2011-03-27T08:19:43Z</time>
      </trkpt>
      <trkpt lat="48.40963" lon="2.59546">
        <ele>73.197631835938</ele>
        <time>2011-03-27T08:19:47Z</time>
      </trkpt>
      <trkpt lat="48.40969" lon="2.59582">
        <ele>73.67822265625</ele>
        <time>2011-03-27T08:19:52Z</time>
      </trkpt>
      <trkpt lat="48.40973" lon="2.59587">
        <ele>73.67822265625</ele>
        <time>2011-03-27T08:19:53Z</time>
      </trkpt>
      <trkpt lat="48.40992" lon="2.59622">
        <ele>73.197631835938</ele>
        <time>2011-03-27T08:19:59Z</time>
      </trkpt>
      <trkpt lat="48.41008" lon="2.59651">
        <ele>73.67822265625</ele>
        <time>2011-03-27T08:20:04Z</time>
      </trkpt>
      <trkpt lat="48.41034" lon="2.597">
        <ele>72.716918945312</ele>
        <time>2011-03-27T08:20:12Z</time>
      </trkpt>
      <trkpt lat="48.41046" lon="2.59723">
        <ele>73.197631835938</ele>
        <time>2011-03-27T08:20:16Z</time>
      </trkpt>
      <trkpt lat="48.41071" lon="2.59769">
        <ele>72.716918945312</ele>
        <time>2011-03-27T08:20:24Z</time>
      </trkpt>
      <trkpt lat="48.41088" lon="2.59802">
        <ele>73.67822265625</ele>
        <time>2011-03-27T08:20:30Z</time>
      </trkpt>
      <trkpt lat="48.41094" lon="2.5982">
        <ele>73.197631835938</ele>
        <time>2011-03-27T08:20:34Z</time>
      </trkpt>
      <trkpt lat="48.41104" lon="2.59833">
        <ele>74.158813476562</ele>
        <time>2011-03-27T08:20:39Z</time>
      </trkpt>
      <trkpt lat="48.41113" lon="2.59844">
        <ele>75.120239257812</ele>
        <time>2011-03-27T08:20:45Z</time>
      </trkpt>
      <trkpt lat="48.41119" lon="2.59853">
        <ele>74.639526367188</ele>
        <time>2011-03-27T08:20:51Z</time>
      </trkpt>
      <trkpt lat="48.41119" lon="2.59853">
        <ele>74.639526367188</ele>
        <time>2011-03-27T08:20:52Z</time>
      </trkpt>
      <trkpt lat="48.41119" lon="2.59854">
        <ele>75.120239257812</ele>
        <time>2011-03-27T08:20:55Z</time>
      </trkpt>
      <trkpt lat="48.4112" lon="2.5986">
        <ele>75.120239257812</ele>
        <time>2011-03-27T08:20:58Z</time>
      </trkpt>
      <trkpt lat="48.4112" lon="2.59864">
        <ele>74.639526367188</ele>
        <time>2011-03-27T08:21:01Z</time>
      </trkpt>
      <trkpt lat="48.41117" lon="2.59869">
        <ele>75.600830078125</ele>
        <time>2011-03-27T08:21:06Z</time>
      </trkpt>
      <trkpt lat="48.41119" lon="2.5987">
        <ele>72.716918945312</ele>
        <time>2011-03-27T08:21:23Z</time>
      </trkpt>
      <trkpt lat="48.41119" lon="2.59862">
        <ele>73.67822265625</ele>
        <time>2011-03-27T08:21:29Z</time>
      </trkpt>
      <trkpt lat="48.41119" lon="2.59861">
        <ele>74.158813476562</ele>
        <time>2011-03-27T08:21:32Z</time>
      </trkpt>
      <trkpt lat="48.41118" lon="2.59859">
        <ele>73.67822265625</ele>
        <time>2011-03-27T08:21:34Z</time>
      </trkpt>
      <trkpt lat="48.41119" lon="2.59859">
        <ele>74.639526367188</ele>
        <time>2011-03-27T08:21:38Z</time>
      </trkpt>
      <trkpt lat="48.41119" lon="2.59856">
        <ele>74.158813476562</ele>
        <time>2011-03-27T08:21:40Z</time>
      </trkpt>
      <trkpt lat="48.4112" lon="2.59855">
        <ele>75.120239257812</ele>
        <time>2011-03-27T08:22:12Z</time>
      </trkpt>
      <trkpt lat="48.41121" lon="2.59855">
        <ele>75.600830078125</ele>
        <time>2011-03-27T08:22:14Z</time>
      </trkpt>
      <trkpt lat="48.4112" lon="2.59856">
        <ele>75.120239257812</ele>
        <time>2011-03-27T08:22:26Z</time>
      </trkpt>
      <trkpt lat="48.41121" lon="2.59855">
        <ele>75.600830078125</ele>
        <time>2011-03-27T08:22:27Z</time>
      </trkpt>
      <trkpt lat="48.41113" lon="2.59863">
        <ele>76.081420898438</ele>
        <time>2011-03-27T08:22:54Z</time>
      </trkpt>
      <trkpt lat="48.41112" lon="2.59866">
        <ele>75.120239257812</ele>
        <time>2011-03-27T08:22:58Z</time>
      </trkpt>
      <trkpt lat="48.41112" lon="2.5986">
        <ele>76.081420898438</ele>
        <time>2011-03-27T08:23:11Z</time>
      </trkpt>
      <trkpt lat="48.41112" lon="2.59859">
        <ele>75.600830078125</ele>
        <time>2011-03-27T08:23:12Z</time>
      </trkpt>
      <trkpt lat="48.41112" lon="2.59848">
        <ele>75.120239257812</ele>
        <time>2011-03-27T08:23:23Z</time>
      </trkpt>
      <trkpt lat="48.41113" lon="2.59849">
        <ele>75.120239257812</ele>
        <time>2011-03-27T08:23:24Z</time>
      </trkpt>
      <trkpt lat="48.41113" lon="2.59848">
        <ele>76.081420898438</ele>
        <time>2011-03-27T08:23:49Z</time>
      </trkpt>
      <trkpt lat="48.41113" lon="2.59848">
        <ele>76.081420898438</ele>
        <time>2011-03-27T08:23:50Z</time>
      </trkpt>
      <trkpt lat="48.41111" lon="2.59848">
        <ele>76.081420898438</ele>
        <time>2011-03-27T08:23:53Z</time>
      </trkpt>
      <trkpt lat="48.41109" lon="2.59849">
        <ele>76.081420898438</ele>
        <time>2011-03-27T08:23:54Z</time>
      </trkpt>
      <trkpt lat="48.41109" lon="2.5985">
        <ele>76.081420898438</ele>
        <time>2011-03-27T08:23:55Z</time>
      </trkpt>
      <trkpt lat="48.41106" lon="2.59852">
        <ele>76.081420898438</ele>
        <time>2011-03-27T08:24:54Z</time>
      </trkpt>
      <trkpt lat="48.41111" lon="2.59857">
        <ele>76.081420898438</ele>
        <time>2011-03-27T08:25:01Z</time>
      </trkpt>
      <trkpt lat="48.41108" lon="2.59853">
        <ele>77.5234375</ele>
        <time>2011-03-27T08:25:21Z</time>
      </trkpt>
      <trkpt lat="48.41107" lon="2.59851">
        <ele>77.042846679688</ele>
        <time>2011-03-27T08:25:22Z</time>
      </trkpt>
      <trkpt lat="48.41108" lon="2.59851">
        <ele>77.042846679688</ele>
        <time>2011-03-27T08:25:25Z</time>
      </trkpt>
      <trkpt lat="48.41112" lon="2.59853">
        <ele>77.042846679688</ele>
        <time>2011-03-27T08:25:26Z</time>
      </trkpt>
      <trkpt lat="48.41113" lon="2.59852">
        <ele>76.562133789062</ele>
        <time>2011-03-27T08:25:27Z</time>
      </trkpt>
      <trkpt lat="48.41109" lon="2.59854">
        <ele>76.081420898438</ele>
        <time>2011-03-27T08:25:32Z</time>
      </trkpt>
      <trkpt lat="48.4111" lon="2.59857">
        <ele>76.562133789062</ele>
        <time>2011-03-27T08:25:35Z</time>
      </trkpt>
      <trkpt lat="48.41113" lon="2.59864">
        <ele>77.042846679688</ele>
        <time>2011-03-27T08:25:50Z</time>
      </trkpt>
      <trkpt lat="48.41112" lon="2.59867">
        <ele>76.562133789062</ele>
        <time>2011-03-27T08:25:52Z</time>
      </trkpt>
      <trkpt lat="48.41116" lon="2.59866">
        <ele>77.042846679688</ele>
        <time>2011-03-27T08:25:59Z</time>
      </trkpt>
      <trkpt lat="48.41117" lon="2.59865">
        <ele>76.081420898438</ele>
        <time>2011-03-27T08:26:00Z</time>
      </trkpt>
      <trkpt lat="48.41119" lon="2.59862">
        <ele>77.042846679688</ele>
        <time>2011-03-27T08:26:06Z</time>
      </trkpt>
      <trkpt lat="48.41117" lon="2.59862">
        <ele>77.042846679688</ele>
        <time>2011-03-27T08:26:07Z</time>
      </trkpt>
      <trkpt lat="48.41111" lon="2.59861">
        <ele>76.562133789062</ele>
        <time>2011-03-27T08:26:44Z</time>
      </trkpt>
      <trkpt lat="48.4111" lon="2.59864">
        <ele>77.5234375</ele>
        <time>2011-03-27T08:26:47Z</time>
      </trkpt>
      <trkpt lat="48.41108" lon="2.59866">
        <ele>77.5234375</ele>
        <time>2011-03-27T08:26:50Z</time>
      </trkpt>
      <trkpt lat="48.41107" lon="2.59866">
        <ele>78.004028320312</ele>
        <time>2011-03-27T08:26:51Z</time>
      </trkpt>
      <trkpt lat="48.41107" lon="2.59867">
        <ele>78.484741210938</ele>
        <time>2011-03-27T08:26:52Z</time>
      </trkpt>
      <trkpt lat="48.41105" lon="2.5986">
        <ele>78.004028320312</ele>
        <time>2011-03-27T08:27:01Z</time>
      </trkpt>
      <trkpt lat="48.41104" lon="2.59859">
        <ele>78.004028320312</ele>
        <time>2011-03-27T08:27:02Z</time>
      </trkpt>
      <trkpt lat="48.41103" lon="2.59859">
        <ele>78.004028320312</ele>
        <time>2011-03-27T08:27:05Z</time>
      </trkpt>
      <trkpt lat="48.41103" lon="2.59858">
        <ele>78.004028320312</ele>
        <time>2011-03-27T08:27:06Z</time>
      </trkpt>
      <trkpt lat="48.41103" lon="2.59856">
        <ele>77.042846679688</ele>
        <time>2011-03-27T08:27:17Z</time>
      </trkpt>
      <trkpt lat="48.41104" lon="2.59863">
        <ele>76.562133789062</ele>
        <time>2011-03-27T08:27:19Z</time>
      </trkpt>
      <trkpt lat="48.41113" lon="2.5986">
        <ele>75.600830078125</ele>
        <time>2011-03-27T08:27:45Z</time>
      </trkpt>
      <trkpt lat="48.41115" lon="2.59861">
        <ele>76.081420898438</ele>
        <time>2011-03-27T08:27:46Z</time>
      </trkpt>
      <trkpt lat="48.41113" lon="2.59858">
        <ele>75.600830078125</ele>
        <time>2011-03-27T08:27:54Z</time>
      </trkpt>
      <trkpt lat="48.41112" lon="2.59858">
        <ele>76.081420898438</ele>
        <time>2011-03-27T08:27:55Z</time>
      </trkpt>
      <trkpt lat="48.41112" lon="2.59859">
        <ele>75.600830078125</ele>
        <time>2011-03-27T08:28:06Z</time>
      </trkpt>
      <trkpt lat="48.41113" lon="2.5986">
        <ele>76.081420898438</ele>
        <time>2011-03-27T08:28:07Z</time>
      </trkpt>
      <trkpt lat="48.41111" lon="2.59863">
        <ele>76.562133789062</ele>
        <time>2011-03-27T08:28:19Z</time>
      </trkpt>
      <trkpt lat="48.41114" lon="2.5986">
        <ele>76.081420898438</ele>
        <time>2011-03-27T08:28:22Z</time>
      </trkpt>
      <trkpt lat="48.41113" lon="2.59857">
        <ele>77.042846679688</ele>
        <time>2011-03-27T08:28:41Z</time>
      </trkpt>
      <trkpt lat="48.41111" lon="2.5986">
        <ele>77.042846679688</ele>
        <time>2011-03-27T08:28:42Z</time>
      </trkpt>
      <trkpt lat="48.41113" lon="2.59854">
        <ele>76.562133789062</ele>
        <time>2011-03-27T08:28:50Z</time>
      </trkpt>
      <trkpt lat="48.4111" lon="2.59854">
        <ele>76.081420898438</ele>
        <time>2011-03-27T08:28:52Z</time>
      </trkpt>
      <trkpt lat="48.4111" lon="2.59854">
        <ele>76.562133789062</ele>
        <time>2011-03-27T08:28:55Z</time>
      </trkpt>
      <trkpt lat="48.41111" lon="2.59857">
        <ele>76.081420898438</ele>
        <time>2011-03-27T08:28:56Z</time>
      </trkpt>
      <trkpt lat="48.4111" lon="2.59859">
        <ele>77.042846679688</ele>
        <time>2011-03-27T08:28:57Z</time>
      </trkpt>
      <trkpt lat="48.41112" lon="2.59868">
        <ele>77.042846679688</ele>
        <time>2011-03-27T08:29:03Z</time>
      </trkpt>
      <trkpt lat="48.41114" lon="2.59872">
        <ele>78.004028320312</ele>
        <time>2011-03-27T08:29:05Z</time>
      </trkpt>
      <trkpt lat="48.41114" lon="2.59874">
        <ele>77.5234375</ele>
        <time>2011-03-27T08:29:08Z</time>
      </trkpt>
      <trkpt lat="48.41115" lon="2.59871">
        <ele>77.5234375</ele>
        <time>2011-03-27T08:29:09Z</time>
      </trkpt>
      <trkpt lat="48.41116" lon="2.59872">
        <ele>77.5234375</ele>
        <time>2011-03-27T08:29:12Z</time>
      </trkpt>
      <trkpt lat="48.41117" lon="2.59872">
        <ele>78.004028320312</ele>
        <time>2011-03-27T08:29:13Z</time>
      </trkpt>
      <trkpt lat="48.41116" lon="2.59871">
        <ele>76.562133789062</ele>
        <time>2011-03-27T08:29:14Z</time>
      </trkpt>
      <trkpt lat="48.41116" lon="2.59871">
        <ele>77.042846679688</ele>
        <time>2011-03-27T08:29:17Z</time>
      </trkpt>
      <trkpt lat="48.4112" lon="2.59872">
        <ele>77.042846679688</ele>
        <time>2011-03-27T08:29:21Z</time>
      </trkpt>
      <trkpt lat="48.41125" lon="2.59874">
        <ele>78.004028320312</ele>
        <time>2011-03-27T08:29:27Z</time>
      </trkpt>
      <trkpt lat="48.41125" lon="2.59874">
        <ele>79.926635742188</ele>
        <time>2011-03-27T08:29:28Z</time>
      </trkpt>
      <trkpt lat="48.41128" lon="2.59881">
        <ele>78.004028320312</ele>
        <time>2011-03-27T08:30:26Z</time>
      </trkpt>
      <trkpt lat="48.41125" lon="2.59881">
        <ele>78.004028320312</ele>
        <time>2011-03-27T08:30:27Z</time>
      </trkpt>
      <trkpt lat="48.41126" lon="2.59889">
        <ele>77.5234375</ele>
        <time>2011-03-27T08:30:59Z</time>
      </trkpt>
      <trkpt lat="48.41127" lon="2.59888">
        <ele>78.004028320312</ele>
        <time>2011-03-27T08:31:00Z</time>
      </trkpt>
      <trkpt lat="48.41128" lon="2.59883">
        <ele>78.004028320312</ele>
        <time>2011-03-27T08:31:18Z</time>
      </trkpt>
      <trkpt lat="48.41128" lon="2.59882">
        <ele>78.484741210938</ele>
        <time>2011-03-27T08:31:19Z</time>
      </trkpt>
      <trkpt lat="48.41127" lon="2.59881">
        <ele>78.484741210938</ele>
        <time>2011-03-27T08:31:25Z</time>
      </trkpt>
      <trkpt lat="48.41128" lon="2.59882">
        <ele>77.5234375</ele>
        <time>2011-03-27T08:31:29Z</time>
      </trkpt>
      <trkpt lat="48.41129" lon="2.5988">
        <ele>77.5234375</ele>
        <time>2011-03-27T08:31:45Z</time>
      </trkpt>
      <trkpt lat="48.41131" lon="2.59883">
        <ele>77.5234375</ele>
        <time>2011-03-27T08:31:46Z</time>
      </trkpt>
      <trkpt lat="48.41132" lon="2.59883">
        <ele>77.5234375</ele>
        <time>2011-03-27T08:31:49Z</time>
      </trkpt>
      <trkpt lat="48.41134" lon="2.59883">
        <ele>77.042846679688</ele>
        <time>2011-03-27T08:31:51Z</time>
      </trkpt>
      <trkpt lat="48.4114" lon="2.59893">
        <ele>77.042846679688</ele>
        <time>2011-03-27T08:31:57Z</time>
      </trkpt>
      <trkpt lat="48.41151" lon="2.59914">
        <ele>77.5234375</ele>
        <time>2011-03-27T08:32:03Z</time>
      </trkpt>
      <trkpt lat="48.41167" lon="2.59941">
        <ele>77.042846679688</ele>
        <time>2011-03-27T08:32:09Z</time>
      </trkpt>
      <trkpt lat="48.41184" lon="2.59972">
        <ele>77.042846679688</ele>
        <time>2011-03-27T08:32:15Z</time>
      </trkpt>
      <trkpt lat="48.41195" lon="2.59993">
        <ele>77.042846679688</ele>
        <time>2011-03-27T08:32:20Z</time>
      </trkpt>
      <trkpt lat="48.4121" lon="2.60021">
        <ele>77.042846679688</ele>
        <time>2011-03-27T08:32:27Z</time>
      </trkpt>
      <trkpt lat="48.41226" lon="2.60052">
        <ele>78.004028320312</ele>
        <time>2011-03-27T08:32:34Z</time>
      </trkpt>
      <trkpt lat="48.41247" lon="2.60088">
        <ele>77.5234375</ele>
        <time>2011-03-27T08:32:42Z</time>
      </trkpt>
      <trkpt lat="48.4127" lon="2.60131">
        <ele>77.042846679688</ele>
        <time>2011-03-27T08:32:51Z</time>
      </trkpt>
      <trkpt lat="48.4129" lon="2.60167">
        <ele>76.562133789062</ele>
        <time>2011-03-27T08:32:59Z</time>
      </trkpt>
      <trkpt lat="48.41308" lon="2.60199">
        <ele>77.5234375</ele>
        <time>2011-03-27T08:33:06Z</time>
      </trkpt>
      <trkpt lat="48.41326" lon="2.60232">
        <ele>77.042846679688</ele>
        <time>2011-03-27T08:33:13Z</time>
      </trkpt>
      <trkpt lat="48.41343" lon="2.60264">
        <ele>77.042846679688</ele>
        <time>2011-03-27T08:33:20Z</time>
      </trkpt>
      <trkpt lat="48.41364" lon="2.60302">
        <ele>77.042846679688</ele>
        <time>2011-03-27T08:33:28Z</time>
      </trkpt>
      <trkpt lat="48.41384" lon="2.60337">
        <ele>77.042846679688</ele>
        <time>2011-03-27T08:33:35Z</time>
      </trkpt>
      <trkpt lat="48.41404" lon="2.60373">
        <ele>77.042846679688</ele>
        <time>2011-03-27T08:33:42Z</time>
      </trkpt>
      <trkpt lat="48.41415" lon="2.60393">
        <ele>77.5234375</ele>
        <time>2011-03-27T08:33:46Z</time>
      </trkpt>
      <trkpt lat="48.41424" lon="2.60409">
        <ele>77.042846679688</ele>
        <time>2011-03-27T08:33:49Z</time>
      </trkpt>
      <trkpt lat="48.41443" lon="2.60439">
        <ele>78.004028320312</ele>
        <time>2011-03-27T08:33:55Z</time>
      </trkpt>
      <trkpt lat="48.41463" lon="2.60475">
        <ele>78.004028320312</ele>
        <time>2011-03-27T08:34:02Z</time>
      </trkpt>
      <trkpt lat="48.41479" lon="2.60507">
        <ele>78.484741210938</ele>
        <time>2011-03-27T08:34:08Z</time>
      </trkpt>
      <trkpt lat="48.41496" lon="2.60537">
        <ele>78.965454101562</ele>
        <time>2011-03-27T08:34:14Z</time>
      </trkpt>
      <trkpt lat="48.41521" lon="2.60582">
        <ele>79.446044921875</ele>
        <time>2011-03-27T08:34:23Z</time>
      </trkpt>
      <trkpt lat="48.41544" lon="2.60625">
        <ele>79.926635742188</ele>
        <time>2011-03-27T08:34:32Z</time>
      </trkpt>
      <trkpt lat="48.41559" lon="2.60652">
        <ele>79.926635742188</ele>
        <time>2011-03-27T08:34:38Z</time>
      </trkpt>
      <trkpt lat="48.41579" lon="2.6069">
        <ele>79.926635742188</ele>
        <time>2011-03-27T08:34:46Z</time>
      </trkpt>
      <trkpt lat="48.416" lon="2.60726">
        <ele>80.88818359375</ele>
        <time>2011-03-27T08:34:54Z</time>
      </trkpt>
      <trkpt lat="48.41619" lon="2.60764">
        <ele>81.849365234375</ele>
        <time>2011-03-27T08:35:02Z</time>
      </trkpt>
      <trkpt lat="48.41625" lon="2.6079">
        <ele>81.849365234375</ele>
        <time>2011-03-27T08:35:07Z</time>
      </trkpt>
      <trkpt lat="48.41628" lon="2.60816">
        <ele>81.849365234375</ele>
        <time>2011-03-27T08:35:12Z</time>
      </trkpt>
      <trkpt lat="48.41633" lon="2.60855">
        <ele>82.330078125</ele>
        <time>2011-03-27T08:35:19Z</time>
      </trkpt>
      <trkpt lat="48.41638" lon="2.60888">
        <ele>83.291381835938</ele>
        <time>2011-03-27T08:35:26Z</time>
      </trkpt>
      <trkpt lat="48.41642" lon="2.60922">
        <ele>84.252685546875</ele>
        <time>2011-03-27T08:35:34Z</time>
      </trkpt>
      <trkpt lat="48.41645" lon="2.60949">
        <ele>85.694580078125</ele>
        <time>2011-03-27T08:35:41Z</time>
      </trkpt>
      <trkpt lat="48.41649" lon="2.60979">
        <ele>86.17529296875</ele>
        <time>2011-03-27T08:35:49Z</time>
      </trkpt>
      <trkpt lat="48.41652" lon="2.61006">
        <ele>86.656005859375</ele>
        <time>2011-03-27T08:35:56Z</time>
      </trkpt>
      <trkpt lat="48.41657" lon="2.61038">
        <ele>89.539916992188</ele>
        <time>2011-03-27T08:36:05Z</time>
      </trkpt>
      <trkpt lat="48.41659" lon="2.61059">
        <ele>90.98193359375</ele>
        <time>2011-03-27T08:36:12Z</time>
      </trkpt>
      <trkpt lat="48.4166" lon="2.61062">
        <ele>91.462524414062</ele>
        <time>2011-03-27T08:36:13Z</time>
      </trkpt>
      <trkpt lat="48.41663" lon="2.61087">
        <ele>93.385131835938</ele>
        <time>2011-03-27T08:36:21Z</time>
      </trkpt>
      <trkpt lat="48.41663" lon="2.6111">
        <ele>95.307739257812</ele>
        <time>2011-03-27T08:36:28Z</time>
      </trkpt>
      <trkpt lat="48.41664" lon="2.61133">
        <ele>95.788452148438</ele>
        <time>2011-03-27T08:36:34Z</time>
      </trkpt>
      <trkpt lat="48.41664" lon="2.61168">
        <ele>96.269287109375</ele>
        <time>2011-03-27T08:36:41Z</time>
      </trkpt>
      <trkpt lat="48.41665" lon="2.61206">
        <ele>94.346557617188</ele>
        <time>2011-03-27T08:36:48Z</time>
      </trkpt>
      <trkpt lat="48.41667" lon="2.61244">
        <ele>94.346557617188</ele>
        <time>2011-03-27T08:36:54Z</time>
      </trkpt>
      <trkpt lat="48.41668" lon="2.61294">
        <ele>92.423950195312</ele>
        <time>2011-03-27T08:37:01Z</time>
      </trkpt>
      <trkpt lat="48.41668" lon="2.61301">
        <ele>92.904541015625</ele>
        <time>2011-03-27T08:37:02Z</time>
      </trkpt>
      <trkpt lat="48.41667" lon="2.61332">
        <ele>92.423950195312</ele>
        <time>2011-03-27T08:37:06Z</time>
      </trkpt>
      <trkpt lat="48.41665" lon="2.61388">
        <ele>91.462524414062</ele>
        <time>2011-03-27T08:37:14Z</time>
      </trkpt>
      <trkpt lat="48.41664" lon="2.61403">
        <ele>91.943237304688</ele>
        <time>2011-03-27T08:37:16Z</time>
      </trkpt>
      <trkpt lat="48.41662" lon="2.61447">
        <ele>91.943237304688</ele>
        <time>2011-03-27T08:37:22Z</time>
      </trkpt>
      <trkpt lat="48.41661" lon="2.6146">
        <ele>90.98193359375</ele>
        <time>2011-03-27T08:37:24Z</time>
      </trkpt>
      <trkpt lat="48.41657" lon="2.61516">
        <ele>90.98193359375</ele>
        <time>2011-03-27T08:37:32Z</time>
      </trkpt>
      <trkpt lat="48.41654" lon="2.61556">
        <ele>91.943237304688</ele>
        <time>2011-03-27T08:37:38Z</time>
      </trkpt>
      <trkpt lat="48.41653" lon="2.61563">
        <ele>92.423950195312</ele>
        <time>2011-03-27T08:37:39Z</time>
      </trkpt>
      <trkpt lat="48.4165" lon="2.6161">
        <ele>92.904541015625</ele>
        <time>2011-03-27T08:37:47Z</time>
      </trkpt>
      <trkpt lat="48.41647" lon="2.61636">
        <ele>94.346557617188</ele>
        <time>2011-03-27T08:37:52Z</time>
      </trkpt>
      <trkpt lat="48.41645" lon="2.61661">
        <ele>94.346557617188</ele>
        <time>2011-03-27T08:37:57Z</time>
      </trkpt>
      <trkpt lat="48.41642" lon="2.61692">
        <ele>95.307739257812</ele>
        <time>2011-03-27T08:38:03Z</time>
      </trkpt>
      <trkpt lat="48.41639" lon="2.61726">
        <ele>95.307739257812</ele>
        <time>2011-03-27T08:38:09Z</time>
      </trkpt>
      <trkpt lat="48.41634" lon="2.61769">
        <ele>95.788452148438</ele>
        <time>2011-03-27T08:38:17Z</time>
      </trkpt>
      <trkpt lat="48.41631" lon="2.61803">
        <ele>97.23046875</ele>
        <time>2011-03-27T08:38:24Z</time>
      </trkpt>
      <trkpt lat="48.41629" lon="2.61835">
        <ele>98.19189453125</ele>
        <time>2011-03-27T08:38:31Z</time>
      </trkpt>
      <trkpt lat="48.41625" lon="2.61874">
        <ele>99.153076171875</ele>
        <time>2011-03-27T08:38:39Z</time>
      </trkpt>
      <trkpt lat="48.41623" lon="2.61902">
        <ele>100.11450195312</ele>
        <time>2011-03-27T08:38:45Z</time>
      </trkpt>
      <trkpt lat="48.41622" lon="2.61924">
        <ele>101.07568359375</ele>
        <time>2011-03-27T08:38:50Z</time>
      </trkpt>
      <trkpt lat="48.41619" lon="2.61953">
        <ele>101.07568359375</ele>
        <time>2011-03-27T08:38:55Z</time>
      </trkpt>
      <trkpt lat="48.41617" lon="2.61986">
        <ele>102.037109375</ele>
        <time>2011-03-27T08:39:01Z</time>
      </trkpt>
      <trkpt lat="48.41614" lon="2.62027">
        <ele>101.07568359375</ele>
        <time>2011-03-27T08:39:08Z</time>
      </trkpt>
      <trkpt lat="48.41609" lon="2.62076">
        <ele>100.59509277344</ele>
        <time>2011-03-27T08:39:16Z</time>
      </trkpt>
      <trkpt lat="48.41605" lon="2.62115">
        <ele>99.6337890625</ele>
        <time>2011-03-27T08:39:22Z</time>
      </trkpt>
      <trkpt lat="48.41602" lon="2.62157">
        <ele>100.11450195312</ele>
        <time>2011-03-27T08:39:28Z</time>
      </trkpt>
      <trkpt lat="48.41596" lon="2.62216">
        <ele>98.19189453125</ele>
        <time>2011-03-27T08:39:36Z</time>
      </trkpt>
      <trkpt lat="48.41592" lon="2.62262">
        <ele>99.153076171875</ele>
        <time>2011-03-27T08:39:42Z</time>
      </trkpt>
      <trkpt lat="48.41587" lon="2.62308">
        <ele>98.19189453125</ele>
        <time>2011-03-27T08:39:48Z</time>
      </trkpt>
      <trkpt lat="48.41582" lon="2.62375">
        <ele>97.711181640625</ele>
        <time>2011-03-27T08:39:57Z</time>
      </trkpt>
      <trkpt lat="48.41579" lon="2.62414">
        <ele>98.672485351562</ele>
        <time>2011-03-27T08:40:02Z</time>
      </trkpt>
      <trkpt lat="48.41576" lon="2.62458">
        <ele>98.672485351562</ele>
        <time>2011-03-27T08:40:08Z</time>
      </trkpt>
      <trkpt lat="48.41573" lon="2.62476">
        <ele>98.19189453125</ele>
        <time>2011-03-27T08:40:12Z</time>
      </trkpt>
      <trkpt lat="48.41577" lon="2.62491">
        <ele>97.711181640625</ele>
        <time>2011-03-27T08:40:16Z</time>
      </trkpt>
      <trkpt lat="48.41588" lon="2.62496">
        <ele>97.711181640625</ele>
        <time>2011-03-27T08:40:19Z</time>
      </trkpt>
      <trkpt lat="48.41608" lon="2.6249">
        <ele>97.23046875</ele>
        <time>2011-03-27T08:40:23Z</time>
      </trkpt>
      <trkpt lat="48.41618" lon="2.62483">
        <ele>97.23046875</ele>
        <time>2011-03-27T08:40:25Z</time>
      </trkpt>
      <trkpt lat="48.41663" lon="2.62459">
        <ele>96.269287109375</ele>
        <time>2011-03-27T08:40:33Z</time>
      </trkpt>
      <trkpt lat="48.41689" lon="2.62445">
        <ele>96.269287109375</ele>
        <time>2011-03-27T08:40:38Z</time>
      </trkpt>
      <trkpt lat="48.4171" lon="2.62432">
        <ele>95.307739257812</ele>
        <time>2011-03-27T08:40:43Z</time>
      </trkpt>
      <trkpt lat="48.4174" lon="2.62412">
        <ele>94.8271484375</ele>
        <time>2011-03-27T08:40:50Z</time>
      </trkpt>
      <trkpt lat="48.41773" lon="2.62393">
        <ele>95.307739257812</ele>
        <time>2011-03-27T08:40:57Z</time>
      </trkpt>
      <trkpt lat="48.41797" lon="2.62379">
        <ele>94.346557617188</ele>
        <time>2011-03-27T08:41:02Z</time>
      </trkpt>
      <trkpt lat="48.41819" lon="2.62369">
        <ele>94.8271484375</ele>
        <time>2011-03-27T08:41:08Z</time>
      </trkpt>
      <trkpt lat="48.41819" lon="2.62368">
        <ele>94.8271484375</ele>
        <time>2011-03-27T08:41:10Z</time>
      </trkpt>
      <trkpt lat="48.41819" lon="2.62368">
        <ele>94.8271484375</ele>
        <time>2011-03-27T08:41:16Z</time>
      </trkpt>
      <trkpt lat="48.41817" lon="2.6237">
        <ele>94.346557617188</ele>
        <time>2011-03-27T08:41:19Z</time>
      </trkpt>
      <trkpt lat="48.41813" lon="2.6237">
        <ele>92.904541015625</ele>
        <time>2011-03-27T08:42:39Z</time>
      </trkpt>
      <trkpt lat="48.41813" lon="2.62367">
        <ele>91.943237304688</ele>
        <time>2011-03-27T08:42:40Z</time>
      </trkpt>
      <trkpt lat="48.41814" lon="2.62365">
        <ele>91.462524414062</ele>
        <time>2011-03-27T08:42:43Z</time>
      </trkpt>
      <trkpt lat="48.41814" lon="2.62365">
        <ele>91.943237304688</ele>
        <time>2011-03-27T08:42:46Z</time>
      </trkpt>
      <trkpt lat="48.41821" lon="2.62361">
        <ele>92.423950195312</ele>
        <time>2011-03-27T08:42:48Z</time>
      </trkpt>
      <trkpt lat="48.41844" lon="2.62347">
        <ele>92.423950195312</ele>
        <time>2011-03-27T08:42:54Z</time>
      </trkpt>
      <trkpt lat="48.41853" lon="2.62341">
        <ele>91.462524414062</ele>
        <time>2011-03-27T08:42:56Z</time>
      </trkpt>
      <trkpt lat="48.41867" lon="2.62334">
        <ele>91.943237304688</ele>
        <time>2011-03-27T08:42:59Z</time>
      </trkpt>
      <trkpt lat="48.41877" lon="2.62327">
        <ele>91.462524414062</ele>
        <time>2011-03-27T08:43:01Z</time>
      </trkpt>
      <trkpt lat="48.41909" lon="2.62309">
        <ele>90.98193359375</ele>
        <time>2011-03-27T08:43:07Z</time>
      </trkpt>
      <trkpt lat="48.41944" lon="2.62287">
        <ele>90.020629882812</ele>
        <time>2011-03-27T08:43:13Z</time>
      </trkpt>
      <trkpt lat="48.41977" lon="2.62267">
        <ele>89.539916992188</ele>
        <time>2011-03-27T08:43:19Z</time>
      </trkpt>
      <trkpt lat="48.41987" lon="2.6226">
        <ele>89.539916992188</ele>
        <time>2011-03-27T08:43:21Z</time>
      </trkpt>
      <trkpt lat="48.42025" lon="2.62237">
        <ele>89.539916992188</ele>
        <time>2011-03-27T08:43:28Z</time>
      </trkpt>
      <trkpt lat="48.42059" lon="2.62218">
        <ele>88.098022460938</ele>
        <time>2011-03-27T08:43:34Z</time>
      </trkpt>
      <trkpt lat="48.42081" lon="2.62206">
        <ele>88.578735351562</ele>
        <time>2011-03-27T08:43:38Z</time>
      </trkpt>
      <trkpt lat="48.42107" lon="2.62192">
        <ele>88.098022460938</ele>
        <time>2011-03-27T08:43:43Z</time>
      </trkpt>
      <trkpt lat="48.42132" lon="2.62175">
        <ele>88.098022460938</ele>
        <time>2011-03-27T08:43:48Z</time>
      </trkpt>
      <trkpt lat="48.42149" lon="2.62162">
        <ele>88.578735351562</ele>
        <time>2011-03-27T08:43:52Z</time>
      </trkpt>
      <trkpt lat="48.4216" lon="2.62158">
        <ele>88.098022460938</ele>
        <time>2011-03-27T08:43:54Z</time>
      </trkpt>
      <trkpt lat="48.42186" lon="2.62142">
        <ele>90.020629882812</ele>
        <time>2011-03-27T08:44:00Z</time>
      </trkpt>
      <trkpt lat="48.42209" lon="2.6213">
        <ele>90.98193359375</ele>
        <time>2011-03-27T08:44:06Z</time>
      </trkpt>
      <trkpt lat="48.42231" lon="2.62118">
        <ele>91.462524414062</ele>
        <time>2011-03-27T08:44:12Z</time>
      </trkpt>
      <trkpt lat="48.4225" lon="2.62106">
        <ele>91.462524414062</ele>
        <time>2011-03-27T08:44:18Z</time>
      </trkpt>
      <trkpt lat="48.42271" lon="2.62093">
        <ele>92.423950195312</ele>
        <time>2011-03-27T08:44:24Z</time>
      </trkpt>
      <trkpt lat="48.42296" lon="2.6208">
        <ele>92.904541015625</ele>
        <time>2011-03-27T08:44:31Z</time>
      </trkpt>
      <trkpt lat="48.42315" lon="2.62067">
        <ele>93.865844726562</ele>
        <time>2011-03-27T08:44:37Z</time>
      </trkpt>
      <trkpt lat="48.42329" lon="2.62058">
        <ele>94.346557617188</ele>
        <time>2011-03-27T08:44:42Z</time>
      </trkpt>
      <trkpt lat="48.42347" lon="2.6204">
        <ele>93.865844726562</ele>
        <time>2011-03-27T08:44:47Z</time>
      </trkpt>
      <trkpt lat="48.42354" lon="2.62032">
        <ele>93.865844726562</ele>
        <time>2011-03-27T08:44:49Z</time>
      </trkpt>
      <trkpt lat="48.42373" lon="2.62011">
        <ele>94.346557617188</ele>
        <time>2011-03-27T08:44:54Z</time>
      </trkpt>
      <trkpt lat="48.42395" lon="2.61989">
        <ele>93.385131835938</ele>
        <time>2011-03-27T08:45:00Z</time>
      </trkpt>
      <trkpt lat="48.42414" lon="2.61968">
        <ele>93.865844726562</ele>
        <time>2011-03-27T08:45:05Z</time>
      </trkpt>
      <trkpt lat="48.42435" lon="2.61945">
        <ele>93.865844726562</ele>
        <time>2011-03-27T08:45:11Z</time>
      </trkpt>
      <trkpt lat="48.42453" lon="2.61925">
        <ele>95.307739257812</ele>
        <time>2011-03-27T08:45:17Z</time>
      </trkpt>
      <trkpt lat="48.42467" lon="2.61911">
        <ele>95.788452148438</ele>
        <time>2011-03-27T08:45:22Z</time>
      </trkpt>
      <trkpt lat="48.4248" lon="2.61897">
        <ele>95.307739257812</ele>
        <time>2011-03-27T08:45:27Z</time>
      </trkpt>
      <trkpt lat="48.42493" lon="2.61884">
        <ele>96.749877929688</ele>
        <time>2011-03-27T08:45:32Z</time>
      </trkpt>
      <trkpt lat="48.42507" lon="2.61868">
        <ele>97.711181640625</ele>
        <time>2011-03-27T08:45:38Z</time>
      </trkpt>
      <trkpt lat="48.42522" lon="2.61853">
        <ele>99.6337890625</ele>
        <time>2011-03-27T08:45:44Z</time>
      </trkpt>
      <trkpt lat="48.42536" lon="2.61837">
        <ele>100.59509277344</ele>
        <time>2011-03-27T08:45:50Z</time>
      </trkpt>
      <trkpt lat="48.42548" lon="2.61825">
        <ele>101.55639648438</ele>
        <time>2011-03-27T08:45:55Z</time>
      </trkpt>
      <trkpt lat="48.42563" lon="2.61808">
        <ele>103.47900390625</ele>
        <time>2011-03-27T08:46:01Z</time>
      </trkpt>
      <trkpt lat="48.42576" lon="2.61796">
        <ele>104.4404296875</ele>
        <time>2011-03-27T08:46:06Z</time>
      </trkpt>
      <trkpt lat="48.4259" lon="2.6178">
        <ele>103.95971679688</ele>
        <time>2011-03-27T08:46:11Z</time>
      </trkpt>
      <trkpt lat="48.42602" lon="2.61765">
        <ele>104.92102050781</ele>
        <time>2011-03-27T08:46:16Z</time>
      </trkpt>
      <trkpt lat="48.42617" lon="2.61747">
        <ele>105.40173339844</ele>
        <time>2011-03-27T08:46:22Z</time>
      </trkpt>
      <trkpt lat="48.42628" lon="2.61729">
        <ele>105.88244628906</ele>
        <time>2011-03-27T08:46:27Z</time>
      </trkpt>
      <trkpt lat="48.42637" lon="2.61705">
        <ele>106.36303710938</ele>
        <time>2011-03-27T08:46:32Z</time>
      </trkpt>
      <trkpt lat="48.42647" lon="2.61671">
        <ele>106.36303710938</ele>
        <time>2011-03-27T08:46:38Z</time>
      </trkpt>
      <trkpt lat="48.42661" lon="2.61635">
        <ele>105.88244628906</ele>
        <time>2011-03-27T08:46:45Z</time>
      </trkpt>
      <trkpt lat="48.42669" lon="2.61603">
        <ele>106.84362792969</ele>
        <time>2011-03-27T08:46:51Z</time>
      </trkpt>
      <trkpt lat="48.42674" lon="2.61579">
        <ele>105.88244628906</ele>
        <time>2011-03-27T08:46:55Z</time>
      </trkpt>
      <trkpt lat="48.42677" lon="2.61566">
        <ele>106.36303710938</ele>
        <time>2011-03-27T08:46:57Z</time>
      </trkpt>
      <trkpt lat="48.42683" lon="2.61537">
        <ele>104.92102050781</ele>
        <time>2011-03-27T08:47:01Z</time>
      </trkpt>
      <trkpt lat="48.42685" lon="2.61522">
        <ele>105.40173339844</ele>
        <time>2011-03-27T08:47:03Z</time>
      </trkpt>
      <trkpt lat="48.42683" lon="2.61488">
        <ele>105.40173339844</ele>
        <time>2011-03-27T08:47:08Z</time>
      </trkpt>
      <trkpt lat="48.42684" lon="2.61446">
        <ele>106.36303710938</ele>
        <time>2011-03-27T08:47:14Z</time>
      </trkpt>
      <trkpt lat="48.42688" lon="2.6139">
        <ele>106.84362792969</ele>
        <time>2011-03-27T08:47:22Z</time>
      </trkpt>
      <trkpt lat="48.4269" lon="2.61383">
        <ele>105.88244628906</ele>
        <time>2011-03-27T08:47:23Z</time>
      </trkpt>
      <trkpt lat="48.42694" lon="2.61362">
        <ele>106.84362792969</ele>
        <time>2011-03-27T08:47:26Z</time>
      </trkpt>
      <trkpt lat="48.42707" lon="2.61335">
        <ele>107.32434082031</ele>
        <time>2011-03-27T08:47:31Z</time>
      </trkpt>
      <trkpt lat="48.42716" lon="2.6131">
        <ele>108.28564453125</ele>
        <time>2011-03-27T08:47:37Z</time>
      </trkpt>
      <trkpt lat="48.42722" lon="2.61285">
        <ele>108.76623535156</ele>
        <time>2011-03-27T08:47:42Z</time>
      </trkpt>
      <trkpt lat="48.42732" lon="2.61255">
        <ele>109.72766113281</ele>
        <time>2011-03-27T08:47:49Z</time>
      </trkpt>
      <trkpt lat="48.42736" lon="2.61237">
        <ele>111.16955566406</ele>
        <time>2011-03-27T08:47:54Z</time>
      </trkpt>
      <trkpt lat="48.42744" lon="2.61213">
        <ele>112.61157226562</ele>
        <time>2011-03-27T08:48:01Z</time>
      </trkpt>
      <trkpt lat="48.42749" lon="2.61191">
        <ele>115.49560546875</ele>
        <time>2011-03-27T08:48:08Z</time>
      </trkpt>
      <trkpt lat="48.42752" lon="2.6117">
        <ele>115.97619628906</ele>
        <time>2011-03-27T08:48:14Z</time>
      </trkpt>
      <trkpt lat="48.42759" lon="2.61141">
        <ele>116.45678710938</ele>
        <time>2011-03-27T08:48:21Z</time>
      </trkpt>
      <trkpt lat="48.42765" lon="2.61109">
        <ele>117.41821289062</ele>
        <time>2011-03-27T08:48:28Z</time>
      </trkpt>
      <trkpt lat="48.42768" lon="2.61078">
        <ele>117.41821289062</ele>
        <time>2011-03-27T08:48:34Z</time>
      </trkpt>
      <trkpt lat="48.42764" lon="2.61045">
        <ele>117.89880371094</ele>
        <time>2011-03-27T08:48:41Z</time>
      </trkpt>
      <trkpt lat="48.4276" lon="2.61014">
        <ele>118.86010742188</ele>
        <time>2011-03-27T08:48:48Z</time>
      </trkpt>
      <trkpt lat="48.42763" lon="2.60975">
        <ele>120.78283691406</ele>
        <time>2011-03-27T08:48:56Z</time>
      </trkpt>
      <trkpt lat="48.42772" lon="2.60958">
        <ele>122.22473144531</ele>
        <time>2011-03-27T08:49:01Z</time>
      </trkpt>
      <trkpt lat="48.42781" lon="2.60942">
        <ele>123.18615722656</ele>
        <time>2011-03-27T08:49:06Z</time>
      </trkpt>
      <trkpt lat="48.42792" lon="2.60918">
        <ele>122.70544433594</ele>
        <time>2011-03-27T08:49:11Z</time>
      </trkpt>
      <trkpt lat="48.42804" lon="2.60885">
        <ele>123.18615722656</ele>
        <time>2011-03-27T08:49:17Z</time>
      </trkpt>
      <trkpt lat="48.42807" lon="2.60856">
        <ele>122.70544433594</ele>
        <time>2011-03-27T08:49:22Z</time>
      </trkpt>
      <trkpt lat="48.42808" lon="2.60822">
        <ele>123.18615722656</ele>
        <time>2011-03-27T08:49:28Z</time>
      </trkpt>
      <trkpt lat="48.42805" lon="2.60788">
        <ele>123.66674804688</ele>
        <time>2011-03-27T08:49:34Z</time>
      </trkpt>
      <trkpt lat="48.42799" lon="2.60744">
        <ele>123.18615722656</ele>
        <time>2011-03-27T08:49:42Z</time>
      </trkpt>
      <trkpt lat="48.42793" lon="2.60703">
        <ele>123.66674804688</ele>
        <time>2011-03-27T08:49:50Z</time>
      </trkpt>
      <trkpt lat="48.42788" lon="2.60671">
        <ele>123.66674804688</ele>
        <time>2011-03-27T08:49:56Z</time>
      </trkpt>
      <trkpt lat="48.42781" lon="2.60607">
        <ele>123.18615722656</ele>
        <time>2011-03-27T08:50:05Z</time>
      </trkpt>
      <trkpt lat="48.42777" lon="2.60578">
        <ele>122.70544433594</ele>
        <time>2011-03-27T08:50:09Z</time>
      </trkpt>
      <trkpt lat="48.4278" lon="2.60555">
        <ele>122.22473144531</ele>
        <time>2011-03-27T08:50:13Z</time>
      </trkpt>
      <trkpt lat="48.42786" lon="2.6055">
        <ele>121.744140625</ele>
        <time>2011-03-27T08:50:15Z</time>
      </trkpt>
      <trkpt lat="48.42814" lon="2.60533">
        <ele>121.26354980469</ele>
        <time>2011-03-27T08:50:22Z</time>
      </trkpt>
      <trkpt lat="48.42838" lon="2.6052">
        <ele>121.26354980469</ele>
        <time>2011-03-27T08:50:27Z</time>
      </trkpt>
      <trkpt lat="48.42854" lon="2.60511">
        <ele>120.30212402344</ele>
        <time>2011-03-27T08:50:30Z</time>
      </trkpt>
      <trkpt lat="48.42899" lon="2.60487">
        <ele>118.37939453125</ele>
        <time>2011-03-27T08:50:37Z</time>
      </trkpt>
      <trkpt lat="48.42928" lon="2.60473">
        <ele>117.89880371094</ele>
        <time>2011-03-27T08:50:41Z</time>
      </trkpt>
      <trkpt lat="48.42962" lon="2.60456">
        <ele>117.41821289062</ele>
        <time>2011-03-27T08:50:46Z</time>
      </trkpt>
      <trkpt lat="48.4301" lon="2.6043">
        <ele>117.41821289062</ele>
        <time>2011-03-27T08:50:54Z</time>
      </trkpt>
      <trkpt lat="48.4304" lon="2.60416">
        <ele>117.41821289062</ele>
        <time>2011-03-27T08:50:59Z</time>
      </trkpt>
      <trkpt lat="48.43075" lon="2.60407">
        <ele>115.49560546875</ele>
        <time>2011-03-27T08:51:04Z</time>
      </trkpt>
      <trkpt lat="48.43098" lon="2.6041">
        <ele>112.13098144531</ele>
        <time>2011-03-27T08:51:07Z</time>
      </trkpt>
      <trkpt lat="48.43106" lon="2.60411">
        <ele>112.13098144531</ele>
        <time>2011-03-27T08:51:08Z</time>
      </trkpt>
      <trkpt lat="48.43124" lon="2.60412">
        <ele>109.24694824219</ele>
        <time>2011-03-27T08:51:10Z</time>
      </trkpt>
      <trkpt lat="48.43144" lon="2.60414">
        <ele>103.47900390625</ele>
        <time>2011-03-27T08:51:12Z</time>
      </trkpt>
      <trkpt lat="48.43165" lon="2.60417">
        <ele>99.6337890625</ele>
        <time>2011-03-27T08:51:14Z</time>
      </trkpt>
      <trkpt lat="48.43188" lon="2.60419">
        <ele>98.19189453125</ele>
        <time>2011-03-27T08:51:16Z</time>
      </trkpt>
      <trkpt lat="48.43211" lon="2.60424">
        <ele>97.711181640625</ele>
        <time>2011-03-27T08:51:18Z</time>
      </trkpt>
      <trkpt lat="48.43236" lon="2.60433">
        <ele>96.749877929688</ele>
        <time>2011-03-27T08:51:21Z</time>
      </trkpt>
      <trkpt lat="48.43231" lon="2.60442">
        <ele>96.749877929688</ele>
        <time>2011-03-27T08:51:25Z</time>
      </trkpt>
      <trkpt lat="48.43223" lon="2.60448">
        <ele>97.711181640625</ele>
        <time>2011-03-27T08:51:29Z</time>
      </trkpt>
      <trkpt lat="48.43208" lon="2.60464">
        <ele>98.672485351562</ele>
        <time>2011-03-27T08:51:35Z</time>
      </trkpt>
      <trkpt lat="48.43195" lon="2.60479">
        <ele>99.6337890625</ele>
        <time>2011-03-27T08:51:40Z</time>
      </trkpt>
      <trkpt lat="48.43177" lon="2.60507">
        <ele>101.55639648438</ele>
        <time>2011-03-27T08:51:46Z</time>
      </trkpt>
      <trkpt lat="48.43175" lon="2.60511">
        <ele>101.55639648438</ele>
        <time>2011-03-27T08:51:47Z</time>
      </trkpt>
      <trkpt lat="48.4316" lon="2.60525">
        <ele>103.47900390625</ele>
        <time>2011-03-27T08:51:53Z</time>
      </trkpt>
      <trkpt lat="48.43146" lon="2.60541">
        <ele>104.92102050781</ele>
        <time>2011-03-27T08:52:00Z</time>
      </trkpt>
      <trkpt lat="48.4313" lon="2.60557">
        <ele>106.36303710938</ele>
        <time>2011-03-27T08:52:08Z</time>
      </trkpt>
      <trkpt lat="48.43122" lon="2.60565">
        <ele>109.24694824219</ele>
        <time>2011-03-27T08:52:13Z</time>
      </trkpt>
      <trkpt lat="48.43111" lon="2.60578">
        <ele>109.72766113281</ele>
        <time>2011-03-27T08:52:21Z</time>
      </trkpt>
      <trkpt lat="48.43106" lon="2.6059">
        <ele>111.65026855469</ele>
        <time>2011-03-27T08:52:27Z</time>
      </trkpt>
      <trkpt lat="48.43103" lon="2.60603">
        <ele>112.61157226562</ele>
        <time>2011-03-27T08:52:34Z</time>
      </trkpt>
      <trkpt lat="48.43099" lon="2.60621">
        <ele>115.49560546875</ele>
        <time>2011-03-27T08:52:41Z</time>
      </trkpt>
      <trkpt lat="48.43099" lon="2.60623">
        <ele>115.97619628906</ele>
        <time>2011-03-27T08:52:42Z</time>
      </trkpt>
      <trkpt lat="48.43095" lon="2.60646">
        <ele>117.89880371094</ele>
        <time>2011-03-27T08:52:51Z</time>
      </trkpt>
      <trkpt lat="48.43093" lon="2.60661">
        <ele>119.3408203125</ele>
        <time>2011-03-27T08:52:57Z</time>
      </trkpt>
      <trkpt lat="48.4309" lon="2.60687">
        <ele>121.26354980469</ele>
        <time>2011-03-27T08:53:07Z</time>
      </trkpt>
      <trkpt lat="48.43092" lon="2.60711">
        <ele>121.26354980469</ele>
        <time>2011-03-27T08:53:14Z</time>
      </trkpt>
      <trkpt lat="48.43101" lon="2.60727">
        <ele>122.22473144531</ele>
        <time>2011-03-27T08:53:19Z</time>
      </trkpt>
      <trkpt lat="48.43114" lon="2.60756">
        <ele>122.22473144531</ele>
        <time>2011-03-27T08:53:26Z</time>
      </trkpt>
      <trkpt lat="48.43129" lon="2.60795">
        <ele>122.22473144531</ele>
        <time>2011-03-27T08:53:34Z</time>
      </trkpt>
      <trkpt lat="48.43138" lon="2.60817">
        <ele>122.22473144531</ele>
        <time>2011-03-27T08:53:39Z</time>
      </trkpt>
      <trkpt lat="48.4314" lon="2.60822">
        <ele>121.744140625</ele>
        <time>2011-03-27T08:53:40Z</time>
      </trkpt>
      <trkpt lat="48.43162" lon="2.60868">
        <ele>121.26354980469</ele>
        <time>2011-03-27T08:53:48Z</time>
      </trkpt>
      <trkpt lat="48.43187" lon="2.60925">
        <ele>121.26354980469</ele>
        <time>2011-03-27T08:53:57Z</time>
      </trkpt>
      <trkpt lat="48.432" lon="2.60955">
        <ele>119.3408203125</ele>
        <time>2011-03-27T08:54:01Z</time>
      </trkpt>
      <trkpt lat="48.43207" lon="2.60998">
        <ele>119.82141113281</ele>
        <time>2011-03-27T08:54:06Z</time>
      </trkpt>
      <trkpt lat="48.43209" lon="2.61036">
        <ele>120.78283691406</ele>
        <time>2011-03-27T08:54:11Z</time>
      </trkpt>
      <trkpt lat="48.43213" lon="2.61077">
        <ele>121.744140625</ele>
        <time>2011-03-27T08:54:17Z</time>
      </trkpt>
      <trkpt lat="48.43216" lon="2.61125">
        <ele>122.70544433594</ele>
        <time>2011-03-27T08:54:24Z</time>
      </trkpt>
      <trkpt lat="48.43219" lon="2.6118">
        <ele>123.18615722656</ele>
        <time>2011-03-27T08:54:32Z</time>
      </trkpt>
      <trkpt lat="48.43221" lon="2.61221">
        <ele>122.70544433594</ele>
        <time>2011-03-27T08:54:38Z</time>
      </trkpt>
      <trkpt lat="48.4322" lon="2.61235">
        <ele>123.66674804688</ele>
        <time>2011-03-27T08:54:40Z</time>
      </trkpt>
      <trkpt lat="48.43222" lon="2.61253">
        <ele>123.66674804688</ele>
        <time>2011-03-27T08:54:43Z</time>
      </trkpt>
      <trkpt lat="48.43229" lon="2.61301">
        <ele>123.66674804688</ele>
        <time>2011-03-27T08:54:50Z</time>
      </trkpt>
      <trkpt lat="48.4323" lon="2.61323">
        <ele>123.66674804688</ele>
        <time>2011-03-27T08:54:53Z</time>
      </trkpt>
      <trkpt lat="48.43233" lon="2.61366">
        <ele>123.66674804688</ele>
        <time>2011-03-27T08:54:59Z</time>
      </trkpt>
      <trkpt lat="48.43237" lon="2.6141">
        <ele>124.14733886719</ele>
        <time>2011-03-27T08:55:05Z</time>
      </trkpt>
      <trkpt lat="48.43237" lon="2.61417">
        <ele>124.14733886719</ele>
        <time>2011-03-27T08:55:06Z</time>
      </trkpt>
      <trkpt lat="48.4324" lon="2.61477">
        <ele>124.14733886719</ele>
        <time>2011-03-27T08:55:14Z</time>
      </trkpt>
      <trkpt lat="48.43245" lon="2.61531">
        <ele>123.18615722656</ele>
        <time>2011-03-27T08:55:21Z</time>
      </trkpt>
      <trkpt lat="48.4325" lon="2.61594">
        <ele>123.18615722656</ele>
        <time>2011-03-27T08:55:29Z</time>
      </trkpt>
      <trkpt lat="48.43252" lon="2.61617">
        <ele>123.18615722656</ele>
        <time>2011-03-27T08:55:32Z</time>
      </trkpt>
      <trkpt lat="48.43258" lon="2.6167">
        <ele>123.18615722656</ele>
        <time>2011-03-27T08:55:39Z</time>
      </trkpt>
      <trkpt lat="48.43262" lon="2.61738">
        <ele>122.22473144531</ele>
        <time>2011-03-27T08:55:47Z</time>
      </trkpt>
      <trkpt lat="48.43269" lon="2.61795">
        <ele>122.22473144531</ele>
        <time>2011-03-27T08:55:54Z</time>
      </trkpt>
      <trkpt lat="48.43273" lon="2.61839">
        <ele>122.22473144531</ele>
        <time>2011-03-27T08:56:00Z</time>
      </trkpt>
      <trkpt lat="48.43277" lon="2.61889">
        <ele>122.70544433594</ele>
        <time>2011-03-27T08:56:07Z</time>
      </trkpt>
      <trkpt lat="48.43278" lon="2.61937">
        <ele>124.62805175781</ele>
        <time>2011-03-27T08:56:15Z</time>
      </trkpt>
      <trkpt lat="48.43281" lon="2.61986">
        <ele>124.62805175781</ele>
        <time>2011-03-27T08:56:23Z</time>
      </trkpt>
      <trkpt lat="48.43284" lon="2.62022">
        <ele>125.10876464844</ele>
        <time>2011-03-27T08:56:29Z</time>
      </trkpt>
      <trkpt lat="48.4328" lon="2.62039">
        <ele>125.10876464844</ele>
        <time>2011-03-27T08:56:33Z</time>
      </trkpt>
      <trkpt lat="48.43278" lon="2.62041">
        <ele>125.58935546875</ele>
        <time>2011-03-27T08:56:34Z</time>
      </trkpt>
      <trkpt lat="48.43279" lon="2.62031">
        <ele>125.58935546875</ele>
        <time>2011-03-27T08:56:38Z</time>
      </trkpt>
      <trkpt lat="48.43291" lon="2.62031">
        <ele>125.58935546875</ele>
        <time>2011-03-27T08:56:42Z</time>
      </trkpt>
      <trkpt lat="48.43295" lon="2.62033">
        <ele>125.10876464844</ele>
        <time>2011-03-27T08:56:43Z</time>
      </trkpt>
      <trkpt lat="48.43316" lon="2.62047">
        <ele>126.55065917969</ele>
        <time>2011-03-27T08:56:49Z</time>
      </trkpt>
      <trkpt lat="48.4333" lon="2.62062">
        <ele>126.06994628906</ele>
        <time>2011-03-27T08:56:55Z</time>
      </trkpt>
      <trkpt lat="48.43341" lon="2.62069">
        <ele>126.06994628906</ele>
        <time>2011-03-27T08:57:00Z</time>
      </trkpt>
      <trkpt lat="48.43341" lon="2.62069">
        <ele>126.06994628906</ele>
        <time>2011-03-27T08:57:02Z</time>
      </trkpt>
      <trkpt lat="48.43341" lon="2.62076">
        <ele>126.06994628906</ele>
        <time>2011-03-27T08:57:42Z</time>
      </trkpt>
      <trkpt lat="48.43341" lon="2.62078">
        <ele>126.06994628906</ele>
        <time>2011-03-27T08:57:43Z</time>
      </trkpt>
      <trkpt lat="48.4334" lon="2.62078">
        <ele>126.06994628906</ele>
        <time>2011-03-27T08:57:52Z</time>
      </trkpt>
      <trkpt lat="48.43338" lon="2.62081">
        <ele>126.06994628906</ele>
        <time>2011-03-27T08:57:54Z</time>
      </trkpt>
      <trkpt lat="48.43331" lon="2.62073">
        <ele>126.06994628906</ele>
        <time>2011-03-27T08:58:01Z</time>
      </trkpt>
      <trkpt lat="48.43323" lon="2.62062">
        <ele>126.55065917969</ele>
        <time>2011-03-27T08:58:06Z</time>
      </trkpt>
      <trkpt lat="48.43314" lon="2.62051">
        <ele>126.06994628906</ele>
        <time>2011-03-27T08:58:10Z</time>
      </trkpt>
      <trkpt lat="48.43302" lon="2.62042">
        <ele>125.58935546875</ele>
        <time>2011-03-27T08:58:14Z</time>
      </trkpt>
      <trkpt lat="48.43284" lon="2.62039">
        <ele>125.58935546875</ele>
        <time>2011-03-27T08:58:19Z</time>
      </trkpt>
      <trkpt lat="48.43271" lon="2.6205">
        <ele>125.58935546875</ele>
        <time>2011-03-27T08:58:23Z</time>
      </trkpt>
      <trkpt lat="48.43258" lon="2.62074">
        <ele>125.58935546875</ele>
        <time>2011-03-27T08:58:28Z</time>
      </trkpt>
      <trkpt lat="48.43253" lon="2.62085">
        <ele>125.58935546875</ele>
        <time>2011-03-27T08:58:30Z</time>
      </trkpt>
      <trkpt lat="48.43236" lon="2.62118">
        <ele>125.58935546875</ele>
        <time>2011-03-27T08:58:36Z</time>
      </trkpt>
      <trkpt lat="48.4322" lon="2.62144">
        <ele>125.10876464844</ele>
        <time>2011-03-27T08:58:41Z</time>
      </trkpt>
      <trkpt lat="48.43198" lon="2.62185">
        <ele>124.62805175781</ele>
        <time>2011-03-27T08:58:48Z</time>
      </trkpt>
      <trkpt lat="48.4318" lon="2.62222">
        <ele>124.62805175781</ele>
        <time>2011-03-27T08:58:54Z</time>
      </trkpt>
      <trkpt lat="48.43157" lon="2.62265">
        <ele>124.62805175781</ele>
        <time>2011-03-27T08:59:01Z</time>
      </trkpt>
      <trkpt lat="48.43144" lon="2.62267">
        <ele>125.10876464844</ele>
        <time>2011-03-27T08:59:05Z</time>
      </trkpt>
      <trkpt lat="48.43133" lon="2.62255">
        <ele>126.06994628906</ele>
        <time>2011-03-27T08:59:08Z</time>
      </trkpt>
      <trkpt lat="48.43103" lon="2.62222">
        <ele>126.55065917969</ele>
        <time>2011-03-27T08:59:16Z</time>
      </trkpt>
      <trkpt lat="48.43074" lon="2.62194">
        <ele>127.51196289062</ele>
        <time>2011-03-27T08:59:23Z</time>
      </trkpt>
      <trkpt lat="48.43035" lon="2.62155">
        <ele>127.03137207031</ele>
        <time>2011-03-27T08:59:32Z</time>
      </trkpt>
      <trkpt lat="48.43002" lon="2.62123">
        <ele>127.51196289062</ele>
        <time>2011-03-27T08:59:39Z</time>
      </trkpt>
      <trkpt lat="48.42978" lon="2.62101">
        <ele>126.55065917969</ele>
        <time>2011-03-27T08:59:44Z</time>
      </trkpt>
      <trkpt lat="48.42949" lon="2.62072">
        <ele>127.03137207031</ele>
        <time>2011-03-27T08:59:50Z</time>
      </trkpt>
      <trkpt lat="48.42924" lon="2.62046">
        <ele>126.55065917969</ele>
        <time>2011-03-27T08:59:56Z</time>
      </trkpt>
      <trkpt lat="48.42908" lon="2.62048">
        <ele>127.03137207031</ele>
        <time>2011-03-27T09:00:00Z</time>
      </trkpt>
      <trkpt lat="48.42905" lon="2.6206">
        <ele>127.03137207031</ele>
        <time>2011-03-27T09:00:02Z</time>
      </trkpt>
      <trkpt lat="48.42897" lon="2.62122">
        <ele>127.03137207031</ele>
        <time>2011-03-27T09:00:10Z</time>
      </trkpt>
      <trkpt lat="48.42893" lon="2.62155">
        <ele>127.03137207031</ele>
        <time>2011-03-27T09:00:14Z</time>
      </trkpt>
      <trkpt lat="48.42885" lon="2.62212">
        <ele>127.03137207031</ele>
        <time>2011-03-27T09:00:20Z</time>
      </trkpt>
      <trkpt lat="48.42877" lon="2.62274">
        <ele>127.03137207031</ele>
        <time>2011-03-27T09:00:27Z</time>
      </trkpt>
      <trkpt lat="48.4287" lon="2.62336">
        <ele>127.99255371094</ele>
        <time>2011-03-27T09:00:34Z</time>
      </trkpt>
      <trkpt lat="48.4286" lon="2.62407">
        <ele>127.03137207031</ele>
        <time>2011-03-27T09:00:42Z</time>
      </trkpt>
      <trkpt lat="48.42855" lon="2.6247">
        <ele>126.55065917969</ele>
        <time>2011-03-27T09:00:49Z</time>
      </trkpt>
      <trkpt lat="48.4285" lon="2.62505">
        <ele>127.03137207031</ele>
        <time>2011-03-27T09:00:53Z</time>
      </trkpt>
      <trkpt lat="48.42845" lon="2.62542">
        <ele>127.03137207031</ele>
        <time>2011-03-27T09:00:57Z</time>
      </trkpt>
      <trkpt lat="48.42833" lon="2.6264">
        <ele>127.51196289062</ele>
        <time>2011-03-27T09:01:08Z</time>
      </trkpt>
      <trkpt lat="48.42826" lon="2.62701">
        <ele>127.99255371094</ele>
        <time>2011-03-27T09:01:15Z</time>
      </trkpt>
      <trkpt lat="48.42818" lon="2.62772">
        <ele>127.51196289062</ele>
        <time>2011-03-27T09:01:23Z</time>
      </trkpt>
      <trkpt lat="48.4281" lon="2.62824">
        <ele>127.99255371094</ele>
        <time>2011-03-27T09:01:29Z</time>
      </trkpt>
      <trkpt lat="48.42803" lon="2.62868">
        <ele>127.51196289062</ele>
        <time>2011-03-27T09:01:34Z</time>
      </trkpt>
      <trkpt lat="48.42797" lon="2.6292">
        <ele>128.47338867188</ele>
        <time>2011-03-27T09:01:40Z</time>
      </trkpt>
      <trkpt lat="48.42788" lon="2.62996">
        <ele>127.99255371094</ele>
        <time>2011-03-27T09:01:48Z</time>
      </trkpt>
      <trkpt lat="48.4278" lon="2.63051">
        <ele>127.51196289062</ele>
        <time>2011-03-27T09:01:54Z</time>
      </trkpt>
      <trkpt lat="48.42771" lon="2.63112">
        <ele>127.51196289062</ele>
        <time>2011-03-27T09:02:01Z</time>
      </trkpt>
      <trkpt lat="48.4277" lon="2.6313">
        <ele>127.03137207031</ele>
        <time>2011-03-27T09:02:03Z</time>
      </trkpt>
      <trkpt lat="48.42762" lon="2.63193">
        <ele>127.99255371094</ele>
        <time>2011-03-27T09:02:10Z</time>
      </trkpt>
      <trkpt lat="48.42759" lon="2.63217">
        <ele>127.51196289062</ele>
        <time>2011-03-27T09:02:13Z</time>
      </trkpt>
      <trkpt lat="48.42749" lon="2.6331">
        <ele>127.51196289062</ele>
        <time>2011-03-27T09:02:24Z</time>
      </trkpt>
      <trkpt lat="48.4274" lon="2.63384">
        <ele>127.99255371094</ele>
        <time>2011-03-27T09:02:32Z</time>
      </trkpt>
      <trkpt lat="48.42735" lon="2.63436">
        <ele>127.99255371094</ele>
        <time>2011-03-27T09:02:38Z</time>
      </trkpt>
      <trkpt lat="48.42727" lon="2.63497">
        <ele>127.99255371094</ele>
        <time>2011-03-27T09:02:45Z</time>
      </trkpt>
      <trkpt lat="48.42719" lon="2.63559">
        <ele>127.51196289062</ele>
        <time>2011-03-27T09:02:52Z</time>
      </trkpt>
      <trkpt lat="48.4271" lon="2.63625">
        <ele>128.47338867188</ele>
        <time>2011-03-27T09:03:00Z</time>
      </trkpt>
      <trkpt lat="48.42703" lon="2.63684">
        <ele>128.9541015625</ele>
        <time>2011-03-27T09:03:07Z</time>
      </trkpt>
      <trkpt lat="48.427" lon="2.63718">
        <ele>127.99255371094</ele>
        <time>2011-03-27T09:03:11Z</time>
      </trkpt>
      <trkpt lat="48.42691" lon="2.63789">
        <ele>127.99255371094</ele>
        <time>2011-03-27T09:03:19Z</time>
      </trkpt>
      <trkpt lat="48.42684" lon="2.63856">
        <ele>127.51196289062</ele>
        <time>2011-03-27T09:03:27Z</time>
      </trkpt>
      <trkpt lat="48.42678" lon="2.639">
        <ele>127.99255371094</ele>
        <time>2011-03-27T09:03:32Z</time>
      </trkpt>
      <trkpt lat="48.42668" lon="2.63969">
        <ele>127.51196289062</ele>
        <time>2011-03-27T09:03:40Z</time>
      </trkpt>
      <trkpt lat="48.42667" lon="2.63978">
        <ele>127.51196289062</ele>
        <time>2011-03-27T09:03:41Z</time>
      </trkpt>
      <trkpt lat="48.42659" lon="2.64038">
        <ele>127.99255371094</ele>
        <time>2011-03-27T09:03:48Z</time>
      </trkpt>
      <trkpt lat="48.42653" lon="2.64091">
        <ele>127.51196289062</ele>
        <time>2011-03-27T09:03:54Z</time>
      </trkpt>
      <trkpt lat="48.42643" lon="2.64162">
        <ele>127.99255371094</ele>
        <time>2011-03-27T09:04:02Z</time>
      </trkpt>
      <trkpt lat="48.42635" lon="2.64232">
        <ele>127.99255371094</ele>
        <time>2011-03-27T09:04:10Z</time>
      </trkpt>
      <trkpt lat="48.42625" lon="2.64313">
        <ele>127.99255371094</ele>
        <time>2011-03-27T09:04:19Z</time>
      </trkpt>
      <trkpt lat="48.42618" lon="2.64382">
        <ele>127.99255371094</ele>
        <time>2011-03-27T09:04:27Z</time>
      </trkpt>
      <trkpt lat="48.42611" lon="2.64435">
        <ele>127.03137207031</ele>
        <time>2011-03-27T09:04:33Z</time>
      </trkpt>
      <trkpt lat="48.42603" lon="2.64497">
        <ele>124.14733886719</ele>
        <time>2011-03-27T09:04:39Z</time>
      </trkpt>
      <trkpt lat="48.42601" lon="2.64508">
        <ele>124.62805175781</ele>
        <time>2011-03-27T09:04:40Z</time>
      </trkpt>
      <trkpt lat="48.42596" lon="2.64557">
        <ele>120.78283691406</ele>
        <time>2011-03-27T09:04:44Z</time>
      </trkpt>
      <trkpt lat="48.42594" lon="2.6457">
        <ele>120.78283691406</ele>
        <time>2011-03-27T09:04:45Z</time>
      </trkpt>
      <trkpt lat="48.42586" lon="2.6464">
        <ele>116.9375</ele>
        <time>2011-03-27T09:04:50Z</time>
      </trkpt>
      <trkpt lat="48.4258" lon="2.64694">
        <ele>115.49560546875</ele>
        <time>2011-03-27T09:04:54Z</time>
      </trkpt>
      <trkpt lat="48.42579" lon="2.64704">
        <ele>115.01489257812</ele>
        <time>2011-03-27T09:04:55Z</time>
      </trkpt>
      <trkpt lat="48.4257" lon="2.64724">
        <ele>115.49560546875</ele>
        <time>2011-03-27T09:04:59Z</time>
      </trkpt>
      <trkpt lat="48.42561" lon="2.64711">
        <ele>112.61157226562</ele>
        <time>2011-03-27T09:05:02Z</time>
      </trkpt>
      <trkpt lat="48.42553" lon="2.64697">
        <ele>112.13098144531</ele>
        <time>2011-03-27T09:05:04Z</time>
      </trkpt>
      <trkpt lat="48.42504" lon="2.64597">
        <ele>110.68884277344</ele>
        <time>2011-03-27T09:05:15Z</time>
      </trkpt>
      <trkpt lat="48.42477" lon="2.64545">
        <ele>108.28564453125</ele>
        <time>2011-03-27T09:05:21Z</time>
      </trkpt>
      <trkpt lat="48.42451" lon="2.64495">
        <ele>108.28564453125</ele>
        <time>2011-03-27T09:05:27Z</time>
      </trkpt>
      <trkpt lat="48.42437" lon="2.6447">
        <ele>107.80505371094</ele>
        <time>2011-03-27T09:05:30Z</time>
      </trkpt>
      <trkpt lat="48.42411" lon="2.64442">
        <ele>107.80505371094</ele>
        <time>2011-03-27T09:05:35Z</time>
      </trkpt>
      <trkpt lat="48.4238" lon="2.64417">
        <ele>108.28564453125</ele>
        <time>2011-03-27T09:05:42Z</time>
      </trkpt>
      <trkpt lat="48.42359" lon="2.644">
        <ele>108.76623535156</ele>
        <time>2011-03-27T09:05:48Z</time>
      </trkpt>
      <trkpt lat="48.42336" lon="2.6438">
        <ele>111.16955566406</ele>
        <time>2011-03-27T09:05:56Z</time>
      </trkpt>
      <trkpt lat="48.42323" lon="2.64368">
        <ele>112.61157226562</ele>
        <time>2011-03-27T09:06:02Z</time>
      </trkpt>
      <trkpt lat="48.42313" lon="2.6436">
        <ele>114.05358886719</ele>
        <time>2011-03-27T09:06:07Z</time>
      </trkpt>
      <trkpt lat="48.42302" lon="2.6435">
        <ele>115.97619628906</ele>
        <time>2011-03-27T09:06:13Z</time>
      </trkpt>
      <trkpt lat="48.42289" lon="2.6434">
        <ele>116.45678710938</ele>
        <time>2011-03-27T09:06:20Z</time>
      </trkpt>
      <trkpt lat="48.42281" lon="2.64334">
        <ele>117.89880371094</ele>
        <time>2011-03-27T09:06:24Z</time>
      </trkpt>
      <trkpt lat="48.42273" lon="2.64328">
        <ele>120.30212402344</ele>
        <time>2011-03-27T09:06:29Z</time>
      </trkpt>
      <trkpt lat="48.42265" lon="2.64321">
        <ele>121.26354980469</ele>
        <time>2011-03-27T09:06:34Z</time>
      </trkpt>
      <trkpt lat="48.42249" lon="2.6431">
        <ele>123.18615722656</ele>
        <time>2011-03-27T09:06:42Z</time>
      </trkpt>
      <trkpt lat="48.42234" lon="2.64298">
        <ele>123.66674804688</ele>
        <time>2011-03-27T09:06:48Z</time>
      </trkpt>
      <trkpt lat="48.42217" lon="2.64284">
        <ele>125.10876464844</ele>
        <time>2011-03-27T09:06:54Z</time>
      </trkpt>
      <trkpt lat="48.42202" lon="2.64272">
        <ele>125.58935546875</ele>
        <time>2011-03-27T09:07:00Z</time>
      </trkpt>
      <trkpt lat="48.42184" lon="2.64256">
        <ele>126.06994628906</ele>
        <time>2011-03-27T09:07:06Z</time>
      </trkpt>
      <trkpt lat="48.42156" lon="2.64233">
        <ele>126.55065917969</ele>
        <time>2011-03-27T09:07:14Z</time>
      </trkpt>
      <trkpt lat="48.42132" lon="2.64215">
        <ele>126.55065917969</ele>
        <time>2011-03-27T09:07:21Z</time>
      </trkpt>
      <trkpt lat="48.42111" lon="2.64197">
        <ele>126.55065917969</ele>
        <time>2011-03-27T09:07:27Z</time>
      </trkpt>
      <trkpt lat="48.42089" lon="2.64178">
        <ele>127.51196289062</ele>
        <time>2011-03-27T09:07:33Z</time>
      </trkpt>
      <trkpt lat="48.42062" lon="2.64158">
        <ele>127.51196289062</ele>
        <time>2011-03-27T09:07:40Z</time>
      </trkpt>
      <trkpt lat="48.42058" lon="2.64155">
        <ele>128.47338867188</ele>
        <time>2011-03-27T09:07:41Z</time>
      </trkpt>
      <trkpt lat="48.42047" lon="2.6414">
        <ele>128.9541015625</ele>
        <time>2011-03-27T09:07:45Z</time>
      </trkpt>
      <trkpt lat="48.42053" lon="2.64131">
        <ele>127.99255371094</ele>
        <time>2011-03-27T09:07:48Z</time>
      </trkpt>
      <trkpt lat="48.42068" lon="2.64119">
        <ele>127.51196289062</ele>
        <time>2011-03-27T09:07:53Z</time>
      </trkpt>
      <trkpt lat="48.42087" lon="2.64104">
        <ele>127.51196289062</ele>
        <time>2011-03-27T09:07:58Z</time>
      </trkpt>
      <trkpt lat="48.42114" lon="2.64086">
        <ele>126.55065917969</ele>
        <time>2011-03-27T09:08:03Z</time>
      </trkpt>
      <trkpt lat="48.4212" lon="2.64082">
        <ele>125.58935546875</ele>
        <time>2011-03-27T09:08:04Z</time>
      </trkpt>
      <trkpt lat="48.42133" lon="2.64075">
        <ele>124.62805175781</ele>
        <time>2011-03-27T09:08:06Z</time>
      </trkpt>
      <trkpt lat="48.42159" lon="2.6406">
        <ele>122.70544433594</ele>
        <time>2011-03-27T09:08:10Z</time>
      </trkpt>
      <trkpt lat="48.42186" lon="2.64043">
        <ele>118.86010742188</ele>
        <time>2011-03-27T09:08:13Z</time>
      </trkpt>
      <trkpt lat="48.42215" lon="2.64024">
        <ele>115.01489257812</ele>
        <time>2011-03-27T09:08:16Z</time>
      </trkpt>
      <trkpt lat="48.42252" lon="2.64006">
        <ele>112.13098144531</ele>
        <time>2011-03-27T09:08:19Z</time>
      </trkpt>
      <trkpt lat="48.42276" lon="2.63992">
        <ele>107.80505371094</ele>
        <time>2011-03-27T09:08:21Z</time>
      </trkpt>
      <trkpt lat="48.42309" lon="2.6397">
        <ele>103.47900390625</ele>
        <time>2011-03-27T09:08:24Z</time>
      </trkpt>
      <trkpt lat="48.42331" lon="2.63962">
        <ele>102.51770019531</ele>
        <time>2011-03-27T09:08:26Z</time>
      </trkpt>
      <trkpt lat="48.42345" lon="2.63944">
        <ele>101.07568359375</ele>
        <time>2011-03-27T09:08:28Z</time>
      </trkpt>
      <trkpt lat="48.42353" lon="2.63928">
        <ele>102.037109375</ele>
        <time>2011-03-27T09:08:30Z</time>
      </trkpt>
      <trkpt lat="48.42378" lon="2.63896">
        <ele>103.95971679688</ele>
        <time>2011-03-27T09:08:36Z</time>
      </trkpt>
      <trkpt lat="48.424" lon="2.63874">
        <ele>105.40173339844</ele>
        <time>2011-03-27T09:08:42Z</time>
      </trkpt>
      <trkpt lat="48.42408" lon="2.63866">
        <ele>106.84362792969</ele>
        <time>2011-03-27T09:08:45Z</time>
      </trkpt>
      <trkpt lat="48.42424" lon="2.63849">
        <ele>108.28564453125</ele>
        <time>2011-03-27T09:08:51Z</time>
      </trkpt>
      <trkpt lat="48.42437" lon="2.63836">
        <ele>109.24694824219</ele>
        <time>2011-03-27T09:08:57Z</time>
      </trkpt>
      <trkpt lat="48.42441" lon="2.63832">
        <ele>109.72766113281</ele>
        <time>2011-03-27T09:08:59Z</time>
      </trkpt>
      <trkpt lat="48.42446" lon="2.63819">
        <ele>111.16955566406</ele>
        <time>2011-03-27T09:09:05Z</time>
      </trkpt>
      <trkpt lat="48.4245" lon="2.63809">
        <ele>112.61157226562</ele>
        <time>2011-03-27T09:09:09Z</time>
      </trkpt>
      <trkpt lat="48.42451" lon="2.63788">
        <ele>113.57299804688</ele>
        <time>2011-03-27T09:09:16Z</time>
      </trkpt>
      <trkpt lat="48.42455" lon="2.63775">
        <ele>115.49560546875</ele>
        <time>2011-03-27T09:09:21Z</time>
      </trkpt>
      <trkpt lat="48.42458" lon="2.63755">
        <ele>118.37939453125</ele>
        <time>2011-03-27T09:09:29Z</time>
      </trkpt>
      <trkpt lat="48.4246" lon="2.63739">
        <ele>118.86010742188</ele>
        <time>2011-03-27T09:09:35Z</time>
      </trkpt>
      <trkpt lat="48.42462" lon="2.63725">
        <ele>119.82141113281</ele>
        <time>2011-03-27T09:09:40Z</time>
      </trkpt>
      <trkpt lat="48.42465" lon="2.6371">
        <ele>120.78283691406</ele>
        <time>2011-03-27T09:09:45Z</time>
      </trkpt>
      <trkpt lat="48.42468" lon="2.63687">
        <ele>122.22473144531</ele>
        <time>2011-03-27T09:09:52Z</time>
      </trkpt>
      <trkpt lat="48.42469" lon="2.63684">
        <ele>121.744140625</ele>
        <time>2011-03-27T09:09:53Z</time>
      </trkpt>
      <trkpt lat="48.42472" lon="2.63665">
        <ele>122.70544433594</ele>
        <time>2011-03-27T09:10:00Z</time>
      </trkpt>
      <trkpt lat="48.42475" lon="2.63648">
        <ele>123.66674804688</ele>
        <time>2011-03-27T09:10:05Z</time>
      </trkpt>
      <trkpt lat="48.42478" lon="2.63627">
        <ele>124.14733886719</ele>
        <time>2011-03-27T09:10:11Z</time>
      </trkpt>
      <trkpt lat="48.42482" lon="2.63605">
        <ele>124.14733886719</ele>
        <time>2011-03-27T09:10:17Z</time>
      </trkpt>
      <trkpt lat="48.42486" lon="2.63582">
        <ele>124.62805175781</ele>
        <time>2011-03-27T09:10:22Z</time>
      </trkpt>
      <trkpt lat="48.4249" lon="2.63562">
        <ele>125.10876464844</ele>
        <time>2011-03-27T09:10:26Z</time>
      </trkpt>
      <trkpt lat="48.42495" lon="2.63526">
        <ele>124.14733886719</ele>
        <time>2011-03-27T09:10:32Z</time>
      </trkpt>
      <trkpt lat="48.42498" lon="2.63506">
        <ele>125.10876464844</ele>
        <time>2011-03-27T09:10:35Z</time>
      </trkpt>
      <trkpt lat="48.42505" lon="2.63472">
        <ele>124.62805175781</ele>
        <time>2011-03-27T09:10:40Z</time>
      </trkpt>
      <trkpt lat="48.42513" lon="2.63433">
        <ele>124.14733886719</ele>
        <time>2011-03-27T09:10:46Z</time>
      </trkpt>
      <trkpt lat="48.42516" lon="2.63409">
        <ele>125.10876464844</ele>
        <time>2011-03-27T09:10:49Z</time>
      </trkpt>
      <trkpt lat="48.42518" lon="2.63394">
        <ele>124.62805175781</ele>
        <time>2011-03-27T09:10:51Z</time>
      </trkpt>
      <trkpt lat="48.4252" lon="2.63372">
        <ele>124.62805175781</ele>
        <time>2011-03-27T09:10:54Z</time>
      </trkpt>
      <trkpt lat="48.42517" lon="2.6335">
        <ele>124.62805175781</ele>
        <time>2011-03-27T09:10:57Z</time>
      </trkpt>
      <trkpt lat="48.42516" lon="2.63321">
        <ele>123.66674804688</ele>
        <time>2011-03-27T09:11:01Z</time>
      </trkpt>
      <trkpt lat="48.42516" lon="2.63306">
        <ele>124.14733886719</ele>
        <time>2011-03-27T09:11:03Z</time>
      </trkpt>
      <trkpt lat="48.42515" lon="2.63266">
        <ele>124.14733886719</ele>
        <time>2011-03-27T09:11:09Z</time>
      </trkpt>
      <trkpt lat="48.42514" lon="2.63259">
        <ele>123.66674804688</ele>
        <time>2011-03-27T09:11:10Z</time>
      </trkpt>
      <trkpt lat="48.4251" lon="2.63222">
        <ele>122.22473144531</ele>
        <time>2011-03-27T09:11:14Z</time>
      </trkpt>
      <trkpt lat="48.42509" lon="2.6319">
        <ele>119.82141113281</ele>
        <time>2011-03-27T09:11:17Z</time>
      </trkpt>
      <trkpt lat="48.42509" lon="2.63137">
        <ele>116.45678710938</ele>
        <time>2011-03-27T09:11:21Z</time>
      </trkpt>
      <trkpt lat="48.42509" lon="2.63089">
        <ele>118.86010742188</ele>
        <time>2011-03-27T09:11:25Z</time>
      </trkpt>
      <trkpt lat="48.42509" lon="2.63079">
        <ele>118.86010742188</ele>
        <time>2011-03-27T09:11:26Z</time>
      </trkpt>
      <trkpt lat="48.42508" lon="2.6307">
        <ele>119.82141113281</ele>
        <time>2011-03-27T09:11:27Z</time>
      </trkpt>
      <trkpt lat="48.42506" lon="2.6303">
        <ele>119.82141113281</ele>
        <time>2011-03-27T09:11:32Z</time>
      </trkpt>
      <trkpt lat="48.42506" lon="2.63023">
        <ele>120.30212402344</ele>
        <time>2011-03-27T09:11:33Z</time>
      </trkpt>
      <trkpt lat="48.42495" lon="2.63013">
        <ele>119.82141113281</ele>
        <time>2011-03-27T09:11:37Z</time>
      </trkpt>
      <trkpt lat="48.42488" lon="2.63016">
        <ele>118.37939453125</ele>
        <time>2011-03-27T09:11:38Z</time>
      </trkpt>
      <trkpt lat="48.42455" lon="2.63025">
        <ele>114.5341796875</ele>
        <time>2011-03-27T09:11:42Z</time>
      </trkpt>
      <trkpt lat="48.42435" lon="2.63031">
        <ele>111.16955566406</ele>
        <time>2011-03-27T09:11:44Z</time>
      </trkpt>
      <trkpt lat="48.42411" lon="2.63035">
        <ele>106.84362792969</ele>
        <time>2011-03-27T09:11:46Z</time>
      </trkpt>
      <trkpt lat="48.42358" lon="2.63044">
        <ele>102.037109375</ele>
        <time>2011-03-27T09:11:50Z</time>
      </trkpt>
      <trkpt lat="48.42308" lon="2.63054">
        <ele>96.269287109375</ele>
        <time>2011-03-27T09:11:54Z</time>
      </trkpt>
      <trkpt lat="48.42297" lon="2.63058">
        <ele>97.23046875</ele>
        <time>2011-03-27T09:11:55Z</time>
      </trkpt>
      <trkpt lat="48.42262" lon="2.63064">
        <ele>92.904541015625</ele>
        <time>2011-03-27T09:11:58Z</time>
      </trkpt>
      <trkpt lat="48.42239" lon="2.63063">
        <ele>91.462524414062</ele>
        <time>2011-03-27T09:12:00Z</time>
      </trkpt>
      <trkpt lat="48.42217" lon="2.63055">
        <ele>92.423950195312</ele>
        <time>2011-03-27T09:12:02Z</time>
      </trkpt>
      <trkpt lat="48.42204" lon="2.63042">
        <ele>92.904541015625</ele>
        <time>2011-03-27T09:12:04Z</time>
      </trkpt>
      <trkpt lat="48.42157" lon="2.63004">
        <ele>92.423950195312</ele>
        <time>2011-03-27T09:12:11Z</time>
      </trkpt>
      <trkpt lat="48.42118" lon="2.62971">
        <ele>93.385131835938</ele>
        <time>2011-03-27T09:12:18Z</time>
      </trkpt>
      <trkpt lat="48.4209" lon="2.62949">
        <ele>94.346557617188</ele>
        <time>2011-03-27T09:12:24Z</time>
      </trkpt>
      <trkpt lat="48.42066" lon="2.62929">
        <ele>96.749877929688</ele>
        <time>2011-03-27T09:12:31Z</time>
      </trkpt>
      <trkpt lat="48.42047" lon="2.62917">
        <ele>97.23046875</ele>
        <time>2011-03-27T09:12:37Z</time>
      </trkpt>
      <trkpt lat="48.42033" lon="2.62904">
        <ele>97.711181640625</ele>
        <time>2011-03-27T09:12:43Z</time>
      </trkpt>
      <trkpt lat="48.42019" lon="2.62892">
        <ele>98.19189453125</ele>
        <time>2011-03-27T09:12:49Z</time>
      </trkpt>
      <trkpt lat="48.42005" lon="2.62885">
        <ele>101.07568359375</ele>
        <time>2011-03-27T09:12:55Z</time>
      </trkpt>
      <trkpt lat="48.4199" lon="2.62872">
        <ele>102.51770019531</ele>
        <time>2011-03-27T09:13:03Z</time>
      </trkpt>
      <trkpt lat="48.4198" lon="2.62865">
        <ele>102.51770019531</ele>
        <time>2011-03-27T09:13:09Z</time>
      </trkpt>
      <trkpt lat="48.41973" lon="2.62856">
        <ele>104.92102050781</ele>
        <time>2011-03-27T09:13:16Z</time>
      </trkpt>
      <trkpt lat="48.41964" lon="2.62852">
        <ele>107.32434082031</ele>
        <time>2011-03-27T09:13:23Z</time>
      </trkpt>
      <trkpt lat="48.41958" lon="2.62859">
        <ele>107.80505371094</ele>
        <time>2011-03-27T09:13:29Z</time>
      </trkpt>
      <trkpt lat="48.41956" lon="2.62866">
        <ele>109.24694824219</ele>
        <time>2011-03-27T09:13:33Z</time>
      </trkpt>
      <trkpt lat="48.41952" lon="2.6288">
        <ele>110.20825195312</ele>
        <time>2011-03-27T09:13:39Z</time>
      </trkpt>
      <trkpt lat="48.41942" lon="2.62895">
        <ele>112.13098144531</ele>
        <time>2011-03-27T09:13:48Z</time>
      </trkpt>
      <trkpt lat="48.4193" lon="2.62909">
        <ele>114.05358886719</ele>
        <time>2011-03-27T09:13:57Z</time>
      </trkpt>
      <trkpt lat="48.41917" lon="2.62917">
        <ele>115.97619628906</ele>
        <time>2011-03-27T09:14:06Z</time>
      </trkpt>
      <trkpt lat="48.41914" lon="2.62917">
        <ele>116.9375</ele>
        <time>2011-03-27T09:14:08Z</time>
      </trkpt>
      <trkpt lat="48.41902" lon="2.6291">
        <ele>118.37939453125</ele>
        <time>2011-03-27T09:14:15Z</time>
      </trkpt>
      <trkpt lat="48.4189" lon="2.62896">
        <ele>118.86010742188</ele>
        <time>2011-03-27T09:14:23Z</time>
      </trkpt>
      <trkpt lat="48.41876" lon="2.6288">
        <ele>120.30212402344</ele>
        <time>2011-03-27T09:14:31Z</time>
      </trkpt>
      <trkpt lat="48.41863" lon="2.62872">
        <ele>121.26354980469</ele>
        <time>2011-03-27T09:14:37Z</time>
      </trkpt>
      <trkpt lat="48.41844" lon="2.62865">
        <ele>122.70544433594</ele>
        <time>2011-03-27T09:14:45Z</time>
      </trkpt>
      <trkpt lat="48.41818" lon="2.62854">
        <ele>124.62805175781</ele>
        <time>2011-03-27T09:14:54Z</time>
      </trkpt>
      <trkpt lat="48.41796" lon="2.62843">
        <ele>124.14733886719</ele>
        <time>2011-03-27T09:15:01Z</time>
      </trkpt>
      <trkpt lat="48.4178" lon="2.62835">
        <ele>124.14733886719</ele>
        <time>2011-03-27T09:15:06Z</time>
      </trkpt>
      <trkpt lat="48.41748" lon="2.62823">
        <ele>124.14733886719</ele>
        <time>2011-03-27T09:15:14Z</time>
      </trkpt>
      <trkpt lat="48.41715" lon="2.6281">
        <ele>123.66674804688</ele>
        <time>2011-03-27T09:15:21Z</time>
      </trkpt>
      <trkpt lat="48.4168" lon="2.62797">
        <ele>121.744140625</ele>
        <time>2011-03-27T09:15:27Z</time>
      </trkpt>
      <trkpt lat="48.41659" lon="2.6279">
        <ele>119.82141113281</ele>
        <time>2011-03-27T09:15:30Z</time>
      </trkpt>
      <trkpt lat="48.41628" lon="2.62764">
        <ele>115.01489257812</ele>
        <time>2011-03-27T09:15:34Z</time>
      </trkpt>
      <trkpt lat="48.4162" lon="2.62754">
        <ele>115.01489257812</ele>
        <time>2011-03-27T09:15:35Z</time>
      </trkpt>
      <trkpt lat="48.41595" lon="2.62721">
        <ele>108.76623535156</ele>
        <time>2011-03-27T09:15:38Z</time>
      </trkpt>
      <trkpt lat="48.41574" lon="2.62663">
        <ele>105.88244628906</ele>
        <time>2011-03-27T09:15:42Z</time>
      </trkpt>
      <trkpt lat="48.41578" lon="2.62624">
        <ele>100.11450195312</ele>
        <time>2011-03-27T09:15:45Z</time>
      </trkpt>
      <trkpt lat="48.4159" lon="2.62602">
        <ele>97.711181640625</ele>
        <time>2011-03-27T09:15:47Z</time>
      </trkpt>
      <trkpt lat="48.41598" lon="2.62581">
        <ele>96.269287109375</ele>
        <time>2011-03-27T09:15:49Z</time>
      </trkpt>
      <trkpt lat="48.41589" lon="2.6254">
        <ele>95.307739257812</ele>
        <time>2011-03-27T09:15:53Z</time>
      </trkpt>
      <trkpt lat="48.41585" lon="2.62532">
        <ele>93.865844726562</ele>
        <time>2011-03-27T09:15:54Z</time>
      </trkpt>
      <trkpt lat="48.4158" lon="2.62508">
        <ele>94.8271484375</ele>
        <time>2011-03-27T09:15:59Z</time>
      </trkpt>
      <trkpt lat="48.41575" lon="2.62485">
        <ele>94.346557617188</ele>
        <time>2011-03-27T09:16:04Z</time>
      </trkpt>
      <trkpt lat="48.41565" lon="2.62476">
        <ele>95.307739257812</ele>
        <time>2011-03-27T09:16:08Z</time>
      </trkpt>
      <trkpt lat="48.41551" lon="2.62465">
        <ele>95.307739257812</ele>
        <time>2011-03-27T09:16:15Z</time>
      </trkpt>
      <trkpt lat="48.41539" lon="2.62453">
        <ele>98.19189453125</ele>
        <time>2011-03-27T09:16:22Z</time>
      </trkpt>
      <trkpt lat="48.41525" lon="2.62441">
        <ele>98.19189453125</ele>
        <time>2011-03-27T09:16:29Z</time>
      </trkpt>
      <trkpt lat="48.4151" lon="2.62428">
        <ele>99.153076171875</ele>
        <time>2011-03-27T09:16:37Z</time>
      </trkpt>
      <trkpt lat="48.41496" lon="2.62415">
        <ele>101.55639648438</ele>
        <time>2011-03-27T09:16:45Z</time>
      </trkpt>
      <trkpt lat="48.41494" lon="2.62414">
        <ele>101.55639648438</ele>
        <time>2011-03-27T09:16:46Z</time>
      </trkpt>
      <trkpt lat="48.41481" lon="2.624">
        <ele>103.47900390625</ele>
        <time>2011-03-27T09:16:54Z</time>
      </trkpt>
      <trkpt lat="48.41476" lon="2.62395">
        <ele>104.4404296875</ele>
        <time>2011-03-27T09:16:58Z</time>
      </trkpt>
      <trkpt lat="48.4147" lon="2.6239">
        <ele>105.40173339844</ele>
        <time>2011-03-27T09:17:01Z</time>
      </trkpt>
      <trkpt lat="48.41457" lon="2.62376">
        <ele>107.32434082031</ele>
        <time>2011-03-27T09:17:09Z</time>
      </trkpt>
      <trkpt lat="48.41444" lon="2.62363">
        <ele>108.76623535156</ele>
        <time>2011-03-27T09:17:17Z</time>
      </trkpt>
      <trkpt lat="48.41432" lon="2.62351">
        <ele>110.68884277344</ele>
        <time>2011-03-27T09:17:24Z</time>
      </trkpt>
      <trkpt lat="48.4142" lon="2.62338">
        <ele>112.13098144531</ele>
        <time>2011-03-27T09:17:32Z</time>
      </trkpt>
      <trkpt lat="48.41406" lon="2.62322">
        <ele>114.05358886719</ele>
        <time>2011-03-27T09:17:40Z</time>
      </trkpt>
      <trkpt lat="48.41391" lon="2.62308">
        <ele>116.45678710938</ele>
        <time>2011-03-27T09:17:47Z</time>
      </trkpt>
      <trkpt lat="48.41378" lon="2.62296">
        <ele>116.9375</ele>
        <time>2011-03-27T09:17:53Z</time>
      </trkpt>
      <trkpt lat="48.41363" lon="2.62282">
        <ele>117.41821289062</ele>
        <time>2011-03-27T09:17:59Z</time>
      </trkpt>
      <trkpt lat="48.41346" lon="2.62266">
        <ele>117.41821289062</ele>
        <time>2011-03-27T09:18:05Z</time>
      </trkpt>
      <trkpt lat="48.4133" lon="2.6225">
        <ele>118.37939453125</ele>
        <time>2011-03-27T09:18:11Z</time>
      </trkpt>
      <trkpt lat="48.41309" lon="2.62228">
        <ele>118.86010742188</ele>
        <time>2011-03-27T09:18:19Z</time>
      </trkpt>
      <trkpt lat="48.4129" lon="2.6221">
        <ele>118.86010742188</ele>
        <time>2011-03-27T09:18:25Z</time>
      </trkpt>
      <trkpt lat="48.41276" lon="2.62193">
        <ele>118.37939453125</ele>
        <time>2011-03-27T09:18:30Z</time>
      </trkpt>
      <trkpt lat="48.41263" lon="2.62171">
        <ele>117.41821289062</ele>
        <time>2011-03-27T09:18:34Z</time>
      </trkpt>
      <trkpt lat="48.41251" lon="2.62149">
        <ele>113.09228515625</ele>
        <time>2011-03-27T09:18:37Z</time>
      </trkpt>
      <trkpt lat="48.41244" lon="2.6214">
        <ele>111.16955566406</ele>
        <time>2011-03-27T09:18:38Z</time>
      </trkpt>
      <trkpt lat="48.41214" lon="2.62105">
        <ele>104.92102050781</ele>
        <time>2011-03-27T09:18:41Z</time>
      </trkpt>
      <trkpt lat="48.41196" lon="2.62082">
        <ele>103.47900390625</ele>
        <time>2011-03-27T09:18:43Z</time>
      </trkpt>
      <trkpt lat="48.41177" lon="2.62029">
        <ele>99.6337890625</ele>
        <time>2011-03-27T09:18:47Z</time>
      </trkpt>
      <trkpt lat="48.41159" lon="2.61967">
        <ele>96.269287109375</ele>
        <time>2011-03-27T09:18:51Z</time>
      </trkpt>
      <trkpt lat="48.41145" lon="2.61916">
        <ele>90.98193359375</ele>
        <time>2011-03-27T09:18:54Z</time>
      </trkpt>
      <trkpt lat="48.41136" lon="2.61885">
        <ele>89.539916992188</ele>
        <time>2011-03-27T09:18:56Z</time>
      </trkpt>
      <trkpt lat="48.41116" lon="2.61832">
        <ele>87.136596679688</ele>
        <time>2011-03-27T09:19:00Z</time>
      </trkpt>
      <trkpt lat="48.41113" lon="2.6182">
        <ele>87.136596679688</ele>
        <time>2011-03-27T09:19:01Z</time>
      </trkpt>
      <trkpt lat="48.41107" lon="2.61772">
        <ele>87.136596679688</ele>
        <time>2011-03-27T09:19:05Z</time>
      </trkpt>
      <trkpt lat="48.41109" lon="2.6176">
        <ele>86.17529296875</ele>
        <time>2011-03-27T09:19:06Z</time>
      </trkpt>
      <trkpt lat="48.41123" lon="2.61686">
        <ele>84.252685546875</ele>
        <time>2011-03-27T09:19:12Z</time>
      </trkpt>
      <trkpt lat="48.41137" lon="2.61617">
        <ele>83.291381835938</ele>
        <time>2011-03-27T09:19:18Z</time>
      </trkpt>
      <trkpt lat="48.41146" lon="2.61574">
        <ele>81.849365234375</ele>
        <time>2011-03-27T09:19:22Z</time>
      </trkpt>
      <trkpt lat="48.41156" lon="2.61523">
        <ele>81.368774414062</ele>
        <time>2011-03-27T09:19:27Z</time>
      </trkpt>
      <trkpt lat="48.41162" lon="2.61494">
        <ele>81.368774414062</ele>
        <time>2011-03-27T09:19:30Z</time>
      </trkpt>
      <trkpt lat="48.41161" lon="2.61466">
        <ele>80.88818359375</ele>
        <time>2011-03-27T09:19:33Z</time>
      </trkpt>
      <trkpt lat="48.41154" lon="2.61398">
        <ele>79.926635742188</ele>
        <time>2011-03-27T09:19:41Z</time>
      </trkpt>
      <trkpt lat="48.41151" lon="2.61382">
        <ele>79.926635742188</ele>
        <time>2011-03-27T09:19:43Z</time>
      </trkpt>
      <trkpt lat="48.4115" lon="2.61366">
        <ele>79.926635742188</ele>
        <time>2011-03-27T09:19:45Z</time>
      </trkpt>
      <trkpt lat="48.41145" lon="2.61328">
        <ele>79.446044921875</ele>
        <time>2011-03-27T09:19:51Z</time>
      </trkpt>
      <trkpt lat="48.41141" lon="2.61292">
        <ele>79.926635742188</ele>
        <time>2011-03-27T09:19:56Z</time>
      </trkpt>
      <trkpt lat="48.41138" lon="2.61263">
        <ele>79.926635742188</ele>
        <time>2011-03-27T09:20:00Z</time>
      </trkpt>
      <trkpt lat="48.41136" lon="2.61233">
        <ele>79.926635742188</ele>
        <time>2011-03-27T09:20:03Z</time>
      </trkpt>
      <trkpt lat="48.4113" lon="2.61171">
        <ele>79.446044921875</ele>
        <time>2011-03-27T09:20:10Z</time>
      </trkpt>
      <trkpt lat="48.41125" lon="2.61119">
        <ele>78.484741210938</ele>
        <time>2011-03-27T09:20:16Z</time>
      </trkpt>
      <trkpt lat="48.41123" lon="2.61092">
        <ele>78.004028320312</ele>
        <time>2011-03-27T09:20:19Z</time>
      </trkpt>
      <trkpt lat="48.41118" lon="2.61039">
        <ele>78.004028320312</ele>
        <time>2011-03-27T09:20:25Z</time>
      </trkpt>
      <trkpt lat="48.41117" lon="2.61019">
        <ele>77.5234375</ele>
        <time>2011-03-27T09:20:27Z</time>
      </trkpt>
      <trkpt lat="48.41116" lon="2.60979">
        <ele>78.004028320312</ele>
        <time>2011-03-27T09:20:31Z</time>
      </trkpt>
      <trkpt lat="48.41125" lon="2.60946">
        <ele>76.562133789062</ele>
        <time>2011-03-27T09:20:35Z</time>
      </trkpt>
      <trkpt lat="48.41137" lon="2.60939">
        <ele>77.042846679688</ele>
        <time>2011-03-27T09:20:38Z</time>
      </trkpt>
      <trkpt lat="48.41146" lon="2.60936">
        <ele>77.042846679688</ele>
        <time>2011-03-27T09:20:40Z</time>
      </trkpt>
      <trkpt lat="48.41182" lon="2.60922">
        <ele>75.600830078125</ele>
        <time>2011-03-27T09:20:46Z</time>
      </trkpt>
      <trkpt lat="48.41223" lon="2.60906">
        <ele>76.081420898438</ele>
        <time>2011-03-27T09:20:52Z</time>
      </trkpt>
      <trkpt lat="48.41244" lon="2.60898">
        <ele>74.639526367188</ele>
        <time>2011-03-27T09:20:55Z</time>
      </trkpt>
      <trkpt lat="48.41265" lon="2.60888">
        <ele>74.639526367188</ele>
        <time>2011-03-27T09:20:58Z</time>
      </trkpt>
      <trkpt lat="48.41283" lon="2.60863">
        <ele>75.120239257812</ele>
        <time>2011-03-27T09:21:02Z</time>
      </trkpt>
      <trkpt lat="48.41283" lon="2.60841">
        <ele>75.120239257812</ele>
        <time>2011-03-27T09:21:05Z</time>
      </trkpt>
      <trkpt lat="48.4127" lon="2.6078">
        <ele>74.639526367188</ele>
        <time>2011-03-27T09:21:11Z</time>
      </trkpt>
      <trkpt lat="48.41259" lon="2.60724">
        <ele>74.639526367188</ele>
        <time>2011-03-27T09:21:17Z</time>
      </trkpt>
      <trkpt lat="48.41249" lon="2.60673">
        <ele>74.639526367188</ele>
        <time>2011-03-27T09:21:23Z</time>
      </trkpt>
      <trkpt lat="48.41241" lon="2.60624">
        <ele>73.67822265625</ele>
        <time>2011-03-27T09:21:29Z</time>
      </trkpt>
      <trkpt lat="48.41239" lon="2.60617">
        <ele>74.639526367188</ele>
        <time>2011-03-27T09:21:30Z</time>
      </trkpt>
      <trkpt lat="48.41234" lon="2.60583">
        <ele>74.158813476562</ele>
        <time>2011-03-27T09:21:34Z</time>
      </trkpt>
      <trkpt lat="48.41225" lon="2.60531">
        <ele>72.716918945312</ele>
        <time>2011-03-27T09:21:40Z</time>
      </trkpt>
      <trkpt lat="48.41214" lon="2.60469">
        <ele>72.236206054688</ele>
        <time>2011-03-27T09:21:47Z</time>
      </trkpt>
      <trkpt lat="48.41212" lon="2.60461">
        <ele>72.716918945312</ele>
        <time>2011-03-27T09:21:48Z</time>
      </trkpt>
      <trkpt lat="48.41203" lon="2.60413">
        <ele>72.236206054688</ele>
        <time>2011-03-27T09:21:53Z</time>
      </trkpt>
      <trkpt lat="48.41194" lon="2.60356">
        <ele>72.236206054688</ele>
        <time>2011-03-27T09:21:59Z</time>
      </trkpt>
      <trkpt lat="48.41184" lon="2.60291">
        <ele>71.755493164062</ele>
        <time>2011-03-27T09:22:06Z</time>
      </trkpt>
      <trkpt lat="48.41183" lon="2.60282">
        <ele>71.755493164062</ele>
        <time>2011-03-27T09:22:07Z</time>
      </trkpt>
      <trkpt lat="48.41175" lon="2.60226">
        <ele>71.755493164062</ele>
        <time>2011-03-27T09:22:12Z</time>
      </trkpt>
      <trkpt lat="48.41166" lon="2.60167">
        <ele>71.27490234375</ele>
        <time>2011-03-27T09:22:17Z</time>
      </trkpt>
      <trkpt lat="48.41154" lon="2.60103">
        <ele>70.794189453125</ele>
        <time>2011-03-27T09:22:23Z</time>
      </trkpt>
      <trkpt lat="48.41147" lon="2.60057">
        <ele>71.27490234375</ele>
        <time>2011-03-27T09:22:28Z</time>
      </trkpt>
      <trkpt lat="48.41139" lon="2.60007">
        <ele>69.832885742188</ele>
        <time>2011-03-27T09:22:34Z</time>
      </trkpt>
      <trkpt lat="48.41129" lon="2.59939">
        <ele>69.832885742188</ele>
        <time>2011-03-27T09:22:42Z</time>
      </trkpt>
      <trkpt lat="48.41124" lon="2.59906">
        <ele>70.3134765625</ele>
        <time>2011-03-27T09:22:47Z</time>
      </trkpt>
      <trkpt lat="48.41116" lon="2.59868">
        <ele>69.832885742188</ele>
        <time>2011-03-27T09:22:54Z</time>
      </trkpt>
      <trkpt lat="48.41117" lon="2.59855">
        <ele>69.832885742188</ele>
        <time>2011-03-27T09:22:59Z</time>
      </trkpt>
      <trkpt lat="48.41126" lon="2.59851">
        <ele>70.794189453125</ele>
        <time>2011-03-27T09:23:05Z</time>
      </trkpt>
      <trkpt lat="48.41126" lon="2.59851">
        <ele>70.794189453125</ele>
        <time>2011-03-27T09:23:06Z</time>
      </trkpt>
      <trkpt lat="48.41149" lon="2.59852">
        <ele>70.3134765625</ele>
        <time>2011-03-27T09:23:59Z</time>
      </trkpt>
      <trkpt lat="48.4115" lon="2.59852">
        <ele>70.3134765625</ele>
        <time>2011-03-27T09:24:00Z</time>
      </trkpt>
      <trkpt lat="48.4114" lon="2.59853">
        <ele>70.794189453125</ele>
        <time>2011-03-27T09:25:07Z</time>
      </trkpt>
      <trkpt lat="48.41138" lon="2.59853">
        <ele>70.3134765625</ele>
        <time>2011-03-27T09:25:08Z</time>
      </trkpt>
      <trkpt lat="48.41129" lon="2.59856">
        <ele>70.794189453125</ele>
        <time>2011-03-27T09:33:13Z</time>
      </trkpt>
      <trkpt lat="48.41129" lon="2.59855">
        <ele>70.3134765625</ele>
        <time>2011-03-27T09:33:15Z</time>
      </trkpt>
      <trkpt lat="48.41122" lon="2.59849">
        <ele>70.3134765625</ele>
        <time>2011-03-27T09:34:18Z</time>
      </trkpt>
      <trkpt lat="48.41119" lon="2.5985">
        <ele>69.832885742188</ele>
        <time>2011-03-27T09:34:19Z</time>
      </trkpt>
      <trkpt lat="48.41116" lon="2.5986">
        <ele>70.3134765625</ele>
        <time>2011-03-27T09:34:25Z</time>
      </trkpt>
      <trkpt lat="48.41118" lon="2.59877">
        <ele>69.832885742188</ele>
        <time>2011-03-27T09:34:32Z</time>
      </trkpt>
      <trkpt lat="48.41119" lon="2.59903">
        <ele>69.832885742188</ele>
        <time>2011-03-27T09:34:39Z</time>
      </trkpt>
      <trkpt lat="48.4111" lon="2.59919">
        <ele>69.832885742188</ele>
        <time>2011-03-27T09:34:46Z</time>
      </trkpt>
      <trkpt lat="48.41106" lon="2.5993">
        <ele>70.794189453125</ele>
        <time>2011-03-27T09:34:51Z</time>
      </trkpt>
      <trkpt lat="48.41101" lon="2.59942">
        <ele>71.27490234375</ele>
        <time>2011-03-27T09:34:57Z</time>
      </trkpt>
      <trkpt lat="48.41101" lon="2.59945">
        <ele>71.27490234375</ele>
        <time>2011-03-27T09:34:58Z</time>
      </trkpt>
      <trkpt lat="48.41101" lon="2.59968">
        <ele>70.794189453125</ele>
        <time>2011-03-27T09:35:05Z</time>
      </trkpt>
      <trkpt lat="48.41099" lon="2.59996">
        <ele>71.755493164062</ele>
        <time>2011-03-27T09:35:12Z</time>
      </trkpt>
      <trkpt lat="48.41096" lon="2.60031">
        <ele>72.236206054688</ele>
        <time>2011-03-27T09:35:19Z</time>
      </trkpt>
      <trkpt lat="48.41094" lon="2.60066">
        <ele>71.27490234375</ele>
        <time>2011-03-27T09:35:26Z</time>
      </trkpt>
      <trkpt lat="48.4109" lon="2.60096">
        <ele>74.158813476562</ele>
        <time>2011-03-27T09:35:31Z</time>
      </trkpt>
      <trkpt lat="48.41084" lon="2.60144">
        <ele>72.236206054688</ele>
        <time>2011-03-27T09:35:38Z</time>
      </trkpt>
      <trkpt lat="48.4108" lon="2.60172">
        <ele>71.755493164062</ele>
        <time>2011-03-27T09:35:42Z</time>
      </trkpt>
      <trkpt lat="48.41076" lon="2.60202">
        <ele>72.716918945312</ele>
        <time>2011-03-27T09:35:46Z</time>
      </trkpt>
      <trkpt lat="48.41074" lon="2.60223">
        <ele>72.236206054688</ele>
        <time>2011-03-27T09:35:49Z</time>
      </trkpt>
      <trkpt lat="48.41067" lon="2.60279">
        <ele>71.755493164062</ele>
        <time>2011-03-27T09:35:57Z</time>
      </trkpt>
      <trkpt lat="48.41066" lon="2.60286">
        <ele>71.755493164062</ele>
        <time>2011-03-27T09:35:58Z</time>
      </trkpt>
      <trkpt lat="48.41055" lon="2.60367">
        <ele>72.236206054688</ele>
        <time>2011-03-27T09:36:09Z</time>
      </trkpt>
      <trkpt lat="48.4105" lon="2.60407">
        <ele>73.197631835938</ele>
        <time>2011-03-27T09:36:15Z</time>
      </trkpt>
      <trkpt lat="48.41047" lon="2.60445">
        <ele>73.197631835938</ele>
        <time>2011-03-27T09:36:21Z</time>
      </trkpt>
      <trkpt lat="48.41043" lon="2.60476">
        <ele>73.197631835938</ele>
        <time>2011-03-27T09:36:26Z</time>
      </trkpt>
      <trkpt lat="48.41039" lon="2.60509">
        <ele>72.716918945312</ele>
        <time>2011-03-27T09:36:31Z</time>
      </trkpt>
      <trkpt lat="48.41033" lon="2.60551">
        <ele>73.67822265625</ele>
        <time>2011-03-27T09:36:38Z</time>
      </trkpt>
      <trkpt lat="48.41028" lon="2.60593">
        <ele>74.158813476562</ele>
        <time>2011-03-27T09:36:45Z</time>
      </trkpt>
      <trkpt lat="48.41023" lon="2.60628">
        <ele>74.158813476562</ele>
        <time>2011-03-27T09:36:51Z</time>
      </trkpt>
      <trkpt lat="48.4102" lon="2.60667">
        <ele>74.639526367188</ele>
        <time>2011-03-27T09:36:57Z</time>
      </trkpt>
      <trkpt lat="48.41014" lon="2.60712">
        <ele>75.120239257812</ele>
        <time>2011-03-27T09:37:05Z</time>
      </trkpt>
      <trkpt lat="48.41011" lon="2.60745">
        <ele>76.081420898438</ele>
        <time>2011-03-27T09:37:12Z</time>
      </trkpt>
      <trkpt lat="48.41007" lon="2.60764">
        <ele>76.562133789062</ele>
        <time>2011-03-27T09:37:17Z</time>
      </trkpt>
      <trkpt lat="48.4099" lon="2.60786">
        <ele>77.042846679688</ele>
        <time>2011-03-27T09:37:22Z</time>
      </trkpt>
      <trkpt lat="48.4097" lon="2.60781">
        <ele>77.5234375</ele>
        <time>2011-03-27T09:37:28Z</time>
      </trkpt>
      <trkpt lat="48.40942" lon="2.60777">
        <ele>78.484741210938</ele>
        <time>2011-03-27T09:37:35Z</time>
      </trkpt>
      <trkpt lat="48.40918" lon="2.60778">
        <ele>79.926635742188</ele>
        <time>2011-03-27T09:37:41Z</time>
      </trkpt>
      <trkpt lat="48.40896" lon="2.60786">
        <ele>80.88818359375</ele>
        <time>2011-03-27T09:37:48Z</time>
      </trkpt>
      <trkpt lat="48.40879" lon="2.60791">
        <ele>81.368774414062</ele>
        <time>2011-03-27T09:37:54Z</time>
      </trkpt>
      <trkpt lat="48.40867" lon="2.60793">
        <ele>82.810791015625</ele>
        <time>2011-03-27T09:37:58Z</time>
      </trkpt>
      <trkpt lat="48.40847" lon="2.60794">
        <ele>83.291381835938</ele>
        <time>2011-03-27T09:38:05Z</time>
      </trkpt>
      <trkpt lat="48.40829" lon="2.608">
        <ele>84.7333984375</ele>
        <time>2011-03-27T09:38:12Z</time>
      </trkpt>
      <trkpt lat="48.40811" lon="2.60815">
        <ele>86.17529296875</ele>
        <time>2011-03-27T09:38:20Z</time>
      </trkpt>
      <trkpt lat="48.40801" lon="2.60826">
        <ele>87.6171875</ele>
        <time>2011-03-27T09:38:25Z</time>
      </trkpt>
      <trkpt lat="48.4079" lon="2.60839">
        <ele>87.6171875</ele>
        <time>2011-03-27T09:38:30Z</time>
      </trkpt>
      <trkpt lat="48.40778" lon="2.60856">
        <ele>88.578735351562</ele>
        <time>2011-03-27T09:38:36Z</time>
      </trkpt>
      <trkpt lat="48.4077" lon="2.60876">
        <ele>89.059326171875</ele>
        <time>2011-03-27T09:38:42Z</time>
      </trkpt>
      <trkpt lat="48.40766" lon="2.60905">
        <ele>89.539916992188</ele>
        <time>2011-03-27T09:38:48Z</time>
      </trkpt>
      <trkpt lat="48.40764" lon="2.60938">
        <ele>90.020629882812</ele>
        <time>2011-03-27T09:38:55Z</time>
      </trkpt>
      <trkpt lat="48.40762" lon="2.60974">
        <ele>90.501342773438</ele>
        <time>2011-03-27T09:39:02Z</time>
      </trkpt>
      <trkpt lat="48.40757" lon="2.6101">
        <ele>91.943237304688</ele>
        <time>2011-03-27T09:39:10Z</time>
      </trkpt>
      <trkpt lat="48.40755" lon="2.61041">
        <ele>93.385131835938</ele>
        <time>2011-03-27T09:39:17Z</time>
      </trkpt>
      <trkpt lat="48.40754" lon="2.61072">
        <ele>94.346557617188</ele>
        <time>2011-03-27T09:39:24Z</time>
      </trkpt>
      <trkpt lat="48.40752" lon="2.61109">
        <ele>95.307739257812</ele>
        <time>2011-03-27T09:39:31Z</time>
      </trkpt>
      <trkpt lat="48.40753" lon="2.61145">
        <ele>96.749877929688</ele>
        <time>2011-03-27T09:39:39Z</time>
      </trkpt>
      <trkpt lat="48.40752" lon="2.61169">
        <ele>97.23046875</ele>
        <time>2011-03-27T09:39:46Z</time>
      </trkpt>
      <trkpt lat="48.40748" lon="2.6119">
        <ele>97.23046875</ele>
        <time>2011-03-27T09:39:52Z</time>
      </trkpt>
      <trkpt lat="48.40744" lon="2.61223">
        <ele>98.672485351562</ele>
        <time>2011-03-27T09:40:00Z</time>
      </trkpt>
      <trkpt lat="48.40742" lon="2.61255">
        <ele>100.11450195312</ele>
        <time>2011-03-27T09:40:07Z</time>
      </trkpt>
      <trkpt lat="48.40739" lon="2.61279">
        <ele>100.11450195312</ele>
        <time>2011-03-27T09:40:12Z</time>
      </trkpt>
      <trkpt lat="48.40734" lon="2.6131">
        <ele>101.07568359375</ele>
        <time>2011-03-27T09:40:18Z</time>
      </trkpt>
      <trkpt lat="48.40725" lon="2.61355">
        <ele>101.55639648438</ele>
        <time>2011-03-27T09:40:24Z</time>
      </trkpt>
      <trkpt lat="48.40719" lon="2.61385">
        <ele>102.99829101562</ele>
        <time>2011-03-27T09:40:29Z</time>
      </trkpt>
      <trkpt lat="48.40712" lon="2.6141">
        <ele>103.47900390625</ele>
        <time>2011-03-27T09:40:34Z</time>
      </trkpt>
      <trkpt lat="48.40705" lon="2.61446">
        <ele>104.92102050781</ele>
        <time>2011-03-27T09:40:41Z</time>
      </trkpt>
      <trkpt lat="48.40701" lon="2.61479">
        <ele>104.4404296875</ele>
        <time>2011-03-27T09:40:46Z</time>
      </trkpt>
      <trkpt lat="48.40698" lon="2.61503">
        <ele>102.51770019531</ele>
        <time>2011-03-27T09:40:49Z</time>
      </trkpt>
      <trkpt lat="48.40691" lon="2.61567">
        <ele>99.6337890625</ele>
        <time>2011-03-27T09:40:56Z</time>
      </trkpt>
      <trkpt lat="48.40683" lon="2.61613">
        <ele>98.672485351562</ele>
        <time>2011-03-27T09:41:01Z</time>
      </trkpt>
      <trkpt lat="48.40677" lon="2.61675">
        <ele>98.19189453125</ele>
        <time>2011-03-27T09:41:08Z</time>
      </trkpt>
      <trkpt lat="48.40666" lon="2.61751">
        <ele>98.19189453125</ele>
        <time>2011-03-27T09:41:15Z</time>
      </trkpt>
      <trkpt lat="48.4066" lon="2.61789">
        <ele>98.19189453125</ele>
        <time>2011-03-27T09:41:21Z</time>
      </trkpt>
      <trkpt lat="48.40657" lon="2.61814">
        <ele>99.6337890625</ele>
        <time>2011-03-27T09:41:26Z</time>
      </trkpt>
      <trkpt lat="48.40654" lon="2.61847">
        <ele>100.59509277344</ele>
        <time>2011-03-27T09:41:33Z</time>
      </trkpt>
      <trkpt lat="48.4065" lon="2.6188">
        <ele>100.59509277344</ele>
        <time>2011-03-27T09:41:39Z</time>
      </trkpt>
      <trkpt lat="48.40646" lon="2.61909">
        <ele>100.59509277344</ele>
        <time>2011-03-27T09:41:44Z</time>
      </trkpt>
      <trkpt lat="48.40638" lon="2.61962">
        <ele>100.59509277344</ele>
        <time>2011-03-27T09:41:53Z</time>
      </trkpt>
      <trkpt lat="48.40635" lon="2.61985">
        <ele>100.59509277344</ele>
        <time>2011-03-27T09:41:57Z</time>
      </trkpt>
      <trkpt lat="48.4063" lon="2.6202">
        <ele>101.07568359375</ele>
        <time>2011-03-27T09:42:04Z</time>
      </trkpt>
      <trkpt lat="48.40627" lon="2.62045">
        <ele>102.037109375</ele>
        <time>2011-03-27T09:42:10Z</time>
      </trkpt>
      <trkpt lat="48.40627" lon="2.62068">
        <ele>102.99829101562</ele>
        <time>2011-03-27T09:42:16Z</time>
      </trkpt>
      <trkpt lat="48.40622" lon="2.6209">
        <ele>104.4404296875</ele>
        <time>2011-03-27T09:42:21Z</time>
      </trkpt>
      <trkpt lat="48.40619" lon="2.62115">
        <ele>105.88244628906</ele>
        <time>2011-03-27T09:42:27Z</time>
      </trkpt>
      <trkpt lat="48.40616" lon="2.62136">
        <ele>107.32434082031</ele>
        <time>2011-03-27T09:42:33Z</time>
      </trkpt>
      <trkpt lat="48.40612" lon="2.62161">
        <ele>109.24694824219</ele>
        <time>2011-03-27T09:42:40Z</time>
      </trkpt>
      <trkpt lat="48.40609" lon="2.62178">
        <ele>110.20825195312</ele>
        <time>2011-03-27T09:42:46Z</time>
      </trkpt>
      <trkpt lat="48.40607" lon="2.62196">
        <ele>111.65026855469</ele>
        <time>2011-03-27T09:42:53Z</time>
      </trkpt>
      <trkpt lat="48.40602" lon="2.62213">
        <ele>112.61157226562</ele>
        <time>2011-03-27T09:42:59Z</time>
      </trkpt>
      <trkpt lat="48.40601" lon="2.62229">
        <ele>113.57299804688</ele>
        <time>2011-03-27T09:43:04Z</time>
      </trkpt>
      <trkpt lat="48.40599" lon="2.62241">
        <ele>114.05358886719</ele>
        <time>2011-03-27T09:43:07Z</time>
      </trkpt>
      <trkpt lat="48.40594" lon="2.62252">
        <ele>115.01489257812</ele>
        <time>2011-03-27T09:43:12Z</time>
      </trkpt>
      <trkpt lat="48.40591" lon="2.62282">
        <ele>114.5341796875</ele>
        <time>2011-03-27T09:43:19Z</time>
      </trkpt>
      <trkpt lat="48.40589" lon="2.62302">
        <ele>113.57299804688</ele>
        <time>2011-03-27T09:43:23Z</time>
      </trkpt>
      <trkpt lat="48.40585" lon="2.6233">
        <ele>111.65026855469</ele>
        <time>2011-03-27T09:43:26Z</time>
      </trkpt>
      <trkpt lat="48.40583" lon="2.6235">
        <ele>109.72766113281</ele>
        <time>2011-03-27T09:43:28Z</time>
      </trkpt>
      <trkpt lat="48.40577" lon="2.62402">
        <ele>107.80505371094</ele>
        <time>2011-03-27T09:43:33Z</time>
      </trkpt>
      <trkpt lat="48.40568" lon="2.62467">
        <ele>105.88244628906</ele>
        <time>2011-03-27T09:43:40Z</time>
      </trkpt>
      <trkpt lat="48.40558" lon="2.62543">
        <ele>105.40173339844</ele>
        <time>2011-03-27T09:43:47Z</time>
      </trkpt>
      <trkpt lat="48.40551" lon="2.62602">
        <ele>104.92102050781</ele>
        <time>2011-03-27T09:43:53Z</time>
      </trkpt>
      <trkpt lat="48.40545" lon="2.62646">
        <ele>105.40173339844</ele>
        <time>2011-03-27T09:43:58Z</time>
      </trkpt>
      <trkpt lat="48.40538" lon="2.62687">
        <ele>106.36303710938</ele>
        <time>2011-03-27T09:44:04Z</time>
      </trkpt>
      <trkpt lat="48.40537" lon="2.62705">
        <ele>106.36303710938</ele>
        <time>2011-03-27T09:44:08Z</time>
      </trkpt>
      <trkpt lat="48.40534" lon="2.62729">
        <ele>106.36303710938</ele>
        <time>2011-03-27T09:44:13Z</time>
      </trkpt>
      <trkpt lat="48.4053" lon="2.62763">
        <ele>107.32434082031</ele>
        <time>2011-03-27T09:44:19Z</time>
      </trkpt>
      <trkpt lat="48.40525" lon="2.62794">
        <ele>108.28564453125</ele>
        <time>2011-03-27T09:44:25Z</time>
      </trkpt>
      <trkpt lat="48.40522" lon="2.62823">
        <ele>109.24694824219</ele>
        <time>2011-03-27T09:44:31Z</time>
      </trkpt>
      <trkpt lat="48.40519" lon="2.62849">
        <ele>110.20825195312</ele>
        <time>2011-03-27T09:44:37Z</time>
      </trkpt>
      <trkpt lat="48.40518" lon="2.62877">
        <ele>110.20825195312</ele>
        <time>2011-03-27T09:44:42Z</time>
      </trkpt>
      <trkpt lat="48.40519" lon="2.62906">
        <ele>111.65026855469</ele>
        <time>2011-03-27T09:44:48Z</time>
      </trkpt>
      <trkpt lat="48.40517" lon="2.62932">
        <ele>112.13098144531</ele>
        <time>2011-03-27T09:44:54Z</time>
      </trkpt>
      <trkpt lat="48.40517" lon="2.62958">
        <ele>113.09228515625</ele>
        <time>2011-03-27T09:45:00Z</time>
      </trkpt>
      <trkpt lat="48.40516" lon="2.62983">
        <ele>113.57299804688</ele>
        <time>2011-03-27T09:45:05Z</time>
      </trkpt>
      <trkpt lat="48.40515" lon="2.63014">
        <ele>114.05358886719</ele>
        <time>2011-03-27T09:45:12Z</time>
      </trkpt>
      <trkpt lat="48.40514" lon="2.63042">
        <ele>115.01489257812</ele>
        <time>2011-03-27T09:45:19Z</time>
      </trkpt>
      <trkpt lat="48.40511" lon="2.63063">
        <ele>116.9375</ele>
        <time>2011-03-27T09:45:25Z</time>
      </trkpt>
      <trkpt lat="48.40509" lon="2.63083">
        <ele>117.89880371094</ele>
        <time>2011-03-27T09:45:32Z</time>
      </trkpt>
      <trkpt lat="48.40506" lon="2.63103">
        <ele>118.86010742188</ele>
        <time>2011-03-27T09:45:38Z</time>
      </trkpt>
      <trkpt lat="48.40507" lon="2.63127">
        <ele>119.82141113281</ele>
        <time>2011-03-27T09:45:45Z</time>
      </trkpt>
      <trkpt lat="48.40507" lon="2.63152">
        <ele>119.82141113281</ele>
        <time>2011-03-27T09:45:51Z</time>
      </trkpt>
      <trkpt lat="48.40508" lon="2.63163">
        <ele>120.30212402344</ele>
        <time>2011-03-27T09:45:54Z</time>
      </trkpt>
      <trkpt lat="48.40512" lon="2.63174">
        <ele>120.78283691406</ele>
        <time>2011-03-27T09:46:00Z</time>
      </trkpt>
      <trkpt lat="48.40507" lon="2.63179">
        <ele>120.30212402344</ele>
        <time>2011-03-27T09:46:06Z</time>
      </trkpt>
      <trkpt lat="48.40505" lon="2.63179">
        <ele>120.78283691406</ele>
        <time>2011-03-27T09:46:08Z</time>
      </trkpt>
      <trkpt lat="48.40502" lon="2.63179">
        <ele>121.26354980469</ele>
        <time>2011-03-27T09:46:11Z</time>
      </trkpt>
      <trkpt lat="48.405" lon="2.6319">
        <ele>120.78283691406</ele>
        <time>2011-03-27T09:46:18Z</time>
      </trkpt>
      <trkpt lat="48.40499" lon="2.63207">
        <ele>121.744140625</ele>
        <time>2011-03-27T09:46:26Z</time>
      </trkpt>
      <trkpt lat="48.40498" lon="2.63227">
        <ele>122.70544433594</ele>
        <time>2011-03-27T09:46:34Z</time>
      </trkpt>
      <trkpt lat="48.40495" lon="2.63246">
        <ele>122.70544433594</ele>
        <time>2011-03-27T09:46:41Z</time>
      </trkpt>
      <trkpt lat="48.40493" lon="2.63266">
        <ele>123.18615722656</ele>
        <time>2011-03-27T09:46:48Z</time>
      </trkpt>
      <trkpt lat="48.40491" lon="2.63283">
        <ele>123.66674804688</ele>
        <time>2011-03-27T09:46:55Z</time>
      </trkpt>
      <trkpt lat="48.40491" lon="2.63293">
        <ele>122.70544433594</ele>
        <time>2011-03-27T09:47:01Z</time>
      </trkpt>
      <trkpt lat="48.40488" lon="2.63309">
        <ele>123.18615722656</ele>
        <time>2011-03-27T09:47:06Z</time>
      </trkpt>
      <trkpt lat="48.40485" lon="2.63338">
        <ele>123.18615722656</ele>
        <time>2011-03-27T09:47:12Z</time>
      </trkpt>
      <trkpt lat="48.4048" lon="2.6338">
        <ele>123.18615722656</ele>
        <time>2011-03-27T09:47:20Z</time>
      </trkpt>
      <trkpt lat="48.40475" lon="2.63414">
        <ele>124.14733886719</ele>
        <time>2011-03-27T09:47:27Z</time>
      </trkpt>
      <trkpt lat="48.4047" lon="2.63451">
        <ele>124.14733886719</ele>
        <time>2011-03-27T09:47:34Z</time>
      </trkpt>
      <trkpt lat="48.40464" lon="2.63492">
        <ele>125.10876464844</ele>
        <time>2011-03-27T09:47:41Z</time>
      </trkpt>
      <trkpt lat="48.40458" lon="2.63526">
        <ele>125.10876464844</ele>
        <time>2011-03-27T09:47:47Z</time>
      </trkpt>
      <trkpt lat="48.40454" lon="2.63559">
        <ele>125.10876464844</ele>
        <time>2011-03-27T09:47:53Z</time>
      </trkpt>
      <trkpt lat="48.4045" lon="2.63585">
        <ele>125.10876464844</ele>
        <time>2011-03-27T09:47:58Z</time>
      </trkpt>
      <trkpt lat="48.40446" lon="2.63622">
        <ele>124.62805175781</ele>
        <time>2011-03-27T09:48:05Z</time>
      </trkpt>
      <trkpt lat="48.40441" lon="2.6365">
        <ele>124.62805175781</ele>
        <time>2011-03-27T09:48:10Z</time>
      </trkpt>
      <trkpt lat="48.40436" lon="2.63687">
        <ele>124.14733886719</ele>
        <time>2011-03-27T09:48:17Z</time>
      </trkpt>
      <trkpt lat="48.40433" lon="2.63716">
        <ele>125.10876464844</ele>
        <time>2011-03-27T09:48:23Z</time>
      </trkpt>
      <trkpt lat="48.4043" lon="2.6374">
        <ele>124.62805175781</ele>
        <time>2011-03-27T09:48:28Z</time>
      </trkpt>
      <trkpt lat="48.40427" lon="2.63767">
        <ele>124.62805175781</ele>
        <time>2011-03-27T09:48:33Z</time>
      </trkpt>
      <trkpt lat="48.40422" lon="2.63799">
        <ele>124.14733886719</ele>
        <time>2011-03-27T09:48:39Z</time>
      </trkpt>
      <trkpt lat="48.40418" lon="2.63823">
        <ele>124.14733886719</ele>
        <time>2011-03-27T09:48:44Z</time>
      </trkpt>
      <trkpt lat="48.40412" lon="2.6385">
        <ele>124.14733886719</ele>
        <time>2011-03-27T09:48:49Z</time>
      </trkpt>
      <trkpt lat="48.40406" lon="2.63865">
        <ele>124.14733886719</ele>
        <time>2011-03-27T09:48:52Z</time>
      </trkpt>
      <trkpt lat="48.40401" lon="2.63891">
        <ele>124.14733886719</ele>
        <time>2011-03-27T09:48:56Z</time>
      </trkpt>
      <trkpt lat="48.40389" lon="2.63932">
        <ele>123.18615722656</ele>
        <time>2011-03-27T09:49:02Z</time>
      </trkpt>
      <trkpt lat="48.40384" lon="2.63953">
        <ele>122.22473144531</ele>
        <time>2011-03-27T09:49:04Z</time>
      </trkpt>
      <trkpt lat="48.40368" lon="2.64013">
        <ele>116.9375</ele>
        <time>2011-03-27T09:49:09Z</time>
      </trkpt>
      <trkpt lat="48.40362" lon="2.64042">
        <ele>115.97619628906</ele>
        <time>2011-03-27T09:49:11Z</time>
      </trkpt>
      <trkpt lat="48.40354" lon="2.64087">
        <ele>111.16955566406</ele>
        <time>2011-03-27T09:49:14Z</time>
      </trkpt>
      <trkpt lat="48.40352" lon="2.64102">
        <ele>111.16955566406</ele>
        <time>2011-03-27T09:49:15Z</time>
      </trkpt>
      <trkpt lat="48.40348" lon="2.64131">
        <ele>109.72766113281</ele>
        <time>2011-03-27T09:49:17Z</time>
      </trkpt>
      <trkpt lat="48.40337" lon="2.64213">
        <ele>106.36303710938</ele>
        <time>2011-03-27T09:49:22Z</time>
      </trkpt>
      <trkpt lat="48.40335" lon="2.64228">
        <ele>105.88244628906</ele>
        <time>2011-03-27T09:49:23Z</time>
      </trkpt>
      <trkpt lat="48.40324" lon="2.64287">
        <ele>104.4404296875</ele>
        <time>2011-03-27T09:49:27Z</time>
      </trkpt>
      <trkpt lat="48.4032" lon="2.64313">
        <ele>103.47900390625</ele>
        <time>2011-03-27T09:49:29Z</time>
      </trkpt>
      <trkpt lat="48.40311" lon="2.64383">
        <ele>102.037109375</ele>
        <time>2011-03-27T09:49:35Z</time>
      </trkpt>
      <trkpt lat="48.40302" lon="2.64442">
        <ele>99.6337890625</ele>
        <time>2011-03-27T09:49:40Z</time>
      </trkpt>
      <trkpt lat="48.40292" lon="2.64513">
        <ele>99.153076171875</ele>
        <time>2011-03-27T09:49:47Z</time>
      </trkpt>
      <trkpt lat="48.40286" lon="2.64562">
        <ele>97.23046875</ele>
        <time>2011-03-27T09:49:52Z</time>
      </trkpt>
      <trkpt lat="48.40285" lon="2.64571">
        <ele>97.711181640625</ele>
        <time>2011-03-27T09:49:53Z</time>
      </trkpt>
      <trkpt lat="48.40275" lon="2.64635">
        <ele>96.749877929688</ele>
        <time>2011-03-27T09:50:00Z</time>
      </trkpt>
      <trkpt lat="48.40265" lon="2.64701">
        <ele>95.307739257812</ele>
        <time>2011-03-27T09:50:07Z</time>
      </trkpt>
      <trkpt lat="48.40262" lon="2.64719">
        <ele>95.307739257812</ele>
        <time>2011-03-27T09:50:09Z</time>
      </trkpt>
      <trkpt lat="48.40255" lon="2.64765">
        <ele>94.346557617188</ele>
        <time>2011-03-27T09:50:14Z</time>
      </trkpt>
      <trkpt lat="48.40251" lon="2.64798">
        <ele>93.865844726562</ele>
        <time>2011-03-27T09:50:18Z</time>
      </trkpt>
      <trkpt lat="48.40239" lon="2.64869">
        <ele>93.385131835938</ele>
        <time>2011-03-27T09:50:26Z</time>
      </trkpt>
      <trkpt lat="48.40233" lon="2.64907">
        <ele>92.904541015625</ele>
        <time>2011-03-27T09:50:30Z</time>
      </trkpt>
      <trkpt lat="48.40231" lon="2.64932">
        <ele>91.462524414062</ele>
        <time>2011-03-27T09:50:33Z</time>
      </trkpt>
      <trkpt lat="48.40225" lon="2.64994">
        <ele>90.98193359375</ele>
        <time>2011-03-27T09:50:40Z</time>
      </trkpt>
      <trkpt lat="48.40217" lon="2.65036">
        <ele>90.020629882812</ele>
        <time>2011-03-27T09:50:45Z</time>
      </trkpt>
      <trkpt lat="48.4021" lon="2.65087">
        <ele>89.059326171875</ele>
        <time>2011-03-27T09:50:51Z</time>
      </trkpt>
      <trkpt lat="48.402" lon="2.65154">
        <ele>88.098022460938</ele>
        <time>2011-03-27T09:50:58Z</time>
      </trkpt>
      <trkpt lat="48.40193" lon="2.65202">
        <ele>87.6171875</ele>
        <time>2011-03-27T09:51:04Z</time>
      </trkpt>
      <trkpt lat="48.40185" lon="2.6526">
        <ele>87.136596679688</ele>
        <time>2011-03-27T09:51:11Z</time>
      </trkpt>
      <trkpt lat="48.40178" lon="2.65309">
        <ele>86.17529296875</ele>
        <time>2011-03-27T09:51:17Z</time>
      </trkpt>
      <trkpt lat="48.40172" lon="2.65356">
        <ele>86.656005859375</ele>
        <time>2011-03-27T09:51:23Z</time>
      </trkpt>
      <trkpt lat="48.40164" lon="2.65411">
        <ele>84.7333984375</ele>
        <time>2011-03-27T09:51:30Z</time>
      </trkpt>
      <trkpt lat="48.40159" lon="2.65467">
        <ele>83.77197265625</ele>
        <time>2011-03-27T09:51:37Z</time>
      </trkpt>
      <trkpt lat="48.40158" lon="2.65483">
        <ele>84.252685546875</ele>
        <time>2011-03-27T09:51:39Z</time>
      </trkpt>
      <trkpt lat="48.40153" lon="2.65538">
        <ele>84.252685546875</ele>
        <time>2011-03-27T09:51:45Z</time>
      </trkpt>
      <trkpt lat="48.40148" lon="2.65595">
        <ele>83.77197265625</ele>
        <time>2011-03-27T09:51:52Z</time>
      </trkpt>
      <trkpt lat="48.40141" lon="2.65661">
        <ele>83.291381835938</ele>
        <time>2011-03-27T09:52:00Z</time>
      </trkpt>
      <trkpt lat="48.40136" lon="2.65713">
        <ele>83.291381835938</ele>
        <time>2011-03-27T09:52:06Z</time>
      </trkpt>
      <trkpt lat="48.4013" lon="2.65771">
        <ele>82.330078125</ele>
        <time>2011-03-27T09:52:13Z</time>
      </trkpt>
      <trkpt lat="48.40126" lon="2.65809">
        <ele>81.368774414062</ele>
        <time>2011-03-27T09:52:18Z</time>
      </trkpt>
      <trkpt lat="48.40126" lon="2.65871">
        <ele>80.88818359375</ele>
        <time>2011-03-27T09:52:25Z</time>
      </trkpt>
      <trkpt lat="48.40126" lon="2.65897">
        <ele>79.926635742188</ele>
        <time>2011-03-27T09:52:28Z</time>
      </trkpt>
      <trkpt lat="48.40125" lon="2.65934">
        <ele>79.446044921875</ele>
        <time>2011-03-27T09:52:32Z</time>
      </trkpt>
      <trkpt lat="48.40113" lon="2.65993">
        <ele>79.446044921875</ele>
        <time>2011-03-27T09:52:39Z</time>
      </trkpt>
      <trkpt lat="48.4011" lon="2.66002">
        <ele>79.446044921875</ele>
        <time>2011-03-27T09:52:40Z</time>
      </trkpt>
      <trkpt lat="48.40108" lon="2.66018">
        <ele>79.926635742188</ele>
        <time>2011-03-27T09:52:42Z</time>
      </trkpt>
      <trkpt lat="48.40117" lon="2.6603">
        <ele>78.484741210938</ele>
        <time>2011-03-27T09:52:46Z</time>
      </trkpt>
      <trkpt lat="48.40121" lon="2.6603">
        <ele>78.484741210938</ele>
        <time>2011-03-27T09:52:47Z</time>
      </trkpt>
      <trkpt lat="48.40143" lon="2.66031">
        <ele>79.926635742188</ele>
        <time>2011-03-27T09:52:52Z</time>
      </trkpt>
      <trkpt lat="48.40169" lon="2.66031">
        <ele>79.926635742188</ele>
        <time>2011-03-27T09:52:57Z</time>
      </trkpt>
      <trkpt lat="48.40195" lon="2.66037">
        <ele>80.407470703125</ele>
        <time>2011-03-27T09:53:02Z</time>
      </trkpt>
      <trkpt lat="48.40238" lon="2.66042">
        <ele>79.926635742188</ele>
        <time>2011-03-27T09:53:10Z</time>
      </trkpt>
      <trkpt lat="48.40287" lon="2.66049">
        <ele>80.88818359375</ele>
        <time>2011-03-27T09:53:20Z</time>
      </trkpt>
      <trkpt lat="48.40327" lon="2.66055">
        <ele>80.88818359375</ele>
        <time>2011-03-27T09:53:29Z</time>
      </trkpt>
      <trkpt lat="48.40359" lon="2.66058">
        <ele>82.330078125</ele>
        <time>2011-03-27T09:53:37Z</time>
      </trkpt>
      <trkpt lat="48.40372" lon="2.66052">
        <ele>82.810791015625</ele>
        <time>2011-03-27T09:53:41Z</time>
      </trkpt>
      <trkpt lat="48.40378" lon="2.66035">
        <ele>83.77197265625</ele>
        <time>2011-03-27T09:53:45Z</time>
      </trkpt>
      <trkpt lat="48.4038" lon="2.66005">
        <ele>84.252685546875</ele>
        <time>2011-03-27T09:53:51Z</time>
      </trkpt>
      <trkpt lat="48.40378" lon="2.65981">
        <ele>84.7333984375</ele>
        <time>2011-03-27T09:53:56Z</time>
      </trkpt>
      <trkpt lat="48.4038" lon="2.65954">
        <ele>84.252685546875</ele>
        <time>2011-03-27T09:54:01Z</time>
      </trkpt>
      <trkpt lat="48.4038" lon="2.65921">
        <ele>84.7333984375</ele>
        <time>2011-03-27T09:54:07Z</time>
      </trkpt>
      <trkpt lat="48.4038" lon="2.65884">
        <ele>85.694580078125</ele>
        <time>2011-03-27T09:54:14Z</time>
      </trkpt>
      <trkpt lat="48.4038" lon="2.65839">
        <ele>86.17529296875</ele>
        <time>2011-03-27T09:54:22Z</time>
      </trkpt>
      <trkpt lat="48.4038" lon="2.65796">
        <ele>87.136596679688</ele>
        <time>2011-03-27T09:54:30Z</time>
      </trkpt>
      <trkpt lat="48.4038" lon="2.65757">
        <ele>86.656005859375</ele>
        <time>2011-03-27T09:54:37Z</time>
      </trkpt>
      <trkpt lat="48.40379" lon="2.65702">
        <ele>85.213989257812</ele>
        <time>2011-03-27T09:54:45Z</time>
      </trkpt>
      <trkpt lat="48.40379" lon="2.65653">
        <ele>84.7333984375</ele>
        <time>2011-03-27T09:54:51Z</time>
      </trkpt>
      <trkpt lat="48.4038" lon="2.65618">
        <ele>83.77197265625</ele>
        <time>2011-03-27T09:54:55Z</time>
      </trkpt>
      <trkpt lat="48.40379" lon="2.65567">
        <ele>82.810791015625</ele>
        <time>2011-03-27T09:55:01Z</time>
      </trkpt>
      <trkpt lat="48.40378" lon="2.65535">
        <ele>83.291381835938</ele>
        <time>2011-03-27T09:55:06Z</time>
      </trkpt>
      <trkpt lat="48.40381" lon="2.6553">
        <ele>83.291381835938</ele>
        <time>2011-03-27T09:55:09Z</time>
      </trkpt>
      <trkpt lat="48.40381" lon="2.6553">
        <ele>83.291381835938</ele>
        <time>2011-03-27T09:55:10Z</time>
      </trkpt>
      <trkpt lat="48.40381" lon="2.6553">
        <ele>84.252685546875</ele>
        <time>2011-03-27T09:55:46Z</time>
      </trkpt>
      <trkpt lat="48.40383" lon="2.65517">
        <ele>83.77197265625</ele>
        <time>2011-03-27T09:55:50Z</time>
      </trkpt>
      <trkpt lat="48.40387" lon="2.6549">
        <ele>83.77197265625</ele>
        <time>2011-03-27T09:55:55Z</time>
      </trkpt>
      <trkpt lat="48.40388" lon="2.65466">
        <ele>83.77197265625</ele>
        <time>2011-03-27T09:55:59Z</time>
      </trkpt>
      <trkpt lat="48.40395" lon="2.65412">
        <ele>84.252685546875</ele>
        <time>2011-03-27T09:56:08Z</time>
      </trkpt>
      <trkpt lat="48.404" lon="2.65385">
        <ele>84.7333984375</ele>
        <time>2011-03-27T09:56:13Z</time>
      </trkpt>
      <trkpt lat="48.40403" lon="2.65354">
        <ele>84.7333984375</ele>
        <time>2011-03-27T09:56:19Z</time>
      </trkpt>
      <trkpt lat="48.40408" lon="2.65328">
        <ele>85.213989257812</ele>
        <time>2011-03-27T09:56:24Z</time>
      </trkpt>
      <trkpt lat="48.40411" lon="2.653">
        <ele>85.213989257812</ele>
        <time>2011-03-27T09:56:29Z</time>
      </trkpt>
      <trkpt lat="48.40417" lon="2.65259">
        <ele>85.694580078125</ele>
        <time>2011-03-27T09:56:36Z</time>
      </trkpt>
      <trkpt lat="48.40422" lon="2.6522">
        <ele>87.136596679688</ele>
        <time>2011-03-27T09:56:43Z</time>
      </trkpt>
      <trkpt lat="48.40425" lon="2.65185">
        <ele>86.17529296875</ele>
        <time>2011-03-27T09:56:49Z</time>
      </trkpt>
      <trkpt lat="48.40432" lon="2.65145">
        <ele>87.136596679688</ele>
        <time>2011-03-27T09:56:56Z</time>
      </trkpt>
      <trkpt lat="48.40434" lon="2.65113">
        <ele>87.136596679688</ele>
        <time>2011-03-27T09:57:02Z</time>
      </trkpt>
      <trkpt lat="48.40434" lon="2.65103">
        <ele>88.098022460938</ele>
        <time>2011-03-27T09:57:04Z</time>
      </trkpt>
      <trkpt lat="48.40445" lon="2.65076">
        <ele>88.578735351562</ele>
        <time>2011-03-27T09:57:10Z</time>
      </trkpt>
      <trkpt lat="48.40456" lon="2.65052">
        <ele>88.578735351562</ele>
        <time>2011-03-27T09:57:16Z</time>
      </trkpt>
      <trkpt lat="48.40469" lon="2.65027">
        <ele>90.020629882812</ele>
        <time>2011-03-27T09:57:23Z</time>
      </trkpt>
      <trkpt lat="48.40482" lon="2.65012">
        <ele>90.501342773438</ele>
        <time>2011-03-27T09:57:28Z</time>
      </trkpt>
      <trkpt lat="48.40496" lon="2.64992">
        <ele>91.462524414062</ele>
        <time>2011-03-27T09:57:33Z</time>
      </trkpt>
      <trkpt lat="48.40513" lon="2.64969">
        <ele>91.462524414062</ele>
        <time>2011-03-27T09:57:40Z</time>
      </trkpt>
      <trkpt lat="48.40523" lon="2.64949">
        <ele>92.423950195312</ele>
        <time>2011-03-27T09:57:46Z</time>
      </trkpt>
      <trkpt lat="48.40536" lon="2.64925">
        <ele>92.904541015625</ele>
        <time>2011-03-27T09:57:54Z</time>
      </trkpt>
      <trkpt lat="48.40544" lon="2.64908">
        <ele>93.865844726562</ele>
        <time>2011-03-27T09:58:01Z</time>
      </trkpt>
      <trkpt lat="48.40551" lon="2.64893">
        <ele>95.307739257812</ele>
        <time>2011-03-27T09:58:08Z</time>
      </trkpt>
      <trkpt lat="48.40565" lon="2.64876">
        <ele>96.749877929688</ele>
        <time>2011-03-27T09:58:15Z</time>
      </trkpt>
      <trkpt lat="48.40573" lon="2.64851">
        <ele>98.19189453125</ele>
        <time>2011-03-27T09:58:23Z</time>
      </trkpt>
      <trkpt lat="48.40574" lon="2.64837">
        <ele>97.711181640625</ele>
        <time>2011-03-27T09:58:27Z</time>
      </trkpt>
      <trkpt lat="48.40577" lon="2.64812">
        <ele>99.6337890625</ele>
        <time>2011-03-27T09:58:33Z</time>
      </trkpt>
      <trkpt lat="48.40579" lon="2.64789">
        <ele>99.6337890625</ele>
        <time>2011-03-27T09:58:38Z</time>
      </trkpt>
      <trkpt lat="48.40581" lon="2.64768">
        <ele>100.59509277344</ele>
        <time>2011-03-27T09:58:43Z</time>
      </trkpt>
      <trkpt lat="48.40588" lon="2.64743">
        <ele>101.07568359375</ele>
        <time>2011-03-27T09:58:49Z</time>
      </trkpt>
      <trkpt lat="48.40591" lon="2.64718">
        <ele>100.59509277344</ele>
        <time>2011-03-27T09:58:55Z</time>
      </trkpt>
      <trkpt lat="48.40596" lon="2.64694">
        <ele>101.07568359375</ele>
        <time>2011-03-27T09:59:00Z</time>
      </trkpt>
      <trkpt lat="48.40604" lon="2.64669">
        <ele>101.55639648438</ele>
        <time>2011-03-27T09:59:06Z</time>
      </trkpt>
      <trkpt lat="48.40611" lon="2.64638">
        <ele>102.51770019531</ele>
        <time>2011-03-27T09:59:13Z</time>
      </trkpt>
      <trkpt lat="48.40612" lon="2.64617">
        <ele>103.47900390625</ele>
        <time>2011-03-27T09:59:18Z</time>
      </trkpt>
      <trkpt lat="48.40611" lon="2.64607">
        <ele>102.99829101562</ele>
        <time>2011-03-27T09:59:20Z</time>
      </trkpt>
      <trkpt lat="48.40607" lon="2.64585">
        <ele>104.92102050781</ele>
        <time>2011-03-27T09:59:25Z</time>
      </trkpt>
      <trkpt lat="48.40602" lon="2.64558">
        <ele>104.4404296875</ele>
        <time>2011-03-27T09:59:31Z</time>
      </trkpt>
      <trkpt lat="48.40595" lon="2.64531">
        <ele>105.40173339844</ele>
        <time>2011-03-27T09:59:37Z</time>
      </trkpt>
      <trkpt lat="48.40591" lon="2.64506">
        <ele>106.84362792969</ele>
        <time>2011-03-27T09:59:43Z</time>
      </trkpt>
      <trkpt lat="48.40587" lon="2.64483">
        <ele>107.32434082031</ele>
        <time>2011-03-27T09:59:49Z</time>
      </trkpt>
      <trkpt lat="48.40591" lon="2.64462">
        <ele>108.28564453125</ele>
        <time>2011-03-27T09:59:55Z</time>
      </trkpt>
      <trkpt lat="48.40594" lon="2.64446">
        <ele>109.24694824219</ele>
        <time>2011-03-27T09:59:59Z</time>
      </trkpt>
      <trkpt lat="48.40606" lon="2.64431">
        <ele>109.72766113281</ele>
        <time>2011-03-27T10:00:05Z</time>
      </trkpt>
      <trkpt lat="48.40618" lon="2.64421">
        <ele>110.68884277344</ele>
        <time>2011-03-27T10:00:10Z</time>
      </trkpt>
      <trkpt lat="48.40624" lon="2.64405">
        <ele>112.13098144531</ele>
        <time>2011-03-27T10:00:15Z</time>
      </trkpt>
      <trkpt lat="48.40626" lon="2.64392">
        <ele>113.57299804688</ele>
        <time>2011-03-27T10:00:20Z</time>
      </trkpt>
      <trkpt lat="48.40627" lon="2.64378">
        <ele>114.5341796875</ele>
        <time>2011-03-27T10:00:26Z</time>
      </trkpt>
      <trkpt lat="48.40627" lon="2.6436">
        <ele>115.97619628906</ele>
        <time>2011-03-27T10:00:33Z</time>
      </trkpt>
      <trkpt lat="48.40628" lon="2.64351">
        <ele>116.9375</ele>
        <time>2011-03-27T10:00:37Z</time>
      </trkpt>
      <trkpt lat="48.4063" lon="2.64328">
        <ele>118.37939453125</ele>
        <time>2011-03-27T10:00:46Z</time>
      </trkpt>
      <trkpt lat="48.4063" lon="2.64312">
        <ele>119.3408203125</ele>
        <time>2011-03-27T10:00:52Z</time>
      </trkpt>
      <trkpt lat="48.4063" lon="2.64296">
        <ele>120.78283691406</ele>
        <time>2011-03-27T10:00:58Z</time>
      </trkpt>
      <trkpt lat="48.40629" lon="2.64285">
        <ele>121.744140625</ele>
        <time>2011-03-27T10:01:02Z</time>
      </trkpt>
      <trkpt lat="48.4063" lon="2.64271">
        <ele>122.22473144531</ele>
        <time>2011-03-27T10:01:08Z</time>
      </trkpt>
      <trkpt lat="48.40638" lon="2.64262">
        <ele>123.66674804688</ele>
        <time>2011-03-27T10:01:14Z</time>
      </trkpt>
      <trkpt lat="48.40648" lon="2.64254">
        <ele>124.62805175781</ele>
        <time>2011-03-27T10:01:20Z</time>
      </trkpt>
      <trkpt lat="48.40651" lon="2.64233">
        <ele>124.14733886719</ele>
        <time>2011-03-27T10:01:27Z</time>
      </trkpt>
      <trkpt lat="48.40649" lon="2.64204">
        <ele>123.66674804688</ele>
        <time>2011-03-27T10:01:33Z</time>
      </trkpt>
      <trkpt lat="48.40646" lon="2.64175">
        <ele>123.66674804688</ele>
        <time>2011-03-27T10:01:38Z</time>
      </trkpt>
      <trkpt lat="48.40644" lon="2.64162">
        <ele>123.66674804688</ele>
        <time>2011-03-27T10:01:40Z</time>
      </trkpt>
      <trkpt lat="48.40636" lon="2.64133">
        <ele>123.18615722656</ele>
        <time>2011-03-27T10:01:45Z</time>
      </trkpt>
      <trkpt lat="48.40633" lon="2.64094">
        <ele>121.744140625</ele>
        <time>2011-03-27T10:01:50Z</time>
      </trkpt>
      <trkpt lat="48.40631" lon="2.64087">
        <ele>121.744140625</ele>
        <time>2011-03-27T10:01:51Z</time>
      </trkpt>
      <trkpt lat="48.40626" lon="2.64068">
        <ele>121.26354980469</ele>
        <time>2011-03-27T10:01:54Z</time>
      </trkpt>
      <trkpt lat="48.40634" lon="2.64054">
        <ele>121.26354980469</ele>
        <time>2011-03-27T10:01:58Z</time>
      </trkpt>
      <trkpt lat="48.40636" lon="2.64055">
        <ele>121.26354980469</ele>
        <time>2011-03-27T10:01:59Z</time>
      </trkpt>
      <trkpt lat="48.40648" lon="2.64065">
        <ele>122.22473144531</ele>
        <time>2011-03-27T10:02:05Z</time>
      </trkpt>
      <trkpt lat="48.40661" lon="2.6408">
        <ele>124.62805175781</ele>
        <time>2011-03-27T10:02:12Z</time>
      </trkpt>
      <trkpt lat="48.40673" lon="2.64088">
        <ele>125.10876464844</ele>
        <time>2011-03-27T10:02:17Z</time>
      </trkpt>
      <trkpt lat="48.40694" lon="2.64101">
        <ele>124.62805175781</ele>
        <time>2011-03-27T10:02:23Z</time>
      </trkpt>
      <trkpt lat="48.40715" lon="2.64121">
        <ele>124.62805175781</ele>
        <time>2011-03-27T10:02:29Z</time>
      </trkpt>
      <trkpt lat="48.40726" lon="2.64134">
        <ele>124.62805175781</ele>
        <time>2011-03-27T10:02:32Z</time>
      </trkpt>
      <trkpt lat="48.40735" lon="2.64147">
        <ele>125.10876464844</ele>
        <time>2011-03-27T10:02:35Z</time>
      </trkpt>
      <trkpt lat="48.40751" lon="2.64158">
        <ele>124.62805175781</ele>
        <time>2011-03-27T10:02:40Z</time>
      </trkpt>
      <trkpt lat="48.40762" lon="2.64184">
        <ele>124.14733886719</ele>
        <time>2011-03-27T10:02:45Z</time>
      </trkpt>
      <trkpt lat="48.40767" lon="2.64196">
        <ele>124.62805175781</ele>
        <time>2011-03-27T10:02:47Z</time>
      </trkpt>
      <trkpt lat="48.40774" lon="2.64206">
        <ele>124.62805175781</ele>
        <time>2011-03-27T10:02:49Z</time>
      </trkpt>
      <trkpt lat="48.40792" lon="2.64252">
        <ele>123.18615722656</ele>
        <time>2011-03-27T10:02:56Z</time>
      </trkpt>
      <trkpt lat="48.40802" lon="2.6429">
        <ele>123.18615722656</ele>
        <time>2011-03-27T10:03:01Z</time>
      </trkpt>
      <trkpt lat="48.4081" lon="2.64338">
        <ele>124.14733886719</ele>
        <time>2011-03-27T10:03:08Z</time>
      </trkpt>
      <trkpt lat="48.40819" lon="2.64386">
        <ele>124.62805175781</ele>
        <time>2011-03-27T10:03:15Z</time>
      </trkpt>
      <trkpt lat="48.40828" lon="2.64431">
        <ele>124.14733886719</ele>
        <time>2011-03-27T10:03:22Z</time>
      </trkpt>
      <trkpt lat="48.4083" lon="2.64437">
        <ele>124.62805175781</ele>
        <time>2011-03-27T10:03:23Z</time>
      </trkpt>
      <trkpt lat="48.40834" lon="2.64457">
        <ele>124.14733886719</ele>
        <time>2011-03-27T10:03:26Z</time>
      </trkpt>
      <trkpt lat="48.40842" lon="2.64512">
        <ele>124.14733886719</ele>
        <time>2011-03-27T10:03:34Z</time>
      </trkpt>
      <trkpt lat="48.4085" lon="2.6457">
        <ele>123.66674804688</ele>
        <time>2011-03-27T10:03:42Z</time>
      </trkpt>
      <trkpt lat="48.40857" lon="2.64613">
        <ele>123.18615722656</ele>
        <time>2011-03-27T10:03:48Z</time>
      </trkpt>
      <trkpt lat="48.40865" lon="2.64658">
        <ele>123.18615722656</ele>
        <time>2011-03-27T10:03:54Z</time>
      </trkpt>
      <trkpt lat="48.40874" lon="2.64713">
        <ele>124.14733886719</ele>
        <time>2011-03-27T10:04:02Z</time>
      </trkpt>
      <trkpt lat="48.40878" lon="2.64726">
        <ele>124.62805175781</ele>
        <time>2011-03-27T10:04:04Z</time>
      </trkpt>
      <trkpt lat="48.40886" lon="2.64761">
        <ele>124.62805175781</ele>
        <time>2011-03-27T10:04:10Z</time>
      </trkpt>
      <trkpt lat="48.40895" lon="2.64788">
        <ele>124.62805175781</ele>
        <time>2011-03-27T10:04:15Z</time>
      </trkpt>
      <trkpt lat="48.40908" lon="2.64833">
        <ele>125.10876464844</ele>
        <time>2011-03-27T10:04:22Z</time>
      </trkpt>
      <trkpt lat="48.40921" lon="2.64871">
        <ele>125.10876464844</ele>
        <time>2011-03-27T10:04:28Z</time>
      </trkpt>
      <trkpt lat="48.40936" lon="2.64916">
        <ele>124.62805175781</ele>
        <time>2011-03-27T10:04:35Z</time>
      </trkpt>
      <trkpt lat="48.40949" lon="2.64955">
        <ele>124.62805175781</ele>
        <time>2011-03-27T10:04:41Z</time>
      </trkpt>
      <trkpt lat="48.40963" lon="2.64998">
        <ele>124.14733886719</ele>
        <time>2011-03-27T10:04:47Z</time>
      </trkpt>
      <trkpt lat="48.4098" lon="2.65048">
        <ele>123.66674804688</ele>
        <time>2011-03-27T10:04:54Z</time>
      </trkpt>
      <trkpt lat="48.40997" lon="2.651">
        <ele>123.66674804688</ele>
        <time>2011-03-27T10:05:01Z</time>
      </trkpt>
      <trkpt lat="48.41014" lon="2.6515">
        <ele>123.66674804688</ele>
        <time>2011-03-27T10:05:08Z</time>
      </trkpt>
      <trkpt lat="48.41028" lon="2.65192">
        <ele>122.70544433594</ele>
        <time>2011-03-27T10:05:14Z</time>
      </trkpt>
      <trkpt lat="48.41033" lon="2.65205">
        <ele>122.70544433594</ele>
        <time>2011-03-27T10:05:16Z</time>
      </trkpt>
      <trkpt lat="48.41054" lon="2.6527">
        <ele>122.70544433594</ele>
        <time>2011-03-27T10:05:24Z</time>
      </trkpt>
      <trkpt lat="48.41073" lon="2.65331">
        <ele>123.66674804688</ele>
        <time>2011-03-27T10:05:32Z</time>
      </trkpt>
      <trkpt lat="48.41089" lon="2.65384">
        <ele>123.18615722656</ele>
        <time>2011-03-27T10:05:39Z</time>
      </trkpt>
      <trkpt lat="48.41103" lon="2.65427">
        <ele>123.18615722656</ele>
        <time>2011-03-27T10:05:45Z</time>
      </trkpt>
      <trkpt lat="48.41119" lon="2.65479">
        <ele>123.18615722656</ele>
        <time>2011-03-27T10:05:52Z</time>
      </trkpt>
      <trkpt lat="48.41127" lon="2.65501">
        <ele>122.70544433594</ele>
        <time>2011-03-27T10:05:55Z</time>
      </trkpt>
      <trkpt lat="48.41139" lon="2.65537">
        <ele>122.70544433594</ele>
        <time>2011-03-27T10:06:00Z</time>
      </trkpt>
      <trkpt lat="48.41143" lon="2.65564">
        <ele>121.744140625</ele>
        <time>2011-03-27T10:06:04Z</time>
      </trkpt>
      <trkpt lat="48.41137" lon="2.65592">
        <ele>121.744140625</ele>
        <time>2011-03-27T10:06:09Z</time>
      </trkpt>
      <trkpt lat="48.4113" lon="2.65592">
        <ele>121.744140625</ele>
        <time>2011-03-27T10:06:12Z</time>
      </trkpt>
      <trkpt lat="48.41122" lon="2.6559">
        <ele>122.22473144531</ele>
        <time>2011-03-27T10:06:15Z</time>
      </trkpt>
      <trkpt lat="48.41117" lon="2.65588">
        <ele>122.22473144531</ele>
        <time>2011-03-27T10:06:16Z</time>
      </trkpt>
      <trkpt lat="48.41077" lon="2.65572">
        <ele>122.22473144531</ele>
        <time>2011-03-27T10:06:24Z</time>
      </trkpt>
      <trkpt lat="48.41035" lon="2.65555">
        <ele>123.18615722656</ele>
        <time>2011-03-27T10:06:32Z</time>
      </trkpt>
      <trkpt lat="48.40979" lon="2.65533">
        <ele>123.18615722656</ele>
        <time>2011-03-27T10:06:43Z</time>
      </trkpt>
      <trkpt lat="48.4094" lon="2.65518">
        <ele>124.14733886719</ele>
        <time>2011-03-27T10:06:51Z</time>
      </trkpt>
      <trkpt lat="48.40911" lon="2.65507">
        <ele>124.14733886719</ele>
        <time>2011-03-27T10:06:57Z</time>
      </trkpt>
      <trkpt lat="48.40878" lon="2.65494">
        <ele>124.62805175781</ele>
        <time>2011-03-27T10:07:04Z</time>
      </trkpt>
      <trkpt lat="48.40841" lon="2.65479">
        <ele>124.62805175781</ele>
        <time>2011-03-27T10:07:11Z</time>
      </trkpt>
      <trkpt lat="48.4082" lon="2.65471">
        <ele>124.62805175781</ele>
        <time>2011-03-27T10:07:15Z</time>
      </trkpt>
      <trkpt lat="48.40807" lon="2.65479">
        <ele>124.14733886719</ele>
        <time>2011-03-27T10:07:19Z</time>
      </trkpt>
      <trkpt lat="48.4081" lon="2.65498">
        <ele>123.66674804688</ele>
        <time>2011-03-27T10:07:22Z</time>
      </trkpt>
      <trkpt lat="48.40811" lon="2.65505">
        <ele>123.66674804688</ele>
        <time>2011-03-27T10:07:23Z</time>
      </trkpt>
      <trkpt lat="48.40816" lon="2.65539">
        <ele>123.66674804688</ele>
        <time>2011-03-27T10:07:27Z</time>
      </trkpt>
      <trkpt lat="48.40819" lon="2.65565">
        <ele>123.66674804688</ele>
        <time>2011-03-27T10:07:30Z</time>
      </trkpt>
      <trkpt lat="48.40826" lon="2.65616">
        <ele>123.18615722656</ele>
        <time>2011-03-27T10:07:36Z</time>
      </trkpt>
      <trkpt lat="48.40833" lon="2.65677">
        <ele>122.70544433594</ele>
        <time>2011-03-27T10:07:43Z</time>
      </trkpt>
      <trkpt lat="48.40839" lon="2.65734">
        <ele>122.70544433594</ele>
        <time>2011-03-27T10:07:50Z</time>
      </trkpt>
      <trkpt lat="48.4084" lon="2.65742">
        <ele>123.18615722656</ele>
        <time>2011-03-27T10:07:51Z</time>
      </trkpt>
      <trkpt lat="48.40843" lon="2.65763">
        <ele>122.70544433594</ele>
        <time>2011-03-27T10:07:54Z</time>
      </trkpt>
      <trkpt lat="48.40847" lon="2.65801">
        <ele>122.70544433594</ele>
        <time>2011-03-27T10:07:59Z</time>
      </trkpt>
      <trkpt lat="48.4085" lon="2.65823">
        <ele>122.70544433594</ele>
        <time>2011-03-27T10:08:02Z</time>
      </trkpt>
      <trkpt lat="48.40856" lon="2.6586">
        <ele>123.18615722656</ele>
        <time>2011-03-27T10:08:07Z</time>
      </trkpt>
      <trkpt lat="48.40861" lon="2.65898">
        <ele>122.70544433594</ele>
        <time>2011-03-27T10:08:12Z</time>
      </trkpt>
      <trkpt lat="48.40865" lon="2.65939">
        <ele>122.70544433594</ele>
        <time>2011-03-27T10:08:17Z</time>
      </trkpt>
      <trkpt lat="48.40861" lon="2.65968">
        <ele>122.22473144531</ele>
        <time>2011-03-27T10:08:21Z</time>
      </trkpt>
      <trkpt lat="48.40852" lon="2.65989">
        <ele>123.18615722656</ele>
        <time>2011-03-27T10:08:25Z</time>
      </trkpt>
      <trkpt lat="48.40838" lon="2.66027">
        <ele>123.18615722656</ele>
        <time>2011-03-27T10:08:32Z</time>
      </trkpt>
      <trkpt lat="48.40819" lon="2.66066">
        <ele>123.18615722656</ele>
        <time>2011-03-27T10:08:38Z</time>
      </trkpt>
      <trkpt lat="48.40809" lon="2.6609">
        <ele>124.14733886719</ele>
        <time>2011-03-27T10:08:42Z</time>
      </trkpt>
      <trkpt lat="48.40805" lon="2.66101">
        <ele>123.66674804688</ele>
        <time>2011-03-27T10:08:44Z</time>
      </trkpt>
      <trkpt lat="48.408" lon="2.6612">
        <ele>123.18615722656</ele>
        <time>2011-03-27T10:08:47Z</time>
      </trkpt>
      <trkpt lat="48.40791" lon="2.66147">
        <ele>123.18615722656</ele>
        <time>2011-03-27T10:08:51Z</time>
      </trkpt>
      <trkpt lat="48.40783" lon="2.66169">
        <ele>122.22473144531</ele>
        <time>2011-03-27T10:08:54Z</time>
      </trkpt>
      <trkpt lat="48.40765" lon="2.66204">
        <ele>119.82141113281</ele>
        <time>2011-03-27T10:08:58Z</time>
      </trkpt>
      <trkpt lat="48.40738" lon="2.66267">
        <ele>114.5341796875</ele>
        <time>2011-03-27T10:09:02Z</time>
      </trkpt>
      <trkpt lat="48.40724" lon="2.66295">
        <ele>112.13098144531</ele>
        <time>2011-03-27T10:09:04Z</time>
      </trkpt>
      <trkpt lat="48.40698" lon="2.66343">
        <ele>108.76623535156</ele>
        <time>2011-03-27T10:09:08Z</time>
      </trkpt>
      <trkpt lat="48.40675" lon="2.66396">
        <ele>104.92102050781</ele>
        <time>2011-03-27T10:09:12Z</time>
      </trkpt>
      <trkpt lat="48.4065" lon="2.66449">
        <ele>101.07568359375</ele>
        <time>2011-03-27T10:09:16Z</time>
      </trkpt>
      <trkpt lat="48.40638" lon="2.66473">
        <ele>100.11450195312</ele>
        <time>2011-03-27T10:09:18Z</time>
      </trkpt>
      <trkpt lat="48.40617" lon="2.66518">
        <ele>97.23046875</ele>
        <time>2011-03-27T10:09:22Z</time>
      </trkpt>
      <trkpt lat="48.40606" lon="2.66542">
        <ele>93.865844726562</ele>
        <time>2011-03-27T10:09:24Z</time>
      </trkpt>
      <trkpt lat="48.40593" lon="2.66567">
        <ele>90.020629882812</ele>
        <time>2011-03-27T10:09:26Z</time>
      </trkpt>
      <trkpt lat="48.4058" lon="2.66597">
        <ele>88.098022460938</ele>
        <time>2011-03-27T10:09:28Z</time>
      </trkpt>
      <trkpt lat="48.40561" lon="2.66635">
        <ele>88.098022460938</ele>
        <time>2011-03-27T10:09:31Z</time>
      </trkpt>
      <trkpt lat="48.40549" lon="2.6666">
        <ele>87.6171875</ele>
        <time>2011-03-27T10:09:33Z</time>
      </trkpt>
      <trkpt lat="48.40531" lon="2.66696">
        <ele>83.77197265625</ele>
        <time>2011-03-27T10:09:36Z</time>
      </trkpt>
      <trkpt lat="48.40514" lon="2.66733">
        <ele>81.368774414062</ele>
        <time>2011-03-27T10:09:39Z</time>
      </trkpt>
      <trkpt lat="48.40495" lon="2.66778">
        <ele>80.407470703125</ele>
        <time>2011-03-27T10:09:43Z</time>
      </trkpt>
      <trkpt lat="48.4049" lon="2.66814">
        <ele>79.926635742188</ele>
        <time>2011-03-27T10:09:47Z</time>
      </trkpt>
      <trkpt lat="48.405" lon="2.66846">
        <ele>80.88818359375</ele>
        <time>2011-03-27T10:09:51Z</time>
      </trkpt>
      <trkpt lat="48.40514" lon="2.66897">
        <ele>80.407470703125</ele>
        <time>2011-03-27T10:09:57Z</time>
      </trkpt>
      <trkpt lat="48.40526" lon="2.66931">
        <ele>80.407470703125</ele>
        <time>2011-03-27T10:10:01Z</time>
      </trkpt>
      <trkpt lat="48.40534" lon="2.66957">
        <ele>80.407470703125</ele>
        <time>2011-03-27T10:10:04Z</time>
      </trkpt>
      <trkpt lat="48.40554" lon="2.67021">
        <ele>81.368774414062</ele>
        <time>2011-03-27T10:10:12Z</time>
      </trkpt>
      <trkpt lat="48.40572" lon="2.67076">
        <ele>81.849365234375</ele>
        <time>2011-03-27T10:10:20Z</time>
      </trkpt>
      <trkpt lat="48.40587" lon="2.67126">
        <ele>82.810791015625</ele>
        <time>2011-03-27T10:10:28Z</time>
      </trkpt>
      <trkpt lat="48.40595" lon="2.67149">
        <ele>82.810791015625</ele>
        <time>2011-03-27T10:10:32Z</time>
      </trkpt>
      <trkpt lat="48.40598" lon="2.67162">
        <ele>82.810791015625</ele>
        <time>2011-03-27T10:10:34Z</time>
      </trkpt>
      <trkpt lat="48.40607" lon="2.67199">
        <ele>82.330078125</ele>
        <time>2011-03-27T10:10:40Z</time>
      </trkpt>
      <trkpt lat="48.40623" lon="2.6725">
        <ele>82.330078125</ele>
        <time>2011-03-27T10:10:48Z</time>
      </trkpt>
      <trkpt lat="48.40638" lon="2.67293">
        <ele>82.330078125</ele>
        <time>2011-03-27T10:10:55Z</time>
      </trkpt>
      <trkpt lat="48.40644" lon="2.67313">
        <ele>82.330078125</ele>
        <time>2011-03-27T10:10:58Z</time>
      </trkpt>
      <trkpt lat="48.4066" lon="2.67365">
        <ele>82.330078125</ele>
        <time>2011-03-27T10:11:06Z</time>
      </trkpt>
      <trkpt lat="48.40676" lon="2.67415">
        <ele>82.810791015625</ele>
        <time>2011-03-27T10:11:14Z</time>
      </trkpt>
      <trkpt lat="48.40684" lon="2.67441">
        <ele>82.810791015625</ele>
        <time>2011-03-27T10:11:18Z</time>
      </trkpt>
      <trkpt lat="48.40686" lon="2.67456">
        <ele>82.810791015625</ele>
        <time>2011-03-27T10:11:20Z</time>
      </trkpt>
      <trkpt lat="48.40683" lon="2.67484">
        <ele>81.849365234375</ele>
        <time>2011-03-27T10:11:24Z</time>
      </trkpt>
      <trkpt lat="48.40669" lon="2.67507">
        <ele>81.368774414062</ele>
        <time>2011-03-27T10:11:28Z</time>
      </trkpt>
      <trkpt lat="48.40665" lon="2.67513">
        <ele>80.407470703125</ele>
        <time>2011-03-27T10:11:29Z</time>
      </trkpt>
      <trkpt lat="48.40651" lon="2.67538">
        <ele>79.446044921875</ele>
        <time>2011-03-27T10:11:34Z</time>
      </trkpt>
      <trkpt lat="48.40648" lon="2.67549">
        <ele>79.446044921875</ele>
        <time>2011-03-27T10:11:36Z</time>
      </trkpt>
      <trkpt lat="48.40635" lon="2.67566">
        <ele>79.446044921875</ele>
        <time>2011-03-27T10:11:40Z</time>
      </trkpt>
      <trkpt lat="48.40607" lon="2.67602">
        <ele>78.004028320312</ele>
        <time>2011-03-27T10:11:47Z</time>
      </trkpt>
      <trkpt lat="48.40586" lon="2.67632">
        <ele>78.484741210938</ele>
        <time>2011-03-27T10:11:52Z</time>
      </trkpt>
      <trkpt lat="48.40567" lon="2.67656">
        <ele>77.5234375</ele>
        <time>2011-03-27T10:11:56Z</time>
      </trkpt>
      <trkpt lat="48.40549" lon="2.67693">
        <ele>78.004028320312</ele>
        <time>2011-03-27T10:12:01Z</time>
      </trkpt>
      <trkpt lat="48.40543" lon="2.6772">
        <ele>78.484741210938</ele>
        <time>2011-03-27T10:12:04Z</time>
      </trkpt>
      <trkpt lat="48.40533" lon="2.67781">
        <ele>77.042846679688</ele>
        <time>2011-03-27T10:12:10Z</time>
      </trkpt>
      <trkpt lat="48.40523" lon="2.67854">
        <ele>76.081420898438</ele>
        <time>2011-03-27T10:12:16Z</time>
      </trkpt>
      <trkpt lat="48.40509" lon="2.67952">
        <ele>76.562133789062</ele>
        <time>2011-03-27T10:12:24Z</time>
      </trkpt>
      <trkpt lat="48.40492" lon="2.68063">
        <ele>76.081420898438</ele>
        <time>2011-03-27T10:12:33Z</time>
      </trkpt>
      <trkpt lat="48.40488" lon="2.68086">
        <ele>77.5234375</ele>
        <time>2011-03-27T10:12:35Z</time>
      </trkpt>
      <trkpt lat="48.4048" lon="2.68152">
        <ele>75.120239257812</ele>
        <time>2011-03-27T10:12:41Z</time>
      </trkpt>
      <trkpt lat="48.4047" lon="2.68213">
        <ele>74.158813476562</ele>
        <time>2011-03-27T10:12:46Z</time>
      </trkpt>
      <trkpt lat="48.40462" lon="2.68262">
        <ele>76.562133789062</ele>
        <time>2011-03-27T10:12:50Z</time>
      </trkpt>
      <trkpt lat="48.40457" lon="2.68285">
        <ele>76.081420898438</ele>
        <time>2011-03-27T10:12:53Z</time>
      </trkpt>
      <trkpt lat="48.40455" lon="2.68295">
        <ele>76.081420898438</ele>
        <time>2011-03-27T10:12:55Z</time>
      </trkpt>
      <trkpt lat="48.40454" lon="2.68306">
        <ele>75.600830078125</ele>
        <time>2011-03-27T10:12:59Z</time>
      </trkpt>
      <trkpt lat="48.40454" lon="2.68321">
        <ele>76.081420898438</ele>
        <time>2011-03-27T10:13:04Z</time>
      </trkpt>
      <trkpt lat="48.40443" lon="2.68323">
        <ele>75.600830078125</ele>
        <time>2011-03-27T10:13:08Z</time>
      </trkpt>
      <trkpt lat="48.40433" lon="2.68317">
        <ele>75.600830078125</ele>
        <time>2011-03-27T10:13:11Z</time>
      </trkpt>
      <trkpt lat="48.40414" lon="2.68305">
        <ele>75.600830078125</ele>
        <time>2011-03-27T10:13:17Z</time>
      </trkpt>
      <trkpt lat="48.40407" lon="2.68311">
        <ele>76.081420898438</ele>
        <time>2011-03-27T10:13:21Z</time>
      </trkpt>
      <trkpt lat="48.40407" lon="2.68314">
        <ele>75.600830078125</ele>
        <time>2011-03-27T10:13:25Z</time>
      </trkpt>
      <trkpt lat="48.40406" lon="2.68315">
        <ele>76.562133789062</ele>
        <time>2011-03-27T10:13:29Z</time>
      </trkpt>
      <trkpt lat="48.40405" lon="2.68317">
        <ele>76.081420898438</ele>
        <time>2011-03-27T10:13:31Z</time>
      </trkpt>
      <trkpt lat="48.40405" lon="2.68316">
        <ele>74.158813476562</ele>
        <time>2011-03-27T10:13:36Z</time>
      </trkpt>
      <trkpt lat="48.40404" lon="2.68316">
        <ele>76.562133789062</ele>
        <time>2011-03-27T10:13:37Z</time>
      </trkpt>
      <trkpt lat="48.40404" lon="2.68314">
        <ele>73.197631835938</ele>
        <time>2011-03-27T10:13:38Z</time>
      </trkpt>
      <trkpt lat="48.40404" lon="2.68314">
        <ele>77.042846679688</ele>
        <time>2011-03-27T10:13:41Z</time>
      </trkpt>
      <trkpt lat="48.40404" lon="2.68314">
        <ele>75.600830078125</ele>
        <time>2011-03-27T10:13:42Z</time>
      </trkpt>
      <trkpt lat="48.40405" lon="2.68315">
        <ele>76.081420898438</ele>
        <time>2011-03-27T10:13:43Z</time>
      </trkpt>
      <trkpt lat="48.40405" lon="2.68311">
        <ele>74.639526367188</ele>
        <time>2011-03-27T10:13:50Z</time>
      </trkpt>
      <trkpt lat="48.40404" lon="2.68311">
        <ele>75.600830078125</ele>
        <time>2011-03-27T10:13:53Z</time>
      </trkpt>
      <trkpt lat="48.40404" lon="2.68311">
        <ele>76.081420898438</ele>
        <time>2011-03-27T10:13:54Z</time>
      </trkpt>
      <trkpt lat="48.40405" lon="2.68311">
        <ele>76.081420898438</ele>
        <time>2011-03-27T10:13:57Z</time>
      </trkpt>
      <trkpt lat="48.40407" lon="2.68308">
        <ele>76.562133789062</ele>
        <time>2011-03-27T10:14:00Z</time>
      </trkpt>
      <trkpt lat="48.40407" lon="2.68307">
        <ele>75.600830078125</ele>
        <time>2011-03-27T10:14:01Z</time>
      </trkpt>
      <trkpt lat="48.40406" lon="2.68299">
        <ele>76.081420898438</ele>
        <time>2011-03-27T10:14:06Z</time>
      </trkpt>
    </trkseg>
  </trk>
</gpx>